Wetterdaten: Mittwoch, 08.08.2018
Datum Zeit Temp. A. Feuchte A. Luftdruck Regen Wind Richtung Richtung Sonnenschein ET UV Solar Taupunkt Windchill Windböen
08.08.2018 00:00 17,2 °C 84 % 1010,0 hPa 0,0 mm 0,0 km/h (0 Bft) O-SO 112 ° 0 min 0,000 mm 0,0 UV-I 0 W/m² 14,5 °C 17,2 °C 0,0 km/h (0 Bft)
08.08.2018 00:01 17,2 °C 84 % 1009,9 hPa 0,0 mm 0,0 km/h (0 Bft) O-SO 112 ° 0 min 0,000 mm 0,0 UV-I 0 W/m² 14,5 °C 17,2 °C 0,0 km/h (0 Bft)
08.08.2018 00:02 17,1 °C 84 % 1009,9 hPa 0,0 mm 0,2 km/h (0 Bft) O-SO 112 ° 0 min 0,000 mm 0,0 UV-I 0 W/m² 14,4 °C 17,1 °C 1,6 km/h (1 Bft)
08.08.2018 00:03 17,1 °C 84 % 1009,9 hPa 0,0 mm 1,5 km/h (1 Bft) O-SO 112 ° 0 min 0,000 mm 0,0 UV-I 0 W/m² 14,4 °C 17,1 °C 3,2 km/h (1 Bft)
08.08.2018 00:04 17,0 °C 84 % 1009,9 hPa 0,0 mm 0,3 km/h (0 Bft) O-SO 112 ° 0 min 0,000 mm 0,0 UV-I 0 W/m² 14,3 °C 17,0 °C 1,6 km/h (1 Bft)
08.08.2018 00:05 17,0 °C 85 % 1009,9 hPa 0,0 mm 0,0 km/h (0 Bft) O-SO 112 ° 0 min 0,000 mm 0,0 UV-I 0 W/m² 14,5 °C 17,0 °C 0,0 km/h (0 Bft)
08.08.2018 00:06 17,0 °C 85 % 1009,9 hPa 0,0 mm 0,0 km/h (0 Bft) O-SO 112 ° 0 min 0,000 mm 0,0 UV-I 0 W/m² 14,5 °C 17,0 °C 0,0 km/h (0 Bft)
08.08.2018 00:07 17,0 °C 85 % 1009,9 hPa 0,0 mm 0,0 km/h (0 Bft) O-SO 112 ° 0 min 0,000 mm 0,0 UV-I 0 W/m² 14,5 °C 17,0 °C 0,0 km/h (0 Bft)
08.08.2018 00:08 17,0 °C 85 % 1009,9 hPa 0,0 mm 0,0 km/h (0 Bft) O-SO 112 ° 0 min 0,000 mm 0,0 UV-I 0 W/m² 14,5 °C 17,0 °C 0,0 km/h (0 Bft)
08.08.2018 00:09 17,0 °C 85 % 1009,9 hPa 0,0 mm 0,0 km/h (0 Bft) O-SO 112 ° 0 min 0,000 mm 0,0 UV-I 0 W/m² 14,5 °C 17,0 °C 0,0 km/h (0 Bft)
08.08.2018 00:10 17,0 °C 85 % 1009,9 hPa 0,0 mm 0,0 km/h (0 Bft) O-SO 112 ° 0 min 0,000 mm 0,0 UV-I 0 W/m² 14,5 °C 17,0 °C 0,0 km/h (0 Bft)
08.08.2018 00:11 17,1 °C 85 % 1010,0 hPa 0,0 mm 0,0 km/h (0 Bft) O-SO 112 ° 0 min 0,000 mm 0,0 UV-I 0 W/m² 14,6 °C 17,1 °C 0,0 km/h (0 Bft)
08.08.2018 00:12 17,1 °C 85 % 1010,0 hPa 0,0 mm 0,0 km/h (0 Bft) O-SO 112 ° 0 min 0,000 mm 0,0 UV-I 0 W/m² 14,6 °C 17,1 °C 0,0 km/h (0 Bft)
08.08.2018 00:13 17,1 °C 85 % 1009,9 hPa 0,0 mm 0,0 km/h (0 Bft) O-SO 112 ° 0 min 0,000 mm 0,0 UV-I 0 W/m² 14,6 °C 17,1 °C 0,0 km/h (0 Bft)
08.08.2018 00:14 17,2 °C 84 % 1009,9 hPa 0,0 mm 0,0 km/h (0 Bft) O-SO 112 ° 0 min 0,000 mm 0,0 UV-I 0 W/m² 14,5 °C 17,2 °C 0,0 km/h (0 Bft)
08.08.2018 00:15 17,2 °C 84 % 1009,9 hPa 0,0 mm 0,0 km/h (0 Bft) O-SO 112 ° 0 min 0,000 mm 0,0 UV-I 0 W/m² 14,5 °C 17,2 °C 0,0 km/h (0 Bft)
08.08.2018 00:16 17,2 °C 84 % 1009,9 hPa 0,0 mm 0,0 km/h (0 Bft) O-SO 112 ° 0 min 0,000 mm 0,0 UV-I 0 W/m² 14,5 °C 17,2 °C 0,0 km/h (0 Bft)
08.08.2018 00:17 17,3 °C 84 % 1009,9 hPa 0,0 mm 0,0 km/h (0 Bft) O-SO 112 ° 0 min 0,000 mm 0,0 UV-I 0 W/m² 14,6 °C 17,3 °C 0,0 km/h (0 Bft)
08.08.2018 00:18 17,3 °C 84 % 1009,9 hPa 0,0 mm 0,0 km/h (0 Bft) O-SO 112 ° 0 min 0,000 mm 0,0 UV-I 0 W/m² 14,6 °C 17,3 °C 0,0 km/h (0 Bft)
08.08.2018 00:19 17,4 °C 84 % 1009,9 hPa 0,0 mm 0,0 km/h (0 Bft) O-SO 112 ° 0 min 0,000 mm 0,0 UV-I 0 W/m² 14,7 °C 17,4 °C 0,0 km/h (0 Bft)
08.08.2018 00:20 17,4 °C 84 % 1009,8 hPa 0,0 mm 0,0 km/h (0 Bft) O-SO 112 ° 0 min 0,000 mm 0,0 UV-I 0 W/m² 14,7 °C 17,4 °C 0,0 km/h (0 Bft)
08.08.2018 00:21 17,5 °C 83 % 1009,8 hPa 0,0 mm 0,0 km/h (0 Bft) O-SO 112 ° 0 min 0,000 mm 0,0 UV-I 0 W/m² 14,6 °C 17,5 °C 0,0 km/h (0 Bft)
08.08.2018 00:22 17,6 °C 83 % 1009,9 hPa 0,0 mm 0,0 km/h (0 Bft) O-SO 112 ° 0 min 0,000 mm 0,0 UV-I 0 W/m² 14,7 °C 17,6 °C 0,0 km/h (0 Bft)
08.08.2018 00:23 17,8 °C 82 % 1009,9 hPa 0,0 mm 0,1 km/h (0 Bft) O-SO 112 ° 0 min 0,000 mm 0,0 UV-I 0 W/m² 14,7 °C 17,8 °C 1,6 km/h (1 Bft)
08.08.2018 00:24 17,9 °C 82 % 1009,9 hPa 0,0 mm 0,0 km/h (0 Bft) O-SO 112 ° 0 min 0,000 mm 0,0 UV-I 0 W/m² 14,8 °C 17,9 °C 0,0 km/h (0 Bft)
08.08.2018 00:25 18,2 °C 81 % 1009,9 hPa 0,0 mm 0,0 km/h (0 Bft) O-SO 112 ° 0 min 0,000 mm 0,0 UV-I 0 W/m² 14,9 °C 18,2 °C 0,0 km/h (0 Bft)
08.08.2018 00:26 18,3 °C 81 % 1009,9 hPa 0,0 mm 1,5 km/h (1 Bft) O-SO 112 ° 0 min 0,000 mm 0,0 UV-I 0 W/m² 15,0 °C 18,3 °C 3,2 km/h (1 Bft)
08.08.2018 00:27 18,5 °C 80 % 1009,9 hPa 0,0 mm 1,6 km/h (1 Bft) S-SO 147 ° 0 min 0,000 mm 0,0 UV-I 0 W/m² 15,0 °C 18,5 °C 4,8 km/h (1 Bft)
08.08.2018 00:28 18,6 °C 79 % 1009,9 hPa 0,0 mm 4,4 km/h (1 Bft) S 186 ° 0 min 0,000 mm 0,0 UV-I 0 W/m² 14,9 °C 18,6 °C 6,4 km/h (2 Bft)
08.08.2018 00:29 18,8 °C 79 % 1009,9 hPa 0,0 mm 4,7 km/h (1 Bft) S 187 ° 0 min 0,000 mm 0,0 UV-I 0 W/m² 15,1 °C 18,8 °C 6,4 km/h (2 Bft)
08.08.2018 00:30 18,8 °C 79 % 1009,8 hPa 0,0 mm 4,2 km/h (1 Bft) S 187 ° 0 min 0,000 mm 0,0 UV-I 0 W/m² 15,1 °C 18,8 °C 6,4 km/h (2 Bft)
08.08.2018 00:31 18,9 °C 79 % 1009,9 hPa 0,0 mm 4,2 km/h (1 Bft) S-SW 194 ° 0 min 0,000 mm 0,0 UV-I 0 W/m² 15,2 °C 18,9 °C 4,8 km/h (1 Bft)
08.08.2018 00:32 18,9 °C 79 % 1009,9 hPa 0,0 mm 3,1 km/h (1 Bft) S-SW 196 ° 0 min 0,000 mm 0,0 UV-I 0 W/m² 15,2 °C 18,9 °C 4,8 km/h (1 Bft)
08.08.2018 00:33 18,9 °C 79 % 1009,8 hPa 0,0 mm 5,1 km/h (1 Bft) S-SW 192 ° 0 min 0,000 mm 0,0 UV-I 0 W/m² 15,2 °C 18,9 °C 8,0 km/h (2 Bft)
08.08.2018 00:34 18,9 °C 78 % 1009,8 hPa 0,0 mm 2,0 km/h (1 Bft) S-SW 192 ° 0 min 0,000 mm 0,0 UV-I 0 W/m² 15,0 °C 18,9 °C 4,8 km/h (1 Bft)
08.08.2018 00:35 18,9 °C 78 % 1009,8 hPa 0,0 mm 3,7 km/h (1 Bft) S-SW 192 ° 0 min 0,000 mm 0,0 UV-I 0 W/m² 15,0 °C 18,9 °C 4,8 km/h (1 Bft)
08.08.2018 00:36 18,9 °C 79 % 1009,8 hPa 0,0 mm 1,3 km/h (1 Bft) S-SW 192 ° 0 min 0,000 mm 0,0 UV-I 0 W/m² 15,2 °C 18,9 °C 3,2 km/h (1 Bft)
08.08.2018 00:37 18,9 °C 79 % 1009,8 hPa 0,0 mm 0,8 km/h (0 Bft) S-SW 192 ° 0 min 0,000 mm 0,0 UV-I 0 W/m² 15,2 °C 18,9 °C 1,6 km/h (1 Bft)
08.08.2018 00:38 18,9 °C 78 % 1009,9 hPa 0,0 mm 0,5 km/h (0 Bft) S-SW 192 ° 0 min 0,000 mm 0,0 UV-I 0 W/m² 15,0 °C 18,9 °C 1,6 km/h (1 Bft)
08.08.2018 00:39 18,9 °C 78 % 1009,9 hPa 0,0 mm 0,9 km/h (0 Bft) S-SW 192 ° 0 min 0,000 mm 0,0 UV-I 0 W/m² 15,0 °C 18,9 °C 4,8 km/h (1 Bft)
08.08.2018 00:40 18,9 °C 78 % 1009,8 hPa 0,0 mm 1,7 km/h (1 Bft) S-SW 192 ° 0 min 0,000 mm 0,0 UV-I 0 W/m² 15,0 °C 18,9 °C 3,2 km/h (1 Bft)
08.08.2018 00:41 18,9 °C 78 % 1009,8 hPa 0,0 mm 0,9 km/h (0 Bft) S-SW 192 ° 0 min 0,000 mm 0,0 UV-I 0 W/m² 15,0 °C 18,9 °C 3,2 km/h (1 Bft)
08.08.2018 00:42 18,8 °C 78 % 1009,8 hPa 0,0 mm 0,0 km/h (0 Bft) S-SW 192 ° 0 min 0,000 mm 0,0 UV-I 0 W/m² 14,9 °C 18,8 °C 0,0 km/h (0 Bft)
08.08.2018 00:43 18,8 °C 79 % 1009,8 hPa 0,0 mm 0,5 km/h (0 Bft) S-SW 192 ° 0 min 0,000 mm 0,0 UV-I 0 W/m² 15,1 °C 18,8 °C 1,6 km/h (1 Bft)
08.08.2018 00:44 18,8 °C 79 % 1009,8 hPa 0,0 mm 0,0 km/h (0 Bft) S-SW 192 ° 0 min 0,000 mm 0,0 UV-I 0 W/m² 15,1 °C 18,8 °C 0,0 km/h (0 Bft)
08.08.2018 00:45 18,8 °C 79 % 1009,8 hPa 0,0 mm 0,6 km/h (0 Bft) S-SW 192 ° 0 min 0,000 mm 0,0 UV-I 0 W/m² 15,1 °C 18,8 °C 3,2 km/h (1 Bft)
08.08.2018 00:46 18,8 °C 78 % 1009,8 hPa 0,0 mm 2,3 km/h (1 Bft) S-SW 193 ° 0 min 0,000 mm 0,0 UV-I 0 W/m² 14,9 °C 18,8 °C 4,8 km/h (1 Bft)
08.08.2018 00:47 18,8 °C 78 % 1009,7 hPa 0,0 mm 5,6 km/h (1 Bft) S-SW 197 ° 0 min 0,000 mm 0,0 UV-I 0 W/m² 14,9 °C 18,8 °C 8,0 km/h (2 Bft)
08.08.2018 00:48 18,9 °C 78 % 1009,7 hPa 0,0 mm 1,7 km/h (1 Bft) S-SW 197 ° 0 min 0,000 mm 0,0 UV-I 0 W/m² 15,0 °C 18,9 °C 4,8 km/h (1 Bft)
08.08.2018 00:49 18,9 °C 78 % 1009,7 hPa 0,0 mm 0,0 km/h (0 Bft) S-SW 197 ° 0 min 0,000 mm 0,0 UV-I 0 W/m² 15,0 °C 18,9 °C 0,0 km/h (0 Bft)
08.08.2018 00:50 18,9 °C 78 % 1009,7 hPa 0,0 mm 1,3 km/h (1 Bft) S-SW 197 ° 0 min 0,000 mm 0,0 UV-I 0 W/m² 15,0 °C 18,9 °C 3,2 km/h (1 Bft)
08.08.2018 00:51 18,8 °C 78 % 1009,7 hPa 0,0 mm 0,8 km/h (0 Bft) S-SW 197 ° 0 min 0,000 mm 0,0 UV-I 0 W/m² 14,9 °C 18,8 °C 1,6 km/h (1 Bft)
08.08.2018 00:52 18,9 °C 78 % 1009,7 hPa 0,0 mm 0,0 km/h (0 Bft) S-SW 197 ° 0 min 0,000 mm 0,0 UV-I 0 W/m² 15,0 °C 18,9 °C 0,0 km/h (0 Bft)
08.08.2018 00:53 18,9 °C 78 % 1009,7 hPa 0,0 mm 0,5 km/h (0 Bft) S-SW 197 ° 0 min 0,000 mm 0,0 UV-I 0 W/m² 15,0 °C 18,9 °C 3,2 km/h (1 Bft)
08.08.2018 00:54 18,9 °C 77 % 1009,7 hPa 0,0 mm 2,2 km/h (1 Bft) S-SW 197 ° 0 min 0,000 mm 0,0 UV-I 0 W/m² 14,8 °C 18,9 °C 4,8 km/h (1 Bft)
08.08.2018 00:55 19,0 °C 77 % 1009,7 hPa 0,0 mm 1,6 km/h (1 Bft) S-SW 197 ° 0 min 0,000 mm 0,0 UV-I 0 W/m² 14,9 °C 19,0 °C 4,8 km/h (1 Bft)
08.08.2018 00:56 19,0 °C 77 % 1009,7 hPa 0,0 mm 1,8 km/h (1 Bft) S-SW 197 ° 0 min 0,000 mm 0,0 UV-I 0 W/m² 14,9 °C 19,0 °C 3,2 km/h (1 Bft)
08.08.2018 00:57 19,1 °C 77 % 1009,7 hPa 0,0 mm 2,7 km/h (1 Bft) S-SW 197 ° 0 min 0,000 mm 0,0 UV-I 0 W/m² 15,0 °C 19,1 °C 4,8 km/h (1 Bft)
08.08.2018 00:58 19,2 °C 76 % 1009,8 hPa 0,0 mm 4,6 km/h (1 Bft) S 189 ° 0 min 0,000 mm 0,0 UV-I 0 W/m² 14,9 °C 19,2 °C 8,0 km/h (2 Bft)
08.08.2018 00:59 19,3 °C 75 % 1009,8 hPa 0,0 mm 4,9 km/h (1 Bft) S-SW 208 ° 0 min 0,000 mm 0,0 UV-I 0 W/m² 14,8 °C 19,3 °C 8,0 km/h (2 Bft)
08.08.2018 01:00 19,3 °C 75 % 1009,8 hPa 0,0 mm 4,1 km/h (1 Bft) S 188 ° 0 min 0,000 mm 0,0 UV-I 0 W/m² 14,8 °C 19,3 °C 6,4 km/h (2 Bft)
08.08.2018 01:01 19,4 °C 75 % 1009,8 hPa 0,0 mm 5,0 km/h (1 Bft) S-SW 205 ° 0 min 0,025 mm 0,0 UV-I 0 W/m² 14,8 °C 19,4 °C 9,7 km/h (2 Bft)
08.08.2018 01:02 19,4 °C 75 % 1009,8 hPa 0,0 mm 5,4 km/h (1 Bft) S 186 ° 0 min 0,000 mm 0,0 UV-I 0 W/m² 14,8 °C 19,4 °C 6,4 km/h (2 Bft)
08.08.2018 01:03 19,4 °C 75 % 1009,8 hPa 0,0 mm 5,2 km/h (1 Bft) S-SW 194 ° 0 min 0,000 mm 0,0 UV-I 0 W/m² 14,8 °C 19,4 °C 8,0 km/h (2 Bft)
08.08.2018 01:04 19,4 °C 76 % 1009,8 hPa 0,0 mm 2,0 km/h (1 Bft) S-SW 194 ° 0 min 0,000 mm 0,0 UV-I 0 W/m² 15,1 °C 19,4 °C 3,2 km/h (1 Bft)
08.08.2018 01:05 19,3 °C 76 % 1009,8 hPa 0,0 mm 1,3 km/h (1 Bft) S-SW 194 ° 0 min 0,000 mm 0,0 UV-I 0 W/m² 15,0 °C 19,3 °C 3,2 km/h (1 Bft)
08.08.2018 01:06 19,3 °C 76 % 1009,8 hPa 0,0 mm 0,0 km/h (0 Bft) S-SW 194 ° 0 min 0,000 mm 0,0 UV-I 0 W/m² 15,0 °C 19,3 °C 0,0 km/h (0 Bft)
08.08.2018 01:07 19,3 °C 76 % 1009,8 hPa 0,0 mm 0,0 km/h (0 Bft) S-SW 194 ° 0 min 0,000 mm 0,0 UV-I 0 W/m² 15,0 °C 19,3 °C 0,0 km/h (0 Bft)
08.08.2018 01:08 19,3 °C 75 % 1009,8 hPa 0,0 mm 0,0 km/h (0 Bft) S-SW 194 ° 0 min 0,000 mm 0,0 UV-I 0 W/m² 14,8 °C 19,3 °C 0,0 km/h (0 Bft)
08.08.2018 01:09 19,3 °C 76 % 1009,8 hPa 0,0 mm 0,0 km/h (0 Bft) S-SW 194 ° 0 min 0,000 mm 0,0 UV-I 0 W/m² 15,0 °C 19,3 °C 0,0 km/h (0 Bft)
08.08.2018 01:10 19,3 °C 76 % 1009,7 hPa 0,0 mm 0,0 km/h (0 Bft) S-SW 194 ° 0 min 0,000 mm 0,0 UV-I 0 W/m² 15,0 °C 19,3 °C 0,0 km/h (0 Bft)
08.08.2018 01:11 19,3 °C 77 % 1009,8 hPa 0,0 mm 0,0 km/h (0 Bft) S-SW 194 ° 0 min 0,000 mm 0,0 UV-I 0 W/m² 15,2 °C 19,3 °C 0,0 km/h (0 Bft)
08.08.2018 01:12 19,2 °C 77 % 1009,9 hPa 0,0 mm 0,0 km/h (0 Bft) S-SW 194 ° 0 min 0,000 mm 0,0 UV-I 0 W/m² 15,1 °C 19,2 °C 0,0 km/h (0 Bft)
08.08.2018 01:13 19,2 °C 77 % 1009,9 hPa 0,0 mm 0,0 km/h (0 Bft) S-SW 194 ° 0 min 0,000 mm 0,0 UV-I 0 W/m² 15,1 °C 19,2 °C 0,0 km/h (0 Bft)
08.08.2018 01:14 19,2 °C 77 % 1009,9 hPa 0,0 mm 0,0 km/h (0 Bft) S-SW 194 ° 0 min 0,000 mm 0,0 UV-I 0 W/m² 15,1 °C 19,2 °C 0,0 km/h (0 Bft)
08.08.2018 01:15 19,2 °C 77 % 1009,9 hPa 0,0 mm 0,1 km/h (0 Bft) S-SW 194 ° 0 min 0,000 mm 0,0 UV-I 0 W/m² 15,1 °C 19,2 °C 1,6 km/h (1 Bft)
08.08.2018 01:16 19,2 °C 77 % 1009,9 hPa 0,0 mm 0,3 km/h (0 Bft) S-SW 194 ° 0 min 0,000 mm 0,0 UV-I 0 W/m² 15,1 °C 19,2 °C 1,6 km/h (1 Bft)
08.08.2018 01:17 19,2 °C 77 % 1009,9 hPa 0,0 mm 0,0 km/h (0 Bft) S-SW 194 ° 0 min 0,000 mm 0,0 UV-I 0 W/m² 15,1 °C 19,2 °C 0,0 km/h (0 Bft)
08.08.2018 01:18 19,1 °C 77 % 1009,9 hPa 0,0 mm 1,8 km/h (1 Bft) S-SW 198 ° 0 min 0,000 mm 0,0 UV-I 0 W/m² 15,0 °C 19,1 °C 3,2 km/h (1 Bft)
08.08.2018 01:19 19,1 °C 77 % 1009,9 hPa 0,0 mm 2,1 km/h (1 Bft) SW 229 ° 0 min 0,000 mm 0,0 UV-I 0 W/m² 15,0 °C 19,1 °C 3,2 km/h (1 Bft)
08.08.2018 01:20 19,2 °C 76 % 1009,9 hPa 0,0 mm 0,5 km/h (0 Bft) SW 229 ° 0 min 0,000 mm 0,0 UV-I 0 W/m² 14,9 °C 19,2 °C 1,6 km/h (1 Bft)
08.08.2018 01:21 19,2 °C 77 % 1009,9 hPa 0,0 mm 0,1 km/h (0 Bft) SW 229 ° 0 min 0,000 mm 0,0 UV-I 0 W/m² 15,1 °C 19,2 °C 1,6 km/h (1 Bft)
08.08.2018 01:22 19,2 °C 76 % 1009,9 hPa 0,0 mm 0,2 km/h (0 Bft) SW 229 ° 0 min 0,000 mm 0,0 UV-I 0 W/m² 14,9 °C 19,2 °C 1,6 km/h (1 Bft)
08.08.2018 01:23 19,2 °C 75 % 1009,9 hPa 0,0 mm 1,7 km/h (1 Bft) S-SW 193 ° 0 min 0,000 mm 0,0 UV-I 0 W/m² 14,7 °C 19,2 °C 6,4 km/h (2 Bft)
08.08.2018 01:24 19,2 °C 76 % 1009,9 hPa 0,0 mm 3,2 km/h (1 Bft) S 185 ° 0 min 0,000 mm 0,0 UV-I 0 W/m² 14,9 °C 19,2 °C 6,4 km/h (2 Bft)
08.08.2018 01:25 19,3 °C 76 % 1009,9 hPa 0,0 mm 2,2 km/h (1 Bft) S 186 ° 0 min 0,000 mm 0,0 UV-I 0 W/m² 15,0 °C 19,3 °C 4,8 km/h (1 Bft)
08.08.2018 01:26 19,3 °C 76 % 1009,9 hPa 0,0 mm 0,4 km/h (0 Bft) S 186 ° 0 min 0,000 mm 0,0 UV-I 0 W/m² 15,0 °C 19,3 °C 1,6 km/h (1 Bft)
08.08.2018 01:27 19,2 °C 76 % 1009,9 hPa 0,0 mm 2,6 km/h (1 Bft) S 186 ° 0 min 0,000 mm 0,0 UV-I 0 W/m² 14,9 °C 19,2 °C 4,8 km/h (1 Bft)
08.08.2018 01:28 19,2 °C 76 % 1009,9 hPa 0,0 mm 0,3 km/h (0 Bft) S 186 ° 0 min 0,000 mm 0,0 UV-I 0 W/m² 14,9 °C 19,2 °C 1,6 km/h (1 Bft)
08.08.2018 01:29 19,1 °C 76 % 1009,9 hPa 0,0 mm 0,0 km/h (0 Bft) S 186 ° 0 min 0,000 mm 0,0 UV-I 0 W/m² 14,8 °C 19,1 °C 0,0 km/h (0 Bft)
08.08.2018 01:30 19,1 °C 76 % 1009,9 hPa 0,0 mm 0,0 km/h (0 Bft) S 186 ° 0 min 0,000 mm 0,0 UV-I 0 W/m² 14,8 °C 19,1 °C 0,0 km/h (0 Bft)
08.08.2018 01:31 19,0 °C 77 % 1009,8 hPa 0,0 mm 0,0 km/h (0 Bft) S 186 ° 0 min 0,000 mm 0,0 UV-I 0 W/m² 14,9 °C 19,0 °C 0,0 km/h (0 Bft)
08.08.2018 01:32 18,9 °C 77 % 1009,8 hPa 0,0 mm 0,0 km/h (0 Bft) S 186 ° 0 min 0,000 mm 0,0 UV-I 0 W/m² 14,8 °C 18,9 °C 0,0 km/h (0 Bft)
08.08.2018 01:33 18,9 °C 77 % 1009,8 hPa 0,0 mm 0,0 km/h (0 Bft) S 186 ° 0 min 0,000 mm 0,0 UV-I 0 W/m² 14,8 °C 18,9 °C 0,0 km/h (0 Bft)
08.08.2018 01:34 18,9 °C 78 % 1009,8 hPa 0,0 mm 0,0 km/h (0 Bft) S 186 ° 0 min 0,000 mm 0,0 UV-I 0 W/m² 15,0 °C 18,9 °C 0,0 km/h (0 Bft)
08.08.2018 01:35 18,8 °C 79 % 1009,8 hPa 0,0 mm 0,0 km/h (0 Bft) S 186 ° 0 min 0,000 mm 0,0 UV-I 0 W/m² 15,1 °C 18,8 °C 0,0 km/h (0 Bft)
08.08.2018 01:36 18,7 °C 79 % 1009,8 hPa 0,0 mm 0,0 km/h (0 Bft) S 186 ° 0 min 0,000 mm 0,0 UV-I 0 W/m² 15,0 °C 18,7 °C 0,0 km/h (0 Bft)
08.08.2018 01:37 18,7 °C 79 % 1009,8 hPa 0,0 mm 0,0 km/h (0 Bft) S 186 ° 0 min 0,000 mm 0,0 UV-I 0 W/m² 15,0 °C 18,7 °C 0,0 km/h (0 Bft)
08.08.2018 01:38 18,7 °C 79 % 1009,7 hPa 0,0 mm 0,0 km/h (0 Bft) S 186 ° 0 min 0,000 mm 0,0 UV-I 0 W/m² 15,0 °C 18,7 °C 0,0 km/h (0 Bft)
08.08.2018 01:39 18,7 °C 78 % 1009,6 hPa 0,0 mm 0,0 km/h (0 Bft) S 186 ° 0 min 0,000 mm 0,0 UV-I 0 W/m² 14,8 °C 18,7 °C 0,0 km/h (0 Bft)
08.08.2018 01:40 18,7 °C 78 % 1009,6 hPa 0,0 mm 0,0 km/h (0 Bft) S 186 ° 0 min 0,000 mm 0,0 UV-I 0 W/m² 14,8 °C 18,7 °C 0,0 km/h (0 Bft)
08.08.2018 01:41 18,7 °C 78 % 1009,5 hPa 0,0 mm 0,0 km/h (0 Bft) S 186 ° 0 min 0,000 mm 0,0 UV-I 0 W/m² 14,8 °C 18,7 °C 0,0 km/h (0 Bft)
08.08.2018 01:42 18,7 °C 79 % 1009,5 hPa 0,0 mm 0,0 km/h (0 Bft) S 186 ° 0 min 0,000 mm 0,0 UV-I 0 W/m² 15,0 °C 18,7 °C 0,0 km/h (0 Bft)
08.08.2018 01:43 18,7 °C 79 % 1009,5 hPa 0,0 mm 0,0 km/h (0 Bft) S 186 ° 0 min 0,000 mm 0,0 UV-I 0 W/m² 15,0 °C 18,7 °C 0,0 km/h (0 Bft)
08.08.2018 01:44 18,7 °C 78 % 1009,5 hPa 0,0 mm 0,0 km/h (0 Bft) S 186 ° 0 min 0,000 mm 0,0 UV-I 0 W/m² 14,8 °C 18,7 °C 0,0 km/h (0 Bft)
08.08.2018 01:45 18,7 °C 78 % 1009,5 hPa 0,0 mm 0,0 km/h (0 Bft) S 186 ° 0 min 0,000 mm 0,0 UV-I 0 W/m² 14,8 °C 18,7 °C 0,0 km/h (0 Bft)
08.08.2018 01:46 18,7 °C 78 % 1009,5 hPa 0,0 mm 0,0 km/h (0 Bft) S 186 ° 0 min 0,000 mm 0,0 UV-I 0 W/m² 14,8 °C 18,7 °C 0,0 km/h (0 Bft)
08.08.2018 01:47 18,7 °C 78 % 1009,5 hPa 0,0 mm 0,0 km/h (0 Bft) S 186 ° 0 min 0,000 mm 0,0 UV-I 0 W/m² 14,8 °C 18,7 °C 0,0 km/h (0 Bft)
08.08.2018 01:48 18,7 °C 78 % 1009,5 hPa 0,0 mm 0,0 km/h (0 Bft) S 186 ° 0 min 0,000 mm 0,0 UV-I 0 W/m² 14,8 °C 18,7 °C 0,0 km/h (0 Bft)
08.08.2018 01:49 18,7 °C 78 % 1009,5 hPa 0,0 mm 0,0 km/h (0 Bft) S 186 ° 0 min 0,000 mm 0,0 UV-I 0 W/m² 14,8 °C 18,7 °C 0,0 km/h (0 Bft)
08.08.2018 01:50 18,7 °C 78 % 1009,5 hPa 0,0 mm 0,0 km/h (0 Bft) S 186 ° 0 min 0,000 mm 0,0 UV-I 0 W/m² 14,8 °C 18,7 °C 0,0 km/h (0 Bft)
08.08.2018 01:51 18,8 °C 78 % 1009,4 hPa 0,0 mm 0,0 km/h (0 Bft) S 186 ° 0 min 0,000 mm 0,0 UV-I 0 W/m² 14,9 °C 18,8 °C 0,0 km/h (0 Bft)
08.08.2018 01:52 18,7 °C 78 % 1009,5 hPa 0,0 mm 0,0 km/h (0 Bft) S 186 ° 0 min 0,000 mm 0,0 UV-I 0 W/m² 14,8 °C 18,7 °C 0,0 km/h (0 Bft)
08.08.2018 01:53 18,7 °C 78 % 1009,5 hPa 0,0 mm 0,0 km/h (0 Bft) S 186 ° 0 min 0,000 mm 0,0 UV-I 0 W/m² 14,8 °C 18,7 °C 0,0 km/h (0 Bft)
08.08.2018 01:54 18,7 °C 78 % 1009,4 hPa 0,0 mm 0,0 km/h (0 Bft) S 186 ° 0 min 0,000 mm 0,0 UV-I 0 W/m² 14,8 °C 18,7 °C 0,0 km/h (0 Bft)
08.08.2018 01:55 18,7 °C 79 % 1009,4 hPa 0,0 mm 0,0 km/h (0 Bft) S 186 ° 0 min 0,000 mm 0,0 UV-I 0 W/m² 15,0 °C 18,7 °C 0,0 km/h (0 Bft)
08.08.2018 01:56 18,6 °C 80 % 1009,5 hPa 0,0 mm 0,0 km/h (0 Bft) S 186 ° 0 min 0,000 mm 0,0 UV-I 0 W/m² 15,1 °C 18,6 °C 0,0 km/h (0 Bft)
08.08.2018 01:57 18,6 °C 80 % 1009,4 hPa 0,0 mm 0,0 km/h (0 Bft) S 186 ° 0 min 0,000 mm 0,0 UV-I 0 W/m² 15,1 °C 18,6 °C 0,0 km/h (0 Bft)
08.08.2018 01:58 18,5 °C 80 % 1009,4 hPa 0,0 mm 0,0 km/h (0 Bft) S 186 ° 0 min 0,000 mm 0,0 UV-I 0 W/m² 15,0 °C 18,5 °C 0,0 km/h (0 Bft)
08.08.2018 01:59 18,4 °C 80 % 1009,4 hPa 0,0 mm 0,0 km/h (0 Bft) S 186 ° 0 min 0,000 mm 0,0 UV-I 0 W/m² 14,9 °C 18,4 °C 0,0 km/h (0 Bft)
08.08.2018 02:00 18,4 °C 79 % 1009,4 hPa 0,0 mm 0,0 km/h (0 Bft) S 186 ° 0 min 0,000 mm 0,0 UV-I 0 W/m² 14,7 °C 18,4 °C 0,0 km/h (0 Bft)
08.08.2018 02:01 18,4 °C 79 % 1009,3 hPa 0,0 mm 0,0 km/h (0 Bft) S 186 ° 0 min 0,026 mm 0,0 UV-I 0 W/m² 14,7 °C 18,4 °C 0,0 km/h (0 Bft)
08.08.2018 02:02 18,4 °C 79 % 1009,3 hPa 0,0 mm 0,0 km/h (0 Bft) S 186 ° 0 min 0,000 mm 0,0 UV-I 0 W/m² 14,7 °C 18,4 °C 0,0 km/h (0 Bft)
08.08.2018 02:03 18,4 °C 80 % 1009,3 hPa 0,0 mm 0,0 km/h (0 Bft) S 186 ° 0 min 0,000 mm 0,0 UV-I 0 W/m² 14,9 °C 18,4 °C 0,0 km/h (0 Bft)
08.08.2018 02:04 18,4 °C 80 % 1009,2 hPa 0,0 mm 0,0 km/h (0 Bft) S 186 ° 0 min 0,000 mm 0,0 UV-I 0 W/m² 14,9 °C 18,4 °C 0,0 km/h (0 Bft)
08.08.2018 02:05 18,4 °C 81 % 1009,3 hPa 0,0 mm 0,0 km/h (0 Bft) S 186 ° 0 min 0,000 mm 0,0 UV-I 0 W/m² 15,1 °C 18,4 °C 0,0 km/h (0 Bft)
08.08.2018 02:06 18,3 °C 81 % 1009,2 hPa 0,0 mm 0,0 km/h (0 Bft) S 186 ° 0 min 0,000 mm 0,0 UV-I 0 W/m² 15,0 °C 18,3 °C 0,0 km/h (0 Bft)
08.08.2018 02:07 18,3 °C 81 % 1009,2 hPa 0,0 mm 0,0 km/h (0 Bft) S 186 ° 0 min 0,000 mm 0,0 UV-I 0 W/m² 15,0 °C 18,3 °C 0,0 km/h (0 Bft)
08.08.2018 02:08 18,3 °C 81 % 1009,2 hPa 0,0 mm 0,0 km/h (0 Bft) S 186 ° 0 min 0,000 mm 0,0 UV-I 0 W/m² 15,0 °C 18,3 °C 0,0 km/h (0 Bft)
08.08.2018 02:09 18,3 °C 80 % 1009,1 hPa 0,0 mm 0,0 km/h (0 Bft) S 186 ° 0 min 0,000 mm 0,0 UV-I 0 W/m² 14,8 °C 18,3 °C 0,0 km/h (0 Bft)
08.08.2018 02:10 18,3 °C 80 % 1009,1 hPa 0,0 mm 0,0 km/h (0 Bft) S 186 ° 0 min 0,000 mm 0,0 UV-I 0 W/m² 14,8 °C 18,3 °C 0,0 km/h (0 Bft)
08.08.2018 02:11 18,3 °C 79 % 1009,2 hPa 0,0 mm 0,0 km/h (0 Bft) S 186 ° 0 min 0,000 mm 0,0 UV-I 0 W/m² 14,6 °C 18,3 °C 0,0 km/h (0 Bft)
08.08.2018 02:12 18,4 °C 79 % 1009,1 hPa 0,0 mm 0,0 km/h (0 Bft) S 186 ° 0 min 0,000 mm 0,0 UV-I 0 W/m² 14,7 °C 18,4 °C 0,0 km/h (0 Bft)
08.08.2018 02:13 18,4 °C 78 % 1009,2 hPa 0,0 mm 0,0 km/h (0 Bft) S 186 ° 0 min 0,000 mm 0,0 UV-I 0 W/m² 14,5 °C 18,4 °C 0,0 km/h (0 Bft)
08.08.2018 02:14 18,4 °C 78 % 1009,2 hPa 0,0 mm 0,0 km/h (0 Bft) S 186 ° 0 min 0,000 mm 0,0 UV-I 0 W/m² 14,5 °C 18,4 °C 0,0 km/h (0 Bft)
08.08.2018 02:15 18,4 °C 78 % 1009,2 hPa 0,0 mm 0,0 km/h (0 Bft) S 186 ° 0 min 0,000 mm 0,0 UV-I 0 W/m² 14,5 °C 18,4 °C 0,0 km/h (0 Bft)
08.08.2018 02:16 18,5 °C 78 % 1009,2 hPa 0,0 mm 0,0 km/h (0 Bft) S 186 ° 0 min 0,000 mm 0,0 UV-I 0 W/m² 14,6 °C 18,5 °C 0,0 km/h (0 Bft)
08.08.2018 02:17 18,6 °C 78 % 1009,2 hPa 0,0 mm 0,0 km/h (0 Bft) S 186 ° 0 min 0,000 mm 0,0 UV-I 0 W/m² 14,7 °C 18,6 °C 0,0 km/h (0 Bft)
08.08.2018 02:18 18,6 °C 77 % 1009,1 hPa 0,0 mm 0,0 km/h (0 Bft) S 186 ° 0 min 0,000 mm 0,0 UV-I 0 W/m² 14,5 °C 18,6 °C 0,0 km/h (0 Bft)
08.08.2018 02:19 18,6 °C 78 % 1009,1 hPa 0,0 mm 0,1 km/h (0 Bft) S 186 ° 0 min 0,000 mm 0,0 UV-I 0 W/m² 14,7 °C 18,6 °C 1,6 km/h (1 Bft)
08.08.2018 02:20 18,6 °C 78 % 1009,1 hPa 0,0 mm 0,6 km/h (0 Bft) S 186 ° 0 min 0,000 mm 0,0 UV-I 0 W/m² 14,7 °C 18,6 °C 1,6 km/h (1 Bft)
08.08.2018 02:21 18,6 °C 78 % 1009,1 hPa 0,0 mm 0,0 km/h (0 Bft) S 186 ° 0 min 0,000 mm 0,0 UV-I 0 W/m² 14,7 °C 18,6 °C 0,0 km/h (0 Bft)
08.08.2018 02:22 18,5 °C 79 % 1009,1 hPa 0,0 mm 0,0 km/h (0 Bft) S 186 ° 0 min 0,000 mm 0,0 UV-I 0 W/m² 14,8 °C 18,5 °C 0,0 km/h (0 Bft)
08.08.2018 02:23 18,5 °C 78 % 1009,1 hPa 0,0 mm 0,0 km/h (0 Bft) S 186 ° 0 min 0,000 mm 0,0 UV-I 0 W/m² 14,6 °C 18,5 °C 0,0 km/h (0 Bft)
08.08.2018 02:24 18,4 °C 78 % 1009,1 hPa 0,0 mm 0,5 km/h (0 Bft) S 186 ° 0 min 0,000 mm 0,0 UV-I 0 W/m² 14,5 °C 18,4 °C 1,6 km/h (1 Bft)
08.08.2018 02:25 18,4 °C 78 % 1009,1 hPa 0,0 mm 0,1 km/h (0 Bft) S 186 ° 0 min 0,000 mm 0,0 UV-I 0 W/m² 14,5 °C 18,4 °C 1,6 km/h (1 Bft)
08.08.2018 02:26 18,4 °C 79 % 1009,1 hPa 0,0 mm 0,0 km/h (0 Bft) S 186 ° 0 min 0,000 mm 0,0 UV-I 0 W/m² 14,7 °C 18,4 °C 0,0 km/h (0 Bft)
08.08.2018 02:27 18,3 °C 79 % 1009,0 hPa 0,0 mm 0,0 km/h (0 Bft) S 186 ° 0 min 0,000 mm 0,0 UV-I 0 W/m² 14,6 °C 18,3 °C 0,0 km/h (0 Bft)
08.08.2018 02:28 18,3 °C 79 % 1009,0 hPa 0,0 mm 0,0 km/h (0 Bft) S 186 ° 0 min 0,000 mm 0,0 UV-I 0 W/m² 14,6 °C 18,3 °C 0,0 km/h (0 Bft)
08.08.2018 02:29 18,3 °C 79 % 1009,0 hPa 0,0 mm 0,0 km/h (0 Bft) S 186 ° 0 min 0,000 mm 0,0 UV-I 0 W/m² 14,6 °C 18,3 °C 0,0 km/h (0 Bft)
08.08.2018 02:30 18,3 °C 79 % 1009,0 hPa 0,0 mm 0,0 km/h (0 Bft) S 186 ° 0 min 0,000 mm 0,0 UV-I 0 W/m² 14,6 °C 18,3 °C 0,0 km/h (0 Bft)
08.08.2018 02:31 18,2 °C 79 % 1009,0 hPa 0,0 mm 0,0 km/h (0 Bft) S 186 ° 0 min 0,000 mm 0,0 UV-I 0 W/m² 14,5 °C 18,2 °C 0,0 km/h (0 Bft)
08.08.2018 02:32 18,2 °C 80 % 1009,0 hPa 0,0 mm 0,0 km/h (0 Bft) S 186 ° 0 min 0,000 mm 0,0 UV-I 0 W/m² 14,7 °C 18,2 °C 0,0 km/h (0 Bft)
08.08.2018 02:33 18,1 °C 80 % 1009,0 hPa 0,0 mm 0,0 km/h (0 Bft) S 186 ° 0 min 0,000 mm 0,0 UV-I 0 W/m² 14,6 °C 18,1 °C 0,0 km/h (0 Bft)
08.08.2018 02:34 18,1 °C 80 % 1009,0 hPa 0,0 mm 0,0 km/h (0 Bft) S 186 ° 0 min 0,000 mm 0,0 UV-I 0 W/m² 14,6 °C 18,1 °C 0,0 km/h (0 Bft)
08.08.2018 02:35 18,0 °C 80 % 1009,0 hPa 0,0 mm 0,0 km/h (0 Bft) S 186 ° 0 min 0,000 mm 0,0 UV-I 0 W/m² 14,5 °C 18,0 °C 0,0 km/h (0 Bft)
08.08.2018 02:36 17,9 °C 80 % 1009,0 hPa 0,0 mm 0,0 km/h (0 Bft) S 186 ° 0 min 0,000 mm 0,0 UV-I 0 W/m² 14,4 °C 17,9 °C 0,0 km/h (0 Bft)
08.08.2018 02:37 17,9 °C 80 % 1009,0 hPa 0,0 mm 0,0 km/h (0 Bft) S 186 ° 0 min 0,000 mm 0,0 UV-I 0 W/m² 14,4 °C 17,9 °C 0,0 km/h (0 Bft)
08.08.2018 02:38 17,9 °C 80 % 1009,0 hPa 0,0 mm 0,0 km/h (0 Bft) S 186 ° 0 min 0,000 mm 0,0 UV-I 0 W/m² 14,4 °C 17,9 °C 0,0 km/h (0 Bft)
08.08.2018 02:39 17,9 °C 80 % 1009,0 hPa 0,0 mm 0,0 km/h (0 Bft) S 186 ° 0 min 0,000 mm 0,0 UV-I 0 W/m² 14,4 °C 17,9 °C 0,0 km/h (0 Bft)
08.08.2018 02:40 17,9 °C 81 % 1009,0 hPa 0,0 mm 0,0 km/h (0 Bft) S 186 ° 0 min 0,000 mm 0,0 UV-I 0 W/m² 14,6 °C 17,9 °C 0,0 km/h (0 Bft)
08.08.2018 02:41 17,8 °C 81 % 1009,0 hPa 0,0 mm 0,0 km/h (0 Bft) S 186 ° 0 min 0,000 mm 0,0 UV-I 0 W/m² 14,5 °C 17,8 °C 0,0 km/h (0 Bft)
08.08.2018 02:42 17,8 °C 81 % 1009,0 hPa 0,0 mm 0,0 km/h (0 Bft) S 186 ° 0 min 0,000 mm 0,0 UV-I 0 W/m² 14,5 °C 17,8 °C 0,0 km/h (0 Bft)
08.08.2018 02:43 17,9 °C 81 % 1009,0 hPa 0,0 mm 0,0 km/h (0 Bft) S 186 ° 0 min 0,000 mm 0,0 UV-I 0 W/m² 14,6 °C 17,9 °C 0,0 km/h (0 Bft)
08.08.2018 02:44 17,9 °C 80 % 1009,0 hPa 0,0 mm 0,0 km/h (0 Bft) S 186 ° 0 min 0,000 mm 0,0 UV-I 0 W/m² 14,4 °C 17,9 °C 0,0 km/h (0 Bft)
08.08.2018 02:45 17,9 °C 80 % 1009,1 hPa 0,0 mm 0,0 km/h (0 Bft) S 186 ° 0 min 0,000 mm 0,0 UV-I 0 W/m² 14,4 °C 17,9 °C 0,0 km/h (0 Bft)
08.08.2018 02:46 17,8 °C 80 % 1009,1 hPa 0,0 mm 0,0 km/h (0 Bft) S 186 ° 0 min 0,000 mm 0,0 UV-I 0 W/m² 14,3 °C 17,8 °C 0,0 km/h (0 Bft)
08.08.2018 02:47 17,9 °C 80 % 1009,1 hPa 0,0 mm 0,0 km/h (0 Bft) S 186 ° 0 min 0,000 mm 0,0 UV-I 0 W/m² 14,4 °C 17,9 °C 0,0 km/h (0 Bft)
08.08.2018 02:48 17,9 °C 80 % 1009,1 hPa 0,0 mm 0,0 km/h (0 Bft) S 186 ° 0 min 0,000 mm 0,0 UV-I 0 W/m² 14,4 °C 17,9 °C 0,0 km/h (0 Bft)
08.08.2018 02:49 17,9 °C 80 % 1009,0 hPa 0,0 mm 0,0 km/h (0 Bft) S 186 ° 0 min 0,000 mm 0,0 UV-I 0 W/m² 14,4 °C 17,9 °C 0,0 km/h (0 Bft)
08.08.2018 02:50 17,9 °C 80 % 1009,0 hPa 0,0 mm 0,0 km/h (0 Bft) S 186 ° 0 min 0,000 mm 0,0 UV-I 0 W/m² 14,4 °C 17,9 °C 0,0 km/h (0 Bft)
08.08.2018 02:51 17,9 °C 80 % 1009,0 hPa 0,0 mm 0,0 km/h (0 Bft) S 186 ° 0 min 0,000 mm 0,0 UV-I 0 W/m² 14,4 °C 17,9 °C 0,0 km/h (0 Bft)
08.08.2018 02:52 17,8 °C 80 % 1009,0 hPa 0,0 mm 0,0 km/h (0 Bft) S 186 ° 0 min 0,000 mm 0,0 UV-I 0 W/m² 14,3 °C 17,8 °C 0,0 km/h (0 Bft)
08.08.2018 02:53 17,8 °C 81 % 1009,0 hPa 0,0 mm 0,0 km/h (0 Bft) S 186 ° 0 min 0,000 mm 0,0 UV-I 0 W/m² 14,5 °C 17,8 °C 0,0 km/h (0 Bft)
08.08.2018 02:54 17,7 °C 81 % 1009,0 hPa 0,0 mm 0,0 km/h (0 Bft) S 186 ° 0 min 0,000 mm 0,0 UV-I 0 W/m² 14,4 °C 17,7 °C 0,0 km/h (0 Bft)
08.08.2018 02:55 17,7 °C 81 % 1009,1 hPa 0,0 mm 0,0 km/h (0 Bft) S 186 ° 0 min 0,000 mm 0,0 UV-I 0 W/m² 14,4 °C 17,7 °C 0,0 km/h (0 Bft)
08.08.2018 02:56 17,6 °C 81 % 1009,1 hPa 0,0 mm 0,0 km/h (0 Bft) S 186 ° 0 min 0,000 mm 0,0 UV-I 0 W/m² 14,3 °C 17,6 °C 0,0 km/h (0 Bft)
08.08.2018 02:57 17,5 °C 81 % 1009,0 hPa 0,0 mm 0,0 km/h (0 Bft) S 186 ° 0 min 0,000 mm 0,0 UV-I 0 W/m² 14,2 °C 17,5 °C 0,0 km/h (0 Bft)
08.08.2018 02:58 17,4 °C 82 % 1009,0 hPa 0,0 mm 0,0 km/h (0 Bft) S 186 ° 0 min 0,000 mm 0,0 UV-I 0 W/m² 14,3 °C 17,4 °C 0,0 km/h (0 Bft)
08.08.2018 02:59 17,4 °C 82 % 1009,0 hPa 0,0 mm 0,0 km/h (0 Bft) S 186 ° 0 min 0,000 mm 0,0 UV-I 0 W/m² 14,3 °C 17,4 °C 0,0 km/h (0 Bft)
08.08.2018 03:00 17,3 °C 82 % 1009,0 hPa 0,0 mm 0,0 km/h (0 Bft) S 186 ° 0 min 0,025 mm 0,0 UV-I 0 W/m² 14,2 °C 17,3 °C 0,0 km/h (0 Bft)
08.08.2018 03:01 17,3 °C 82 % 1009,0 hPa 0,0 mm 0,0 km/h (0 Bft) S 186 ° 0 min 0,000 mm 0,0 UV-I 0 W/m² 14,2 °C 17,3 °C 0,0 km/h (0 Bft)
08.08.2018 03:02 17,2 °C 82 % 1009,0 hPa 0,0 mm 0,0 km/h (0 Bft) S 186 ° 0 min 0,000 mm 0,0 UV-I 0 W/m² 14,1 °C 17,2 °C 0,0 km/h (0 Bft)
08.08.2018 03:03 17,2 °C 82 % 1009,1 hPa 0,0 mm 0,0 km/h (0 Bft) S 186 ° 0 min 0,000 mm 0,0 UV-I 0 W/m² 14,1 °C 17,2 °C 0,0 km/h (0 Bft)
08.08.2018 03:04 17,2 °C 83 % 1009,0 hPa 0,0 mm 0,0 km/h (0 Bft) S 186 ° 0 min 0,000 mm 0,0 UV-I 0 W/m² 14,3 °C 17,2 °C 0,0 km/h (0 Bft)
08.08.2018 03:05 17,1 °C 83 % 1009,1 hPa 0,0 mm 0,0 km/h (0 Bft) S 186 ° 0 min 0,000 mm 0,0 UV-I 0 W/m² 14,2 °C 17,1 °C 0,0 km/h (0 Bft)
08.08.2018 03:06 17,1 °C 83 % 1009,0 hPa 0,0 mm 0,0 km/h (0 Bft) S 186 ° 0 min 0,000 mm 0,0 UV-I 0 W/m² 14,2 °C 17,1 °C 0,0 km/h (0 Bft)
08.08.2018 03:07 17,2 °C 82 % 1009,0 hPa 0,0 mm 0,0 km/h (0 Bft) S 186 ° 0 min 0,000 mm 0,0 UV-I 0 W/m² 14,1 °C 17,2 °C 0,0 km/h (0 Bft)
08.08.2018 03:08 17,3 °C 82 % 1009,0 hPa 0,0 mm 0,0 km/h (0 Bft) S 186 ° 0 min 0,000 mm 0,0 UV-I 0 W/m² 14,2 °C 17,3 °C 0,0 km/h (0 Bft)
08.08.2018 03:09 17,4 °C 81 % 1009,0 hPa 0,0 mm 0,0 km/h (0 Bft) S 186 ° 0 min 0,000 mm 0,0 UV-I 0 W/m² 14,1 °C 17,4 °C 0,0 km/h (0 Bft)
08.08.2018 03:10 17,5 °C 81 % 1009,1 hPa 0,0 mm 0,0 km/h (0 Bft) S 186 ° 0 min 0,000 mm 0,0 UV-I 0 W/m² 14,2 °C 17,5 °C 0,0 km/h (0 Bft)
08.08.2018 03:11 17,5 °C 81 % 1009,0 hPa 0,0 mm 0,0 km/h (0 Bft) S 186 ° 0 min 0,000 mm 0,0 UV-I 0 W/m² 14,2 °C 17,5 °C 0,0 km/h (0 Bft)
08.08.2018 03:12 17,5 °C 81 % 1009,0 hPa 0,0 mm 0,0 km/h (0 Bft) S 186 ° 0 min 0,000 mm 0,0 UV-I 0 W/m² 14,2 °C 17,5 °C 0,0 km/h (0 Bft)
08.08.2018 03:13 17,5 °C 80 % 1009,0 hPa 0,0 mm 0,0 km/h (0 Bft) S 186 ° 0 min 0,000 mm 0,0 UV-I 0 W/m² 14,0 °C 17,5 °C 0,0 km/h (0 Bft)
08.08.2018 03:14 17,4 °C 80 % 1009,0 hPa 0,0 mm 0,0 km/h (0 Bft) S 186 ° 0 min 0,000 mm 0,0 UV-I 0 W/m² 13,9 °C 17,4 °C 0,0 km/h (0 Bft)
08.08.2018 03:15 17,3 °C 81 % 1009,0 hPa 0,0 mm 0,0 km/h (0 Bft) S 186 ° 0 min 0,000 mm 0,0 UV-I 0 W/m² 14,0 °C 17,3 °C 0,0 km/h (0 Bft)
08.08.2018 03:16 17,3 °C 81 % 1009,0 hPa 0,0 mm 0,0 km/h (0 Bft) S 186 ° 0 min 0,000 mm 0,0 UV-I 0 W/m² 14,0 °C 17,3 °C 0,0 km/h (0 Bft)
08.08.2018 03:17 17,2 °C 82 % 1009,0 hPa 0,0 mm 0,0 km/h (0 Bft) S 186 ° 0 min 0,000 mm 0,0 UV-I 0 W/m² 14,1 °C 17,2 °C 0,0 km/h (0 Bft)
08.08.2018 03:18 17,2 °C 82 % 1009,0 hPa 0,0 mm 0,0 km/h (0 Bft) S 186 ° 0 min 0,000 mm 0,0 UV-I 0 W/m² 14,1 °C 17,2 °C 0,0 km/h (0 Bft)
08.08.2018 03:19 17,1 °C 82 % 1009,0 hPa 0,0 mm 0,0 km/h (0 Bft) S 186 ° 0 min 0,000 mm 0,0 UV-I 0 W/m² 14,0 °C 17,1 °C 0,0 km/h (0 Bft)
08.08.2018 03:20 17,1 °C 83 % 1009,0 hPa 0,0 mm 0,0 km/h (0 Bft) S 186 ° 0 min 0,000 mm 0,0 UV-I 0 W/m² 14,2 °C 17,1 °C 0,0 km/h (0 Bft)
08.08.2018 03:21 17,1 °C 83 % 1009,0 hPa 0,0 mm 0,0 km/h (0 Bft) S 186 ° 0 min 0,000 mm 0,0 UV-I 0 W/m² 14,2 °C 17,1 °C 0,0 km/h (0 Bft)
08.08.2018 03:22 17,0 °C 83 % 1009,0 hPa 0,0 mm 0,0 km/h (0 Bft) S 186 ° 0 min 0,000 mm 0,0 UV-I 0 W/m² 14,1 °C 17,0 °C 0,0 km/h (0 Bft)
08.08.2018 03:23 16,9 °C 83 % 1008,9 hPa 0,0 mm 0,0 km/h (0 Bft) S 186 ° 0 min 0,000 mm 0,0 UV-I 0 W/m² 14,0 °C 16,9 °C 0,0 km/h (0 Bft)
08.08.2018 03:24 16,9 °C 83 % 1008,9 hPa 0,0 mm 0,0 km/h (0 Bft) S 186 ° 0 min 0,000 mm 0,0 UV-I 0 W/m² 14,0 °C 16,9 °C 0,0 km/h (0 Bft)
08.08.2018 03:25 16,9 °C 83 % 1008,9 hPa 0,0 mm 0,0 km/h (0 Bft) S 186 ° 0 min 0,000 mm 0,0 UV-I 0 W/m² 14,0 °C 16,9 °C 0,0 km/h (0 Bft)
08.08.2018 03:26 16,8 °C 83 % 1008,9 hPa 0,0 mm 0,0 km/h (0 Bft) S 186 ° 0 min 0,000 mm 0,0 UV-I 0 W/m² 13,9 °C 16,8 °C 0,0 km/h (0 Bft)
08.08.2018 03:27 16,8 °C 83 % 1008,9 hPa 0,0 mm 0,0 km/h (0 Bft) S 186 ° 0 min 0,000 mm 0,0 UV-I 0 W/m² 13,9 °C 16,8 °C 0,0 km/h (0 Bft)
08.08.2018 03:28 16,7 °C 84 % 1008,9 hPa 0,0 mm 0,0 km/h (0 Bft) S 186 ° 0 min 0,000 mm 0,0 UV-I 0 W/m² 14,0 °C 16,7 °C 0,0 km/h (0 Bft)
08.08.2018 03:29 16,7 °C 84 % 1008,9 hPa 0,0 mm 0,0 km/h (0 Bft) S 186 ° 0 min 0,000 mm 0,0 UV-I 0 W/m² 14,0 °C 16,7 °C 0,0 km/h (0 Bft)
08.08.2018 03:30 16,7 °C 84 % 1008,9 hPa 0,0 mm 0,0 km/h (0 Bft) S 186 ° 0 min 0,000 mm 0,0 UV-I 0 W/m² 14,0 °C 16,7 °C 0,0 km/h (0 Bft)
08.08.2018 03:31 16,7 °C 84 % 1008,9 hPa 0,0 mm 0,0 km/h (0 Bft) S 186 ° 0 min 0,000 mm 0,0 UV-I 0 W/m² 14,0 °C 16,7 °C 0,0 km/h (0 Bft)
08.08.2018 03:32 16,8 °C 84 % 1008,9 hPa 0,0 mm 0,0 km/h (0 Bft) S 186 ° 0 min 0,000 mm 0,0 UV-I 0 W/m² 14,1 °C 16,8 °C 0,0 km/h (0 Bft)
08.08.2018 03:33 16,8 °C 83 % 1009,0 hPa 0,0 mm 0,0 km/h (0 Bft) S 186 ° 0 min 0,000 mm 0,0 UV-I 0 W/m² 13,9 °C 16,8 °C 0,0 km/h (0 Bft)
08.08.2018 03:34 16,8 °C 83 % 1008,9 hPa 0,0 mm 0,0 km/h (0 Bft) S 186 ° 0 min 0,000 mm 0,0 UV-I 0 W/m² 13,9 °C 16,8 °C 0,0 km/h (0 Bft)
08.08.2018 03:35 16,8 °C 83 % 1008,9 hPa 0,0 mm 0,0 km/h (0 Bft) S 186 ° 0 min 0,000 mm 0,0 UV-I 0 W/m² 13,9 °C 16,8 °C 0,0 km/h (0 Bft)
08.08.2018 03:36 16,8 °C 83 % 1008,9 hPa 0,0 mm 0,0 km/h (0 Bft) S 186 ° 0 min 0,000 mm 0,0 UV-I 0 W/m² 13,9 °C 16,8 °C 0,0 km/h (0 Bft)
08.08.2018 03:37 16,8 °C 83 % 1008,9 hPa 0,0 mm 0,0 km/h (0 Bft) S 186 ° 0 min 0,000 mm 0,0 UV-I 0 W/m² 13,9 °C 16,8 °C 0,0 km/h (0 Bft)
08.08.2018 03:38 16,7 °C 83 % 1008,9 hPa 0,0 mm 0,0 km/h (0 Bft) S 186 ° 0 min 0,000 mm 0,0 UV-I 0 W/m² 13,8 °C 16,7 °C 0,0 km/h (0 Bft)
08.08.2018 03:39 16,6 °C 84 % 1008,9 hPa 0,0 mm 0,0 km/h (0 Bft) S 186 ° 0 min 0,000 mm 0,0 UV-I 0 W/m² 13,9 °C 16,6 °C 0,0 km/h (0 Bft)
08.08.2018 03:40 16,6 °C 84 % 1008,9 hPa 0,0 mm 0,0 km/h (0 Bft) S 186 ° 0 min 0,000 mm 0,0 UV-I 0 W/m² 13,9 °C 16,6 °C 0,0 km/h (0 Bft)
08.08.2018 03:41 16,6 °C 84 % 1008,9 hPa 0,0 mm 0,0 km/h (0 Bft) S 186 ° 0 min 0,000 mm 0,0 UV-I 0 W/m² 13,9 °C 16,6 °C 0,0 km/h (0 Bft)
08.08.2018 03:42 16,6 °C 84 % 1008,9 hPa 0,0 mm 0,0 km/h (0 Bft) S 186 ° 0 min 0,000 mm 0,0 UV-I 0 W/m² 13,9 °C 16,6 °C 0,0 km/h (0 Bft)
08.08.2018 03:43 16,5 °C 84 % 1008,9 hPa 0,0 mm 0,0 km/h (0 Bft) S 186 ° 0 min 0,000 mm 0,0 UV-I 0 W/m² 13,8 °C 16,5 °C 0,0 km/h (0 Bft)
08.08.2018 03:44 16,5 °C 84 % 1008,9 hPa 0,0 mm 0,0 km/h (0 Bft) S 186 ° 0 min 0,000 mm 0,0 UV-I 0 W/m² 13,8 °C 16,5 °C 0,0 km/h (0 Bft)
08.08.2018 03:45 16,4 °C 85 % 1008,9 hPa 0,0 mm 0,0 km/h (0 Bft) S 186 ° 0 min 0,000 mm 0,0 UV-I 0 W/m² 13,9 °C 16,4 °C 0,0 km/h (0 Bft)
08.08.2018 03:46 16,4 °C 85 % 1008,8 hPa 0,0 mm 0,0 km/h (0 Bft) S 186 ° 0 min 0,000 mm 0,0 UV-I 0 W/m² 13,9 °C 16,4 °C 0,0 km/h (0 Bft)
08.08.2018 03:47 16,4 °C 85 % 1008,9 hPa 0,0 mm 0,0 km/h (0 Bft) S 186 ° 0 min 0,000 mm 0,0 UV-I 0 W/m² 13,9 °C 16,4 °C 0,0 km/h (0 Bft)
08.08.2018 03:48 16,3 °C 85 % 1008,9 hPa 0,0 mm 0,0 km/h (0 Bft) S 186 ° 0 min 0,000 mm 0,0 UV-I 0 W/m² 13,8 °C 16,3 °C 0,0 km/h (0 Bft)
08.08.2018 03:49 16,3 °C 85 % 1008,9 hPa 0,0 mm 0,0 km/h (0 Bft) S 186 ° 0 min 0,000 mm 0,0 UV-I 0 W/m² 13,8 °C 16,3 °C 0,0 km/h (0 Bft)
08.08.2018 03:50 16,3 °C 85 % 1008,9 hPa 0,0 mm 0,0 km/h (0 Bft) S 186 ° 0 min 0,000 mm 0,0 UV-I 0 W/m² 13,8 °C 16,3 °C 0,0 km/h (0 Bft)
08.08.2018 03:51 16,3 °C 85 % 1008,9 hPa 0,0 mm 0,0 km/h (0 Bft) S 186 ° 0 min 0,000 mm 0,0 UV-I 0 W/m² 13,8 °C 16,3 °C 0,0 km/h (0 Bft)
08.08.2018 03:52 16,3 °C 85 % 1008,9 hPa 0,0 mm 0,0 km/h (0 Bft) S 186 ° 0 min 0,000 mm 0,0 UV-I 0 W/m² 13,8 °C 16,3 °C 0,0 km/h (0 Bft)
08.08.2018 03:53 16,3 °C 85 % 1008,9 hPa 0,0 mm 0,0 km/h (0 Bft) S 186 ° 0 min 0,000 mm 0,0 UV-I 0 W/m² 13,8 °C 16,3 °C 0,0 km/h (0 Bft)
08.08.2018 03:54 16,3 °C 85 % 1008,9 hPa 0,0 mm 0,0 km/h (0 Bft) S 186 ° 0 min 0,000 mm 0,0 UV-I 0 W/m² 13,8 °C 16,3 °C 0,0 km/h (0 Bft)
08.08.2018 03:55 16,3 °C 85 % 1008,9 hPa 0,0 mm 0,0 km/h (0 Bft) S 186 ° 0 min 0,000 mm 0,0 UV-I 0 W/m² 13,8 °C 16,3 °C 0,0 km/h (0 Bft)
08.08.2018 03:56 16,2 °C 85 % 1008,9 hPa 0,0 mm 0,0 km/h (0 Bft) S 186 ° 0 min 0,000 mm 0,0 UV-I 0 W/m² 13,7 °C 16,2 °C 0,0 km/h (0 Bft)
08.08.2018 03:57 16,3 °C 86 % 1008,9 hPa 0,0 mm 0,0 km/h (0 Bft) S 186 ° 0 min 0,000 mm 0,0 UV-I 0 W/m² 14,0 °C 16,3 °C 0,0 km/h (0 Bft)
08.08.2018 03:58 16,3 °C 86 % 1008,9 hPa 0,0 mm 0,0 km/h (0 Bft) S 186 ° 0 min 0,000 mm 0,0 UV-I 0 W/m² 14,0 °C 16,3 °C 0,0 km/h (0 Bft)
08.08.2018 03:59 16,3 °C 86 % 1009,0 hPa 0,0 mm 0,0 km/h (0 Bft) S 186 ° 0 min 0,000 mm 0,0 UV-I 0 W/m² 14,0 °C 16,3 °C 0,0 km/h (0 Bft)
08.08.2018 04:00 16,3 °C 86 % 1009,0 hPa 0,0 mm 0,0 km/h (0 Bft) S 186 ° 0 min 0,026 mm 0,0 UV-I 0 W/m² 14,0 °C 16,3 °C 0,0 km/h (0 Bft)
08.08.2018 04:01 16,3 °C 86 % 1009,0 hPa 0,0 mm 0,0 km/h (0 Bft) S 186 ° 0 min 0,000 mm 0,0 UV-I 0 W/m² 14,0 °C 16,3 °C 0,0 km/h (0 Bft)
08.08.2018 04:02 16,3 °C 85 % 1009,0 hPa 0,0 mm 0,0 km/h (0 Bft) S 186 ° 0 min 0,000 mm 0,0 UV-I 0 W/m² 13,8 °C 16,3 °C 0,0 km/h (0 Bft)
08.08.2018 04:03 16,4 °C 85 % 1009,0 hPa 0,0 mm 0,0 km/h (0 Bft) S 186 ° 0 min 0,000 mm 0,0 UV-I 0 W/m² 13,9 °C 16,4 °C 0,0 km/h (0 Bft)
08.08.2018 04:04 16,6 °C 85 % 1009,0 hPa 0,0 mm 0,0 km/h (0 Bft) S 186 ° 0 min 0,000 mm 0,0 UV-I 0 W/m² 14,1 °C 16,6 °C 0,0 km/h (0 Bft)
08.08.2018 04:05 16,7 °C 84 % 1008,9 hPa 0,0 mm 0,0 km/h (0 Bft) S 186 ° 0 min 0,000 mm 0,0 UV-I 0 W/m² 14,0 °C 16,7 °C 0,0 km/h (0 Bft)
08.08.2018 04:06 16,8 °C 83 % 1008,9 hPa 0,0 mm 0,0 km/h (0 Bft) S 186 ° 0 min 0,000 mm 0,0 UV-I 0 W/m² 13,9 °C 16,8 °C 0,0 km/h (0 Bft)
08.08.2018 04:07 16,8 °C 83 % 1008,9 hPa 0,0 mm 0,0 km/h (0 Bft) S 186 ° 0 min 0,000 mm 0,0 UV-I 0 W/m² 13,9 °C 16,8 °C 0,0 km/h (0 Bft)
08.08.2018 04:08 16,9 °C 83 % 1008,9 hPa 0,0 mm 0,0 km/h (0 Bft) S 186 ° 0 min 0,000 mm 0,0 UV-I 0 W/m² 14,0 °C 16,9 °C 0,0 km/h (0 Bft)
08.08.2018 04:09 16,9 °C 83 % 1008,9 hPa 0,0 mm 0,0 km/h (0 Bft) S 186 ° 0 min 0,000 mm 0,0 UV-I 0 W/m² 14,0 °C 16,9 °C 0,0 km/h (0 Bft)
08.08.2018 04:10 16,9 °C 83 % 1008,9 hPa 0,0 mm 0,0 km/h (0 Bft) S 186 ° 0 min 0,000 mm 0,0 UV-I 0 W/m² 14,0 °C 16,9 °C 0,0 km/h (0 Bft)
08.08.2018 04:11 16,9 °C 83 % 1008,8 hPa 0,0 mm 0,0 km/h (0 Bft) S 186 ° 0 min 0,000 mm 0,0 UV-I 0 W/m² 14,0 °C 16,9 °C 0,0 km/h (0 Bft)
08.08.2018 04:12 16,9 °C 83 % 1008,8 hPa 0,0 mm 0,0 km/h (0 Bft) S 186 ° 0 min 0,000 mm 0,0 UV-I 0 W/m² 14,0 °C 16,9 °C 0,0 km/h (0 Bft)
08.08.2018 04:13 16,9 °C 83 % 1008,9 hPa 0,0 mm 0,0 km/h (0 Bft) S 186 ° 0 min 0,000 mm 0,0 UV-I 0 W/m² 14,0 °C 16,9 °C 0,0 km/h (0 Bft)
08.08.2018 04:14 16,8 °C 83 % 1008,9 hPa 0,0 mm 0,4 km/h (0 Bft) S 186 ° 0 min 0,000 mm 0,0 UV-I 0 W/m² 13,9 °C 16,8 °C 1,6 km/h (1 Bft)
08.08.2018 04:15 16,7 °C 84 % 1008,9 hPa 0,0 mm 0,4 km/h (0 Bft) S 186 ° 0 min 0,000 mm 0,0 UV-I 0 W/m² 14,0 °C 16,7 °C 1,6 km/h (1 Bft)
08.08.2018 04:16 16,6 °C 84 % 1008,9 hPa 0,0 mm 0,0 km/h (0 Bft) S 186 ° 0 min 0,000 mm 0,0 UV-I 0 W/m² 13,9 °C 16,6 °C 0,0 km/h (0 Bft)
08.08.2018 04:17 16,6 °C 84 % 1008,9 hPa 0,0 mm 0,0 km/h (0 Bft) S 186 ° 0 min 0,000 mm 0,0 UV-I 0 W/m² 13,9 °C 16,6 °C 0,0 km/h (0 Bft)
08.08.2018 04:18 16,6 °C 85 % 1008,9 hPa 0,0 mm 0,0 km/h (0 Bft) S 186 ° 0 min 0,000 mm 0,0 UV-I 0 W/m² 14,1 °C 16,6 °C 0,0 km/h (0 Bft)
08.08.2018 04:19 16,6 °C 85 % 1008,8 hPa 0,0 mm 0,0 km/h (0 Bft) S 186 ° 0 min 0,000 mm 0,0 UV-I 0 W/m² 14,1 °C 16,6 °C 0,0 km/h (0 Bft)
08.08.2018 04:20 16,5 °C 85 % 1008,8 hPa 0,0 mm 0,0 km/h (0 Bft) S 186 ° 0 min 0,000 mm 0,0 UV-I 0 W/m² 14,0 °C 16,5 °C 0,0 km/h (0 Bft)
08.08.2018 04:21 16,5 °C 85 % 1008,8 hPa 0,0 mm 0,0 km/h (0 Bft) S 186 ° 0 min 0,000 mm 0,0 UV-I 0 W/m² 14,0 °C 16,5 °C 0,0 km/h (0 Bft)
08.08.2018 04:22 16,5 °C 85 % 1008,8 hPa 0,0 mm 0,0 km/h (0 Bft) S 186 ° 0 min 0,000 mm 0,0 UV-I 0 W/m² 14,0 °C 16,5 °C 0,0 km/h (0 Bft)
08.08.2018 04:23 16,4 °C 85 % 1008,8 hPa 0,0 mm 0,0 km/h (0 Bft) S 186 ° 0 min 0,000 mm 0,0 UV-I 0 W/m² 13,9 °C 16,4 °C 0,0 km/h (0 Bft)
08.08.2018 04:24 16,4 °C 85 % 1008,8 hPa 0,0 mm 0,0 km/h (0 Bft) S 186 ° 0 min 0,000 mm 0,0 UV-I 0 W/m² 13,9 °C 16,4 °C 0,0 km/h (0 Bft)
08.08.2018 04:25 16,3 °C 85 % 1008,8 hPa 0,0 mm 0,0 km/h (0 Bft) S 186 ° 0 min 0,000 mm 0,0 UV-I 0 W/m² 13,8 °C 16,3 °C 0,0 km/h (0 Bft)
08.08.2018 04:26 16,3 °C 85 % 1008,9 hPa 0,0 mm 0,0 km/h (0 Bft) S 186 ° 0 min 0,000 mm 0,0 UV-I 0 W/m² 13,8 °C 16,3 °C 0,0 km/h (0 Bft)
08.08.2018 04:27 16,3 °C 86 % 1008,9 hPa 0,0 mm 0,0 km/h (0 Bft) S 186 ° 0 min 0,000 mm 0,0 UV-I 0 W/m² 14,0 °C 16,3 °C 0,0 km/h (0 Bft)
08.08.2018 04:28 16,3 °C 86 % 1008,9 hPa 0,0 mm 0,0 km/h (0 Bft) S 186 ° 0 min 0,000 mm 0,0 UV-I 0 W/m² 14,0 °C 16,3 °C 0,0 km/h (0 Bft)
08.08.2018 04:29 16,2 °C 86 % 1008,9 hPa 0,0 mm 0,0 km/h (0 Bft) S 186 ° 0 min 0,000 mm 0,0 UV-I 0 W/m² 13,9 °C 16,2 °C 0,0 km/h (0 Bft)
08.08.2018 04:30 16,2 °C 87 % 1008,8 hPa 0,0 mm 0,0 km/h (0 Bft) S 186 ° 0 min 0,000 mm 0,0 UV-I 0 W/m² 14,0 °C 16,2 °C 0,0 km/h (0 Bft)
08.08.2018 04:31 16,2 °C 87 % 1008,8 hPa 0,0 mm 0,0 km/h (0 Bft) S 186 ° 0 min 0,000 mm 0,0 UV-I 0 W/m² 14,0 °C 16,2 °C 0,0 km/h (0 Bft)
08.08.2018 04:32 16,2 °C 87 % 1008,8 hPa 0,0 mm 0,0 km/h (0 Bft) S 186 ° 0 min 0,000 mm 0,0 UV-I 0 W/m² 14,0 °C 16,2 °C 0,0 km/h (0 Bft)
08.08.2018 04:33 16,1 °C 87 % 1008,8 hPa 0,0 mm 0,0 km/h (0 Bft) S 186 ° 0 min 0,000 mm 0,0 UV-I 0 W/m² 13,9 °C 16,1 °C 0,0 km/h (0 Bft)
08.08.2018 04:34 16,1 °C 87 % 1008,9 hPa 0,0 mm 0,0 km/h (0 Bft) S 186 ° 0 min 0,000 mm 0,0 UV-I 0 W/m² 13,9 °C 16,1 °C 0,0 km/h (0 Bft)
08.08.2018 04:35 16,1 °C 87 % 1008,9 hPa 0,0 mm 0,0 km/h (0 Bft) S 186 ° 0 min 0,000 mm 0,0 UV-I 0 W/m² 13,9 °C 16,1 °C 0,0 km/h (0 Bft)
08.08.2018 04:36 16,1 °C 87 % 1008,9 hPa 0,0 mm 0,0 km/h (0 Bft) S 186 ° 0 min 0,000 mm 0,0 UV-I 0 W/m² 13,9 °C 16,1 °C 0,0 km/h (0 Bft)
08.08.2018 04:37 16,0 °C 87 % 1008,9 hPa 0,0 mm 0,0 km/h (0 Bft) S 186 ° 0 min 0,000 mm 0,0 UV-I 0 W/m² 13,8 °C 16,0 °C 0,0 km/h (0 Bft)
08.08.2018 04:38 16,0 °C 87 % 1008,9 hPa 0,0 mm 0,0 km/h (0 Bft) S 186 ° 0 min 0,000 mm 0,0 UV-I 0 W/m² 13,8 °C 16,0 °C 0,0 km/h (0 Bft)
08.08.2018 04:39 15,9 °C 87 % 1008,9 hPa 0,0 mm 0,0 km/h (0 Bft) S 186 ° 0 min 0,000 mm 0,0 UV-I 0 W/m² 13,7 °C 15,9 °C 0,0 km/h (0 Bft)
08.08.2018 04:40 15,9 °C 87 % 1009,0 hPa 0,0 mm 0,0 km/h (0 Bft) S 186 ° 0 min 0,000 mm 0,0 UV-I 0 W/m² 13,7 °C 15,9 °C 0,0 km/h (0 Bft)
08.08.2018 04:41 15,9 °C 87 % 1009,0 hPa 0,0 mm 0,0 km/h (0 Bft) S 186 ° 0 min 0,000 mm 0,0 UV-I 0 W/m² 13,7 °C 15,9 °C 0,0 km/h (0 Bft)
08.08.2018 04:42 15,9 °C 87 % 1008,9 hPa 0,0 mm 0,0 km/h (0 Bft) S 186 ° 0 min 0,000 mm 0,0 UV-I 0 W/m² 13,7 °C 15,9 °C 0,0 km/h (0 Bft)
08.08.2018 04:43 15,9 °C 88 % 1008,9 hPa 0,0 mm 0,0 km/h (0 Bft) S 186 ° 0 min 0,000 mm 0,0 UV-I 0 W/m² 13,9 °C 15,9 °C 0,0 km/h (0 Bft)
08.08.2018 04:44 15,9 °C 87 % 1008,9 hPa 0,0 mm 0,0 km/h (0 Bft) S 186 ° 0 min 0,000 mm 0,0 UV-I 0 W/m² 13,7 °C 15,9 °C 0,0 km/h (0 Bft)
08.08.2018 04:45 15,9 °C 87 % 1008,9 hPa 0,0 mm 0,0 km/h (0 Bft) S 186 ° 0 min 0,000 mm 0,0 UV-I 0 W/m² 13,7 °C 15,9 °C 0,0 km/h (0 Bft)
08.08.2018 04:46 15,8 °C 87 % 1008,9 hPa 0,0 mm 0,0 km/h (0 Bft) S 186 ° 0 min 0,000 mm 0,0 UV-I 0 W/m² 13,6 °C 15,8 °C 0,0 km/h (0 Bft)
08.08.2018 04:47 15,8 °C 87 % 1008,9 hPa 0,0 mm 0,0 km/h (0 Bft) S 186 ° 0 min 0,000 mm 0,0 UV-I 0 W/m² 13,6 °C 15,8 °C 0,0 km/h (0 Bft)
08.08.2018 04:48 15,8 °C 87 % 1008,9 hPa 0,0 mm 0,0 km/h (0 Bft) S 186 ° 0 min 0,000 mm 0,0 UV-I 0 W/m² 13,6 °C 15,8 °C 0,0 km/h (0 Bft)
08.08.2018 04:49 15,8 °C 87 % 1008,9 hPa 0,0 mm 0,0 km/h (0 Bft) S 186 ° 0 min 0,000 mm 0,0 UV-I 0 W/m² 13,6 °C 15,8 °C 0,0 km/h (0 Bft)
08.08.2018 04:50 15,9 °C 86 % 1009,0 hPa 0,0 mm 0,0 km/h (0 Bft) S 186 ° 0 min 0,000 mm 0,0 UV-I 0 W/m² 13,6 °C 15,9 °C 0,0 km/h (0 Bft)
08.08.2018 04:51 15,9 °C 86 % 1008,9 hPa 0,0 mm 0,0 km/h (0 Bft) S 186 ° 0 min 0,000 mm 0,0 UV-I 0 W/m² 13,6 °C 15,9 °C 0,0 km/h (0 Bft)
08.08.2018 04:52 15,9 °C 86 % 1009,0 hPa 0,0 mm 0,0 km/h (0 Bft) S 186 ° 0 min 0,000 mm 0,0 UV-I 0 W/m² 13,6 °C 15,9 °C 0,0 km/h (0 Bft)
08.08.2018 04:53 15,9 °C 86 % 1009,0 hPa 0,0 mm 0,0 km/h (0 Bft) S 186 ° 0 min 0,000 mm 0,0 UV-I 0 W/m² 13,6 °C 15,9 °C 0,0 km/h (0 Bft)
08.08.2018 04:54 16,0 °C 86 % 1009,0 hPa 0,0 mm 0,0 km/h (0 Bft) S 186 ° 0 min 0,000 mm 0,0 UV-I 0 W/m² 13,7 °C 16,0 °C 0,0 km/h (0 Bft)
08.08.2018 04:55 16,1 °C 85 % 1009,0 hPa 0,0 mm 0,0 km/h (0 Bft) S 186 ° 0 min 0,000 mm 0,0 UV-I 0 W/m² 13,6 °C 16,1 °C 0,0 km/h (0 Bft)
08.08.2018 04:56 16,1 °C 85 % 1009,0 hPa 0,0 mm 0,0 km/h (0 Bft) S 186 ° 0 min 0,000 mm 0,0 UV-I 0 W/m² 13,6 °C 16,1 °C 0,0 km/h (0 Bft)
08.08.2018 04:57 16,0 °C 85 % 1009,0 hPa 0,0 mm 0,0 km/h (0 Bft) S 186 ° 0 min 0,000 mm 0,0 UV-I 0 W/m² 13,5 °C 16,0 °C 0,0 km/h (0 Bft)
08.08.2018 04:58 16,0 °C 85 % 1009,0 hPa 0,0 mm 0,0 km/h (0 Bft) S 186 ° 0 min 0,000 mm 0,0 UV-I 0 W/m² 13,5 °C 16,0 °C 0,0 km/h (0 Bft)
08.08.2018 04:59 16,0 °C 85 % 1009,0 hPa 0,0 mm 0,0 km/h (0 Bft) S 186 ° 0 min 0,000 mm 0,0 UV-I 0 W/m² 13,5 °C 16,0 °C 0,0 km/h (0 Bft)
08.08.2018 05:00 15,9 °C 85 % 1009,0 hPa 0,0 mm 0,0 km/h (0 Bft) S 186 ° 0 min 0,000 mm 0,0 UV-I 0 W/m² 13,4 °C 15,9 °C 0,0 km/h (0 Bft)
08.08.2018 05:01 15,9 °C 85 % 1009,0 hPa 0,0 mm 0,0 km/h (0 Bft) S 186 ° 0 min 0,000 mm 0,0 UV-I 0 W/m² 13,4 °C 15,9 °C 0,0 km/h (0 Bft)
08.08.2018 05:02 15,9 °C 85 % 1009,0 hPa 0,0 mm 0,0 km/h (0 Bft) S 186 ° 0 min 0,000 mm 0,0 UV-I 0 W/m² 13,4 °C 15,9 °C 0,0 km/h (0 Bft)
08.08.2018 05:03 15,9 °C 85 % 1009,0 hPa 0,0 mm 0,0 km/h (0 Bft) S 186 ° 0 min 0,000 mm 0,0 UV-I 0 W/m² 13,4 °C 15,9 °C 0,0 km/h (0 Bft)
08.08.2018 05:04 15,8 °C 85 % 1009,1 hPa 0,0 mm 0,0 km/h (0 Bft) S 186 ° 0 min 0,000 mm 0,0 UV-I 0 W/m² 13,3 °C 15,8 °C 0,0 km/h (0 Bft)
08.08.2018 05:05 15,8 °C 85 % 1009,1 hPa 0,0 mm 0,0 km/h (0 Bft) S 186 ° 0 min 0,000 mm 0,0 UV-I 0 W/m² 13,3 °C 15,8 °C 0,0 km/h (0 Bft)
08.08.2018 05:06 15,9 °C 85 % 1009,1 hPa 0,0 mm 0,0 km/h (0 Bft) S 186 ° 0 min 0,000 mm 0,0 UV-I 0 W/m² 13,4 °C 15,9 °C 0,0 km/h (0 Bft)
08.08.2018 05:07 15,9 °C 85 % 1009,1 hPa 0,0 mm 0,0 km/h (0 Bft) S 186 ° 0 min 0,000 mm 0,0 UV-I 0 W/m² 13,4 °C 15,9 °C 0,0 km/h (0 Bft)
08.08.2018 05:08 15,9 °C 85 % 1009,1 hPa 0,0 mm 0,0 km/h (0 Bft) S 186 ° 0 min 0,000 mm 0,0 UV-I 0 W/m² 13,4 °C 15,9 °C 0,0 km/h (0 Bft)
08.08.2018 05:09 15,8 °C 85 % 1009,2 hPa 0,0 mm 0,0 km/h (0 Bft) S 186 ° 0 min 0,000 mm 0,0 UV-I 0 W/m² 13,3 °C 15,8 °C 0,0 km/h (0 Bft)
08.08.2018 05:10 15,8 °C 85 % 1009,2 hPa 0,0 mm 0,0 km/h (0 Bft) S 186 ° 0 min 0,000 mm 0,0 UV-I 0 W/m² 13,3 °C 15,8 °C 0,0 km/h (0 Bft)
08.08.2018 05:11 15,8 °C 85 % 1009,2 hPa 0,0 mm 0,0 km/h (0 Bft) S 186 ° 0 min 0,000 mm 0,0 UV-I 0 W/m² 13,3 °C 15,8 °C 0,0 km/h (0 Bft)
08.08.2018 05:12 15,7 °C 85 % 1009,2 hPa 0,0 mm 0,0 km/h (0 Bft) S 186 ° 0 min 0,000 mm 0,0 UV-I 0 W/m² 13,2 °C 15,7 °C 0,0 km/h (0 Bft)
08.08.2018 05:13 15,7 °C 85 % 1009,2 hPa 0,0 mm 0,0 km/h (0 Bft) S 186 ° 0 min 0,000 mm 0,0 UV-I 0 W/m² 13,2 °C 15,7 °C 0,0 km/h (0 Bft)
08.08.2018 05:14 15,6 °C 85 % 1009,3 hPa 0,0 mm 0,0 km/h (0 Bft) S 186 ° 0 min 0,000 mm 0,0 UV-I 0 W/m² 13,1 °C 15,6 °C 0,0 km/h (0 Bft)
08.08.2018 05:15 15,6 °C 85 % 1009,2 hPa 0,0 mm 0,0 km/h (0 Bft) S 186 ° 0 min 0,000 mm 0,0 UV-I 0 W/m² 13,1 °C 15,6 °C 0,0 km/h (0 Bft)
08.08.2018 05:16 15,5 °C 86 % 1009,2 hPa 0,0 mm 0,0 km/h (0 Bft) S 186 ° 0 min 0,000 mm 0,0 UV-I 0 W/m² 13,2 °C 15,5 °C 0,0 km/h (0 Bft)
08.08.2018 05:17 15,6 °C 86 % 1009,2 hPa 0,0 mm 0,0 km/h (0 Bft) S 186 ° 0 min 0,000 mm 0,0 UV-I 0 W/m² 13,3 °C 15,6 °C 0,0 km/h (0 Bft)
08.08.2018 05:18 15,5 °C 86 % 1009,2 hPa 0,0 mm 0,0 km/h (0 Bft) S 186 ° 0 min 0,000 mm 0,0 UV-I 0 W/m² 13,2 °C 15,5 °C 0,0 km/h (0 Bft)
08.08.2018 05:19 15,5 °C 86 % 1009,2 hPa 0,0 mm 0,0 km/h (0 Bft) S 186 ° 0 min 0,000 mm 0,0 UV-I 0 W/m² 13,2 °C 15,5 °C 0,0 km/h (0 Bft)
08.08.2018 05:20 15,4 °C 86 % 1009,2 hPa 0,0 mm 0,0 km/h (0 Bft) S 186 ° 0 min 0,000 mm 0,0 UV-I 0 W/m² 13,1 °C 15,4 °C 0,0 km/h (0 Bft)
08.08.2018 05:21 15,4 °C 86 % 1009,2 hPa 0,0 mm 0,0 km/h (0 Bft) S 186 ° 0 min 0,000 mm 0,0 UV-I 0 W/m² 13,1 °C 15,4 °C 0,0 km/h (0 Bft)
08.08.2018 05:22 15,4 °C 86 % 1009,3 hPa 0,0 mm 0,0 km/h (0 Bft) S 186 ° 0 min 0,000 mm 0,0 UV-I 0 W/m² 13,1 °C 15,4 °C 0,0 km/h (0 Bft)
08.08.2018 05:23 15,4 °C 87 % 1009,4 hPa 0,0 mm 0,0 km/h (0 Bft) S 186 ° 0 min 0,000 mm 0,0 UV-I 0 W/m² 13,2 °C 15,4 °C 0,0 km/h (0 Bft)
08.08.2018 05:24 15,4 °C 87 % 1009,4 hPa 0,0 mm 0,0 km/h (0 Bft) S 186 ° 0 min 0,000 mm 0,0 UV-I 0 W/m² 13,2 °C 15,4 °C 0,0 km/h (0 Bft)
08.08.2018 05:25 15,4 °C 87 % 1009,4 hPa 0,0 mm 0,0 km/h (0 Bft) S 186 ° 0 min 0,000 mm 0,0 UV-I 0 W/m² 13,2 °C 15,4 °C 0,0 km/h (0 Bft)
08.08.2018 05:26 15,4 °C 87 % 1009,3 hPa 0,0 mm 0,0 km/h (0 Bft) S 186 ° 0 min 0,000 mm 0,0 UV-I 0 W/m² 13,2 °C 15,4 °C 0,0 km/h (0 Bft)
08.08.2018 05:27 15,4 °C 86 % 1009,4 hPa 0,0 mm 0,0 km/h (0 Bft) S 186 ° 0 min 0,000 mm 0,0 UV-I 0 W/m² 13,1 °C 15,4 °C 0,0 km/h (0 Bft)
08.08.2018 05:28 15,4 °C 86 % 1009,4 hPa 0,0 mm 0,0 km/h (0 Bft) S 186 ° 0 min 0,000 mm 0,0 UV-I 0 W/m² 13,1 °C 15,4 °C 0,0 km/h (0 Bft)
08.08.2018 05:29 15,5 °C 87 % 1009,4 hPa 0,0 mm 0,0 km/h (0 Bft) S 186 ° 0 min 0,000 mm 0,0 UV-I 0 W/m² 13,3 °C 15,5 °C 0,0 km/h (0 Bft)
08.08.2018 05:30 15,4 °C 86 % 1009,4 hPa 0,0 mm 0,0 km/h (0 Bft) S 186 ° 0 min 0,000 mm 0,0 UV-I 0 W/m² 13,1 °C 15,4 °C 0,0 km/h (0 Bft)
08.08.2018 05:31 15,5 °C 86 % 1009,4 hPa 0,0 mm 0,0 km/h (0 Bft) S 186 ° 0 min 0,000 mm 0,0 UV-I 0 W/m² 13,2 °C 15,5 °C 0,0 km/h (0 Bft)
08.08.2018 05:32 15,5 °C 86 % 1009,4 hPa 0,0 mm 0,0 km/h (0 Bft) S 186 ° 0 min 0,000 mm 0,0 UV-I 0 W/m² 13,2 °C 15,5 °C 0,0 km/h (0 Bft)
08.08.2018 05:33 15,6 °C 86 % 1009,4 hPa 0,0 mm 0,0 km/h (0 Bft) S 186 ° 0 min 0,000 mm 0,0 UV-I 0 W/m² 13,3 °C 15,6 °C 0,0 km/h (0 Bft)
08.08.2018 05:34 15,6 °C 86 % 1009,4 hPa 0,0 mm 0,0 km/h (0 Bft) S 186 ° 0 min 0,000 mm 0,0 UV-I 0 W/m² 13,3 °C 15,6 °C 0,0 km/h (0 Bft)
08.08.2018 05:35 15,6 °C 86 % 1009,3 hPa 0,0 mm 0,0 km/h (0 Bft) S 186 ° 0 min 0,000 mm 0,0 UV-I 0 W/m² 13,3 °C 15,6 °C 0,0 km/h (0 Bft)
08.08.2018 05:36 15,7 °C 85 % 1009,3 hPa 0,0 mm 0,0 km/h (0 Bft) S 186 ° 0 min 0,000 mm 0,0 UV-I 0 W/m² 13,2 °C 15,7 °C 0,0 km/h (0 Bft)
08.08.2018 05:37 15,7 °C 85 % 1009,4 hPa 0,0 mm 0,0 km/h (0 Bft) S 186 ° 0 min 0,000 mm 0,0 UV-I 0 W/m² 13,2 °C 15,7 °C 0,0 km/h (0 Bft)
08.08.2018 05:38 15,8 °C 84 % 1009,4 hPa 0,0 mm 0,0 km/h (0 Bft) S 186 ° 0 min 0,000 mm 0,0 UV-I 0 W/m² 13,1 °C 15,8 °C 0,0 km/h (0 Bft)
08.08.2018 05:39 15,9 °C 84 % 1009,3 hPa 0,0 mm 0,0 km/h (0 Bft) S 186 ° 0 min 0,000 mm 0,0 UV-I 0 W/m² 13,2 °C 15,9 °C 0,0 km/h (0 Bft)
08.08.2018 05:40 16,0 °C 83 % 1009,4 hPa 0,0 mm 0,0 km/h (0 Bft) S 186 ° 0 min 0,000 mm 0,0 UV-I 0 W/m² 13,1 °C 16,0 °C 0,0 km/h (0 Bft)
08.08.2018 05:41 16,1 °C 83 % 1009,4 hPa 0,0 mm 0,0 km/h (0 Bft) S 186 ° 0 min 0,000 mm 0,0 UV-I 0 W/m² 13,2 °C 16,1 °C 0,0 km/h (0 Bft)
08.08.2018 05:42 16,2 °C 83 % 1009,4 hPa 0,0 mm 0,0 km/h (0 Bft) S 186 ° 0 min 0,000 mm 0,0 UV-I 0 W/m² 13,3 °C 16,2 °C 0,0 km/h (0 Bft)
08.08.2018 05:43 16,3 °C 82 % 1009,4 hPa 0,0 mm 0,0 km/h (0 Bft) S 186 ° 0 min 0,000 mm 0,0 UV-I 0 W/m² 13,2 °C 16,3 °C 0,0 km/h (0 Bft)
08.08.2018 05:44 16,4 °C 81 % 1009,4 hPa 0,0 mm 0,0 km/h (0 Bft) S 186 ° 0 min 0,000 mm 0,0 UV-I 0 W/m² 13,1 °C 16,4 °C 0,0 km/h (0 Bft)
08.08.2018 05:45 16,6 °C 81 % 1009,4 hPa 0,0 mm 0,0 km/h (0 Bft) S 186 ° 0 min 0,000 mm 0,0 UV-I 0 W/m² 13,3 °C 16,6 °C 0,0 km/h (0 Bft)
08.08.2018 05:46 16,7 °C 80 % 1009,4 hPa 0,0 mm 0,0 km/h (0 Bft) S 186 ° 0 min 0,000 mm 0,0 UV-I 0 W/m² 13,2 °C 16,7 °C 0,0 km/h (0 Bft)
08.08.2018 05:47 16,8 °C 80 % 1009,4 hPa 0,0 mm 0,0 km/h (0 Bft) S 186 ° 0 min 0,000 mm 0,0 UV-I 0 W/m² 13,3 °C 16,8 °C 0,0 km/h (0 Bft)
08.08.2018 05:48 16,7 °C 80 % 1009,4 hPa 0,0 mm 0,0 km/h (0 Bft) S 186 ° 0 min 0,000 mm 0,0 UV-I 0 W/m² 13,2 °C 16,7 °C 0,0 km/h (0 Bft)
08.08.2018 05:49 16,6 °C 81 % 1009,4 hPa 0,0 mm 0,0 km/h (0 Bft) S 186 ° 0 min 0,000 mm 0,0 UV-I 0 W/m² 13,3 °C 16,6 °C 0,0 km/h (0 Bft)
08.08.2018 05:50 16,4 °C 81 % 1009,4 hPa 0,0 mm 0,0 km/h (0 Bft) S 186 ° 0 min 0,000 mm 0,0 UV-I 0 W/m² 13,1 °C 16,4 °C 0,0 km/h (0 Bft)
08.08.2018 05:51 16,3 °C 82 % 1009,4 hPa 0,0 mm 0,0 km/h (0 Bft) S 186 ° 0 min 0,000 mm 0,0 UV-I 0 W/m² 13,2 °C 16,3 °C 0,0 km/h (0 Bft)
08.08.2018 05:52 16,2 °C 82 % 1009,5 hPa 0,0 mm 0,0 km/h (0 Bft) S 186 ° 0 min 0,000 mm 0,0 UV-I 0 W/m² 13,1 °C 16,2 °C 0,0 km/h (0 Bft)
08.08.2018 05:53 16,1 °C 82 % 1009,5 hPa 0,0 mm 0,0 km/h (0 Bft) S 186 ° 0 min 0,000 mm 0,0 UV-I 0 W/m² 13,0 °C 16,1 °C 0,0 km/h (0 Bft)
08.08.2018 05:54 16,0 °C 82 % 1009,5 hPa 0,0 mm 0,0 km/h (0 Bft) S 186 ° 0 min 0,000 mm 0,0 UV-I 0 W/m² 12,9 °C 16,0 °C 0,0 km/h (0 Bft)
08.08.2018 05:55 15,9 °C 83 % 1009,5 hPa 0,0 mm 0,0 km/h (0 Bft) S 186 ° 0 min 0,000 mm 0,0 UV-I 0 W/m² 13,0 °C 15,9 °C 0,0 km/h (0 Bft)
08.08.2018 05:56 15,9 °C 83 % 1009,6 hPa 0,0 mm 0,0 km/h (0 Bft) S 186 ° 0 min 0,000 mm 0,0 UV-I 0 W/m² 13,0 °C 15,9 °C 0,0 km/h (0 Bft)
08.08.2018 05:57 16,0 °C 82 % 1009,6 hPa 0,0 mm 0,0 km/h (0 Bft) S 186 ° 0 min 0,000 mm 0,0 UV-I 0 W/m² 12,9 °C 16,0 °C 0,0 km/h (0 Bft)
08.08.2018 05:58 16,1 °C 82 % 1009,7 hPa 0,0 mm 0,0 km/h (0 Bft) S 186 ° 0 min 0,000 mm 0,0 UV-I 0 W/m² 13,0 °C 16,1 °C 0,0 km/h (0 Bft)
08.08.2018 05:59 16,1 °C 82 % 1009,7 hPa 0,0 mm 0,0 km/h (0 Bft) S 186 ° 0 min 0,000 mm 0,0 UV-I 0 W/m² 13,0 °C 16,1 °C 0,0 km/h (0 Bft)
08.08.2018 06:00 16,1 °C 82 % 1009,7 hPa 0,0 mm 0,0 km/h (0 Bft) S 186 ° 0 min 0,000 mm 0,0 UV-I 5 W/m² 13,0 °C 16,1 °C 0,0 km/h (0 Bft)
08.08.2018 06:01 16,1 °C 82 % 1009,7 hPa 0,0 mm 0,0 km/h (0 Bft) S 186 ° 0 min 0,000 mm 0,0 UV-I 5 W/m² 13,0 °C 16,1 °C 0,0 km/h (0 Bft)
08.08.2018 06:02 16,1 °C 82 % 1009,7 hPa 0,0 mm 0,0 km/h (0 Bft) S 186 ° 0 min 0,000 mm 0,0 UV-I 5 W/m² 13,0 °C 16,1 °C 0,0 km/h (0 Bft)
08.08.2018 06:03 16,1 °C 82 % 1009,7 hPa 0,0 mm 0,0 km/h (0 Bft) S 186 ° 0 min 0,000 mm 0,0 UV-I 5 W/m² 13,0 °C 16,1 °C 0,0 km/h (0 Bft)
08.08.2018 06:04 16,1 °C 82 % 1009,7 hPa 0,0 mm 0,0 km/h (0 Bft) S 186 ° 0 min 0,000 mm 0,0 UV-I 5 W/m² 13,0 °C 16,1 °C 0,0 km/h (0 Bft)
08.08.2018 06:05 16,1 °C 82 % 1009,7 hPa 0,0 mm 0,0 km/h (0 Bft) S 186 ° 0 min 0,000 mm 0,0 UV-I 5 W/m² 13,0 °C 16,1 °C 0,0 km/h (0 Bft)
08.08.2018 06:06 16,1 °C 82 % 1009,7 hPa 0,0 mm 0,0 km/h (0 Bft) S 186 ° 0 min 0,000 mm 0,0 UV-I 5 W/m² 13,0 °C 16,1 °C 0,0 km/h (0 Bft)
08.08.2018 06:07 16,1 °C 82 % 1009,7 hPa 0,0 mm 0,0 km/h (0 Bft) S 186 ° 0 min 0,000 mm 0,0 UV-I 5 W/m² 13,0 °C 16,1 °C 0,0 km/h (0 Bft)
08.08.2018 06:08 16,0 °C 82 % 1009,7 hPa 0,0 mm 0,0 km/h (0 Bft) S 186 ° 0 min 0,000 mm 0,0 UV-I 7 W/m² 12,9 °C 16,0 °C 0,0 km/h (0 Bft)
08.08.2018 06:09 15,9 °C 82 % 1009,7 hPa 0,0 mm 0,0 km/h (0 Bft) S 186 ° 0 min 0,000 mm 0,0 UV-I 7 W/m² 12,8 °C 15,9 °C 0,0 km/h (0 Bft)
08.08.2018 06:10 15,9 °C 82 % 1009,7 hPa 0,0 mm 0,0 km/h (0 Bft) S 186 ° 0 min 0,000 mm 0,0 UV-I 7 W/m² 12,8 °C 15,9 °C 0,0 km/h (0 Bft)
08.08.2018 06:11 15,9 °C 82 % 1009,7 hPa 0,0 mm 0,0 km/h (0 Bft) S 186 ° 0 min 0,000 mm 0,0 UV-I 7 W/m² 12,8 °C 15,9 °C 0,0 km/h (0 Bft)
08.08.2018 06:12 15,8 °C 83 % 1009,7 hPa 0,0 mm 0,0 km/h (0 Bft) S 186 ° 0 min 0,000 mm 0,0 UV-I 9 W/m² 12,9 °C 15,8 °C 0,0 km/h (0 Bft)
08.08.2018 06:13 15,8 °C 83 % 1009,7 hPa 0,0 mm 0,0 km/h (0 Bft) S 186 ° 0 min 0,000 mm 0,0 UV-I 9 W/m² 12,9 °C 15,8 °C 0,0 km/h (0 Bft)
08.08.2018 06:14 15,8 °C 83 % 1009,8 hPa 0,0 mm 0,0 km/h (0 Bft) S 186 ° 0 min 0,000 mm 0,0 UV-I 11 W/m² 12,9 °C 15,8 °C 0,0 km/h (0 Bft)
08.08.2018 06:15 15,7 °C 83 % 1009,8 hPa 0,0 mm 0,0 km/h (0 Bft) S 186 ° 0 min 0,000 mm 0,0 UV-I 11 W/m² 12,8 °C 15,7 °C 0,0 km/h (0 Bft)
08.08.2018 06:16 15,7 °C 83 % 1009,7 hPa 0,0 mm 0,0 km/h (0 Bft) S 186 ° 0 min 0,000 mm 0,0 UV-I 11 W/m² 12,8 °C 15,7 °C 0,0 km/h (0 Bft)
08.08.2018 06:17 15,7 °C 83 % 1009,8 hPa 0,0 mm 0,0 km/h (0 Bft) S 186 ° 0 min 0,000 mm 0,0 UV-I 12 W/m² 12,8 °C 15,7 °C 0,0 km/h (0 Bft)
08.08.2018 06:18 15,7 °C 83 % 1009,8 hPa 0,0 mm 0,0 km/h (0 Bft) S 186 ° 0 min 0,000 mm 0,0 UV-I 12 W/m² 12,8 °C 15,7 °C 0,0 km/h (0 Bft)
08.08.2018 06:19 15,7 °C 83 % 1009,9 hPa 0,0 mm 0,0 km/h (0 Bft) S 186 ° 0 min 0,000 mm 0,0 UV-I 12 W/m² 12,8 °C 15,7 °C 0,0 km/h (0 Bft)
08.08.2018 06:20 15,6 °C 83 % 1009,9 hPa 0,0 mm 0,0 km/h (0 Bft) S 186 ° 0 min 0,000 mm 0,0 UV-I 14 W/m² 12,7 °C 15,6 °C 0,0 km/h (0 Bft)
08.08.2018 06:21 15,6 °C 84 % 1009,8 hPa 0,0 mm 0,0 km/h (0 Bft) S 186 ° 0 min 0,000 mm 0,0 UV-I 14 W/m² 12,9 °C 15,6 °C 0,0 km/h (0 Bft)
08.08.2018 06:22 15,6 °C 84 % 1009,8 hPa 0,0 mm 0,0 km/h (0 Bft) S 186 ° 0 min 0,000 mm 0,0 UV-I 14 W/m² 12,9 °C 15,6 °C 0,0 km/h (0 Bft)
08.08.2018 06:23 15,5 °C 84 % 1009,8 hPa 0,0 mm 0,0 km/h (0 Bft) S 186 ° 0 min 0,000 mm 0,0 UV-I 14 W/m² 12,8 °C 15,5 °C 0,0 km/h (0 Bft)
08.08.2018 06:24 15,5 °C 84 % 1009,8 hPa 0,0 mm 0,0 km/h (0 Bft) S 186 ° 0 min 0,000 mm 0,0 UV-I 14 W/m² 12,8 °C 15,5 °C 0,0 km/h (0 Bft)
08.08.2018 06:25 15,5 °C 84 % 1009,8 hPa 0,0 mm 0,0 km/h (0 Bft) S 186 ° 0 min 0,000 mm 0,0 UV-I 16 W/m² 12,8 °C 15,5 °C 0,0 km/h (0 Bft)
08.08.2018 06:26 15,5 °C 84 % 1009,9 hPa 0,0 mm 0,0 km/h (0 Bft) S 186 ° 0 min 0,000 mm 0,0 UV-I 16 W/m² 12,8 °C 15,5 °C 0,0 km/h (0 Bft)
08.08.2018 06:27 15,6 °C 84 % 1009,9 hPa 0,0 mm 0,0 km/h (0 Bft) S 186 ° 0 min 0,000 mm 0,0 UV-I 16 W/m² 12,9 °C 15,6 °C 0,0 km/h (0 Bft)
08.08.2018 06:28 15,6 °C 84 % 1009,9 hPa 0,0 mm 0,0 km/h (0 Bft) S 186 ° 0 min 0,000 mm 0,0 UV-I 18 W/m² 12,9 °C 15,6 °C 0,0 km/h (0 Bft)
08.08.2018 06:29 15,6 °C 84 % 1009,9 hPa 0,0 mm 0,0 km/h (0 Bft) S 186 ° 0 min 0,000 mm 0,0 UV-I 21 W/m² 12,9 °C 15,6 °C 0,0 km/h (0 Bft)
08.08.2018 06:30 15,6 °C 84 % 1009,9 hPa 0,0 mm 0,0 km/h (0 Bft) S 186 ° 0 min 0,000 mm 0,0 UV-I 21 W/m² 12,9 °C 15,6 °C 0,0 km/h (0 Bft)
08.08.2018 06:31 15,6 °C 84 % 1009,9 hPa 0,0 mm 0,0 km/h (0 Bft) S 186 ° 0 min 0,000 mm 0,0 UV-I 23 W/m² 12,9 °C 15,6 °C 0,0 km/h (0 Bft)
08.08.2018 06:32 15,7 °C 84 % 1009,9 hPa 0,0 mm 0,0 km/h (0 Bft) S 186 ° 0 min 0,000 mm 0,0 UV-I 23 W/m² 13,0 °C 15,7 °C 0,0 km/h (0 Bft)
08.08.2018 06:33 15,7 °C 84 % 1009,9 hPa 0,0 mm 0,0 km/h (0 Bft) S 186 ° 0 min 0,000 mm 0,0 UV-I 25 W/m² 13,0 °C 15,7 °C 0,0 km/h (0 Bft)
08.08.2018 06:34 15,7 °C 84 % 1009,9 hPa 0,0 mm 0,0 km/h (0 Bft) S 186 ° 0 min 0,000 mm 0,0 UV-I 25 W/m² 13,0 °C 15,7 °C 0,0 km/h (0 Bft)
08.08.2018 06:35 15,7 °C 84 % 1009,9 hPa 0,0 mm 0,0 km/h (0 Bft) S 186 ° 0 min 0,000 mm 0,0 UV-I 25 W/m² 13,0 °C 15,7 °C 0,0 km/h (0 Bft)
08.08.2018 06:36 15,7 °C 84 % 1009,9 hPa 0,0 mm 0,0 km/h (0 Bft) S 186 ° 0 min 0,000 mm 0,0 UV-I 26 W/m² 13,0 °C 15,7 °C 0,0 km/h (0 Bft)
08.08.2018 06:37 15,7 °C 84 % 1009,9 hPa 0,0 mm 0,0 km/h (0 Bft) S 186 ° 0 min 0,000 mm 0,0 UV-I 26 W/m² 13,0 °C 15,7 °C 0,0 km/h (0 Bft)
08.08.2018 06:38 15,6 °C 84 % 1009,9 hPa 0,0 mm 0,0 km/h (0 Bft) S 186 ° 0 min 0,000 mm 0,0 UV-I 26 W/m² 12,9 °C 15,6 °C 0,0 km/h (0 Bft)
08.08.2018 06:39 15,6 °C 85 % 1009,9 hPa 0,0 mm 0,0 km/h (0 Bft) S 186 ° 0 min 0,000 mm 0,0 UV-I 28 W/m² 13,1 °C 15,6 °C 0,0 km/h (0 Bft)
08.08.2018 06:40 15,6 °C 85 % 1009,9 hPa 0,0 mm 0,0 km/h (0 Bft) S 186 ° 0 min 0,000 mm 0,0 UV-I 28 W/m² 13,1 °C 15,6 °C 0,0 km/h (0 Bft)
08.08.2018 06:41 15,6 °C 85 % 1009,9 hPa 0,0 mm 0,0 km/h (0 Bft) S 186 ° 0 min 0,000 mm 0,0 UV-I 28 W/m² 13,1 °C 15,6 °C 0,0 km/h (0 Bft)
08.08.2018 06:42 15,6 °C 85 % 1009,9 hPa 0,0 mm 0,0 km/h (0 Bft) S 186 ° 0 min 0,000 mm 0,0 UV-I 30 W/m² 13,1 °C 15,6 °C 0,0 km/h (0 Bft)
08.08.2018 06:43 15,6 °C 85 % 1010,0 hPa 0,0 mm 0,0 km/h (0 Bft) S 186 ° 0 min 0,000 mm 0,0 UV-I 30 W/m² 13,1 °C 15,6 °C 0,0 km/h (0 Bft)
08.08.2018 06:44 15,6 °C 85 % 1009,9 hPa 0,0 mm 0,0 km/h (0 Bft) S 186 ° 0 min 0,000 mm 0,0 UV-I 32 W/m² 13,1 °C 15,6 °C 0,0 km/h (0 Bft)
08.08.2018 06:45 15,7 °C 85 % 1009,9 hPa 0,0 mm 0,0 km/h (0 Bft) S 186 ° 0 min 0,000 mm 0,0 UV-I 30 W/m² 13,2 °C 15,7 °C 0,0 km/h (0 Bft)
08.08.2018 06:46 15,7 °C 85 % 1009,9 hPa 0,0 mm 0,0 km/h (0 Bft) S 186 ° 0 min 0,000 mm 0,0 UV-I 32 W/m² 13,2 °C 15,7 °C 0,0 km/h (0 Bft)
08.08.2018 06:47 15,8 °C 84 % 1009,9 hPa 0,0 mm 0,0 km/h (0 Bft) S 186 ° 0 min 0,000 mm 0,0 UV-I 32 W/m² 13,1 °C 15,8 °C 0,0 km/h (0 Bft)
08.08.2018 06:48 15,9 °C 84 % 1009,9 hPa 0,0 mm 0,0 km/h (0 Bft) S 186 ° 0 min 0,000 mm 0,0 UV-I 32 W/m² 13,2 °C 15,9 °C 0,0 km/h (0 Bft)
08.08.2018 06:49 16,1 °C 83 % 1009,9 hPa 0,0 mm 0,0 km/h (0 Bft) S 186 ° 0 min 0,000 mm 0,0 UV-I 32 W/m² 13,2 °C 16,1 °C 0,0 km/h (0 Bft)
08.08.2018 06:50 16,3 °C 82 % 1009,8 hPa 0,0 mm 0,0 km/h (0 Bft) S 186 ° 0 min 0,000 mm 0,0 UV-I 33 W/m² 13,2 °C 16,3 °C 0,0 km/h (0 Bft)
08.08.2018 06:51 16,3 °C 82 % 1009,8 hPa 0,0 mm 0,0 km/h (0 Bft) S 186 ° 0 min 0,000 mm 0,0 UV-I 32 W/m² 13,2 °C 16,3 °C 0,0 km/h (0 Bft)
08.08.2018 06:52 16,4 °C 82 % 1009,9 hPa 0,0 mm 0,0 km/h (0 Bft) S 186 ° 0 min 0,000 mm 0,0 UV-I 35 W/m² 13,3 °C 16,4 °C 0,0 km/h (0 Bft)
08.08.2018 06:53 16,5 °C 82 % 1009,9 hPa 0,0 mm 0,0 km/h (0 Bft) S 186 ° 0 min 0,000 mm 0,0 UV-I 35 W/m² 13,4 °C 16,5 °C 0,0 km/h (0 Bft)
08.08.2018 06:54 16,6 °C 82 % 1009,8 hPa 0,0 mm 0,0 km/h (0 Bft) S 186 ° 0 min 0,000 mm 0,0 UV-I 39 W/m² 13,5 °C 16,6 °C 0,0 km/h (0 Bft)
08.08.2018 06:55 16,6 °C 82 % 1009,9 hPa 0,0 mm 0,0 km/h (0 Bft) S 186 ° 0 min 0,000 mm 0,0 UV-I 39 W/m² 13,5 °C 16,6 °C 0,0 km/h (0 Bft)
08.08.2018 06:56 16,6 °C 81 % 1009,9 hPa 0,0 mm 0,0 km/h (0 Bft) S 186 ° 0 min 0,000 mm 0,0 UV-I 39 W/m² 13,3 °C 16,6 °C 0,0 km/h (0 Bft)
08.08.2018 06:57 16,6 °C 81 % 1009,9 hPa 0,0 mm 0,0 km/h (0 Bft) S 186 ° 0 min 0,000 mm 0,0 UV-I 40 W/m² 13,3 °C 16,6 °C 0,0 km/h (0 Bft)
08.08.2018 06:58 16,6 °C 81 % 1009,9 hPa 0,0 mm 0,0 km/h (0 Bft) S 186 ° 0 min 0,000 mm 0,0 UV-I 46 W/m² 13,3 °C 16,6 °C 0,0 km/h (0 Bft)
08.08.2018 06:59 16,6 °C 81 % 1009,9 hPa 0,0 mm 0,0 km/h (0 Bft) S 186 ° 0 min 0,000 mm 0,0 UV-I 49 W/m² 13,3 °C 16,6 °C 0,0 km/h (0 Bft)
08.08.2018 07:00 16,6 °C 82 % 1009,9 hPa 0,0 mm 0,0 km/h (0 Bft) S 186 ° 0 min 0,025 mm 0,0 UV-I 53 W/m² 13,5 °C 16,6 °C 0,0 km/h (0 Bft)
08.08.2018 07:01 16,6 °C 82 % 1009,9 hPa 0,0 mm 0,0 km/h (0 Bft) S 186 ° 0 min 0,000 mm 0,0 UV-I 58 W/m² 13,5 °C 16,6 °C 0,0 km/h (0 Bft)
08.08.2018 07:02 16,6 °C 82 % 1009,9 hPa 0,0 mm 0,0 km/h (0 Bft) S 186 ° 0 min 0,000 mm 0,0 UV-I 62 W/m² 13,5 °C 16,6 °C 0,0 km/h (0 Bft)
08.08.2018 07:03 16,7 °C 82 % 1009,9 hPa 0,0 mm 0,0 km/h (0 Bft) S 186 ° 0 min 0,000 mm 0,0 UV-I 67 W/m² 13,6 °C 16,7 °C 0,0 km/h (0 Bft)
08.08.2018 07:04 16,7 °C 82 % 1009,9 hPa 0,0 mm 0,0 km/h (0 Bft) S 186 ° 0 min 0,000 mm 0,0 UV-I 74 W/m² 13,6 °C 16,7 °C 0,0 km/h (0 Bft)
08.08.2018 07:05 16,7 °C 82 % 1009,9 hPa 0,0 mm 0,0 km/h (0 Bft) S 186 ° 0 min 0,000 mm 0,0 UV-I 79 W/m² 13,6 °C 16,7 °C 0,0 km/h (0 Bft)
08.08.2018 07:06 16,7 °C 82 % 1009,9 hPa 0,0 mm 0,0 km/h (0 Bft) S 186 ° 0 min 0,000 mm 0,0 UV-I 81 W/m² 13,6 °C 16,7 °C 0,0 km/h (0 Bft)
08.08.2018 07:07 16,8 °C 82 % 1009,9 hPa 0,0 mm 0,0 km/h (0 Bft) S 186 ° 0 min 0,000 mm 0,0 UV-I 77 W/m² 13,7 °C 16,8 °C 0,0 km/h (0 Bft)
08.08.2018 07:08 16,8 °C 82 % 1009,9 hPa 0,0 mm 0,0 km/h (0 Bft) S 186 ° 0 min 0,000 mm 0,0 UV-I 81 W/m² 13,7 °C 16,8 °C 0,0 km/h (0 Bft)
08.08.2018 07:09 16,8 °C 81 % 1009,9 hPa 0,0 mm 0,0 km/h (0 Bft) S 186 ° 0 min 0,000 mm 0,0 UV-I 76 W/m² 13,5 °C 16,8 °C 0,0 km/h (0 Bft)
08.08.2018 07:10 16,9 °C 82 % 1009,9 hPa 0,0 mm 0,0 km/h (0 Bft) S 186 ° 0 min 0,000 mm 0,0 UV-I 100 W/m² 13,8 °C 16,9 °C 0,0 km/h (0 Bft)
08.08.2018 07:11 16,9 °C 82 % 1009,9 hPa 0,0 mm 0,0 km/h (0 Bft) S 186 ° 0 min 0,000 mm 0,0 UV-I 100 W/m² 13,8 °C 16,9 °C 0,0 km/h (0 Bft)
08.08.2018 07:12 16,9 °C 82 % 1009,9 hPa 0,0 mm 0,0 km/h (0 Bft) S 186 ° 0 min 0,000 mm 0,0 UV-I 83 W/m² 13,8 °C 16,9 °C 0,0 km/h (0 Bft)
08.08.2018 07:13 16,9 °C 82 % 1009,9 hPa 0,0 mm 0,0 km/h (0 Bft) S 186 ° 0 min 0,000 mm 0,0 UV-I 83 W/m² 13,8 °C 16,9 °C 0,0 km/h (0 Bft)
08.08.2018 07:14 17,0 °C 82 % 1009,9 hPa 0,0 mm 0,0 km/h (0 Bft) S 186 ° 0 min 0,000 mm 0,0 UV-I 60 W/m² 13,9 °C 17,0 °C 0,0 km/h (0 Bft)
08.08.2018 07:15 17,0 °C 81 % 1009,9 hPa 0,0 mm 0,0 km/h (0 Bft) S 186 ° 0 min 0,000 mm 0,0 UV-I 60 W/m² 13,7 °C 17,0 °C 0,0 km/h (0 Bft)
08.08.2018 07:16 17,1 °C 81 % 1009,9 hPa 0,0 mm 0,0 km/h (0 Bft) S 186 ° 0 min 0,000 mm 0,0 UV-I 62 W/m² 13,8 °C 17,1 °C 0,0 km/h (0 Bft)
08.08.2018 07:17 17,1 °C 82 % 1009,9 hPa 0,0 mm 0,0 km/h (0 Bft) S 186 ° 0 min 0,000 mm 0,5 UV-I 65 W/m² 14,0 °C 17,1 °C 0,0 km/h (0 Bft)
08.08.2018 07:18 17,1 °C 82 % 1009,9 hPa 0,0 mm 0,0 km/h (0 Bft) S 186 ° 0 min 0,000 mm 0,5 UV-I 72 W/m² 14,0 °C 17,1 °C 0,0 km/h (0 Bft)
08.08.2018 07:19 17,1 °C 81 % 1010,0 hPa 0,0 mm 0,0 km/h (0 Bft) S 186 ° 0 min 0,000 mm 0,5 UV-I 67 W/m² 13,8 °C 17,1 °C 0,0 km/h (0 Bft)
08.08.2018 07:20 17,2 °C 81 % 1010,0 hPa 0,0 mm 0,0 km/h (0 Bft) S 186 ° 0 min 0,000 mm 0,5 UV-I 58 W/m² 13,9 °C 17,2 °C 0,0 km/h (0 Bft)
08.08.2018 07:21 17,2 °C 81 % 1010,0 hPa 0,0 mm 0,0 km/h (0 Bft) S 186 ° 0 min 0,000 mm 0,0 UV-I 53 W/m² 13,9 °C 17,2 °C 0,0 km/h (0 Bft)
08.08.2018 07:22 17,3 °C 81 % 1010,0 hPa 0,0 mm 0,0 km/h (0 Bft) S 186 ° 0 min 0,000 mm 0,0 UV-I 51 W/m² 14,0 °C 17,3 °C 0,0 km/h (0 Bft)
08.08.2018 07:23 17,3 °C 81 % 1010,0 hPa 0,0 mm 0,0 km/h (0 Bft) S 186 ° 0 min 0,000 mm 0,0 UV-I 53 W/m² 14,0 °C 17,3 °C 0,0 km/h (0 Bft)
08.08.2018 07:24 17,2 °C 82 % 1010,0 hPa 0,0 mm 0,0 km/h (0 Bft) S 186 ° 0 min 0,000 mm 0,0 UV-I 53 W/m² 14,1 °C 17,2 °C 0,0 km/h (0 Bft)
08.08.2018 07:25 17,3 °C 82 % 1010,1 hPa 0,0 mm 0,0 km/h (0 Bft) S 186 ° 0 min 0,000 mm 0,0 UV-I 53 W/m² 14,2 °C 17,3 °C 0,0 km/h (0 Bft)
08.08.2018 07:26 17,3 °C 82 % 1010,1 hPa 0,0 mm 0,0 km/h (0 Bft) S 186 ° 0 min 0,000 mm 0,0 UV-I 53 W/m² 14,2 °C 17,3 °C 0,0 km/h (0 Bft)
08.08.2018 07:27 17,3 °C 81 % 1010,1 hPa 0,0 mm 0,0 km/h (0 Bft) S 186 ° 0 min 0,000 mm 0,0 UV-I 56 W/m² 14,0 °C 17,3 °C 0,0 km/h (0 Bft)
08.08.2018 07:28 17,4 °C 81 % 1010,1 hPa 0,0 mm 0,0 km/h (0 Bft) S 186 ° 0 min 0,000 mm 0,6 UV-I 63 W/m² 14,1 °C 17,4 °C 0,0 km/h (0 Bft)
08.08.2018 07:29 17,4 °C 81 % 1010,2 hPa 0,0 mm 0,0 km/h (0 Bft) S 186 ° 0 min 0,000 mm 0,6 UV-I 63 W/m² 14,1 °C 17,4 °C 0,0 km/h (0 Bft)
08.08.2018 07:30 17,6 °C 81 % 1010,2 hPa 0,0 mm 0,0 km/h (0 Bft) S 186 ° 0 min 0,000 mm 0,6 UV-I 69 W/m² 14,3 °C 17,6 °C 0,0 km/h (0 Bft)
08.08.2018 07:31 17,7 °C 81 % 1010,2 hPa 0,0 mm 0,0 km/h (0 Bft) S 186 ° 0 min 0,000 mm 0,6 UV-I 72 W/m² 14,4 °C 17,7 °C 0,0 km/h (0 Bft)
08.08.2018 07:32 17,7 °C 81 % 1010,2 hPa 0,0 mm 0,0 km/h (0 Bft) S 186 ° 0 min 0,000 mm 0,6 UV-I 97 W/m² 14,4 °C 17,7 °C 0,0 km/h (0 Bft)
08.08.2018 07:33 17,8 °C 82 % 1010,3 hPa 0,0 mm 0,0 km/h (0 Bft) S 186 ° 0 min 0,000 mm 0,6 UV-I 111 W/m² 14,7 °C 17,8 °C 0,0 km/h (0 Bft)
08.08.2018 07:34 17,8 °C 82 % 1010,3 hPa 0,0 mm 1,1 km/h (1 Bft) W-SW 258 ° 0 min 0,000 mm 0,7 UV-I 172 W/m² 14,7 °C 17,8 °C 3,2 km/h (1 Bft)
08.08.2018 07:35 18,0 °C 83 % 1010,5 hPa 0,0 mm 4,9 km/h (1 Bft) W-NW 294 ° 0 min 0,000 mm 0,7 UV-I 186 W/m² 15,1 °C 18,0 °C 8,0 km/h (2 Bft)
08.08.2018 07:36 18,3 °C 82 % 1010,5 hPa 0,0 mm 8,4 km/h (2 Bft) W-SW 257 ° 0 min 0,000 mm 0,7 UV-I 190 W/m² 15,2 °C 18,3 °C 12,9 km/h (3 Bft)
08.08.2018 07:37 18,5 °C 76 % 1010,6 hPa 0,0 mm 7,1 km/h (2 Bft) S 188 ° 0 min 0,000 mm 0,7 UV-I 202 W/m² 14,2 °C 18,5 °C 12,9 km/h (3 Bft)
08.08.2018 07:38 18,8 °C 74 % 1010,7 hPa 0,0 mm 8,8 km/h (2 Bft) S 185 ° 0 min 0,000 mm 0,7 UV-I 213 W/m² 14,1 °C 18,8 °C 14,5 km/h (3 Bft)
08.08.2018 07:39 19,1 °C 72 % 1010,7 hPa 0,0 mm 9,7 km/h (2 Bft) S 182 ° 0 min 0,000 mm 0,8 UV-I 239 W/m² 13,9 °C 19,1 °C 11,3 km/h (2 Bft)
08.08.2018 07:40 19,4 °C 72 % 1010,7 hPa 0,0 mm 7,4 km/h (2 Bft) S-SW 197 ° 0 min 0,000 mm 0,8 UV-I 251 W/m² 14,2 °C 19,4 °C 11,3 km/h (2 Bft)
08.08.2018 07:41 19,6 °C 71 % 1010,8 hPa 0,0 mm 7,2 km/h (2 Bft) S 175 ° 0 min 0,000 mm 0,8 UV-I 264 W/m² 14,2 °C 19,6 °C 9,7 km/h (2 Bft)
08.08.2018 07:42 19,8 °C 71 % 1010,8 hPa 0,0 mm 6,7 km/h (2 Bft) S-SW 205 ° 0 min 0,000 mm 0,7 UV-I 255 W/m² 14,4 °C 19,8 °C 12,9 km/h (3 Bft)
08.08.2018 07:43 20,0 °C 71 % 1010,8 hPa 0,0 mm 5,2 km/h (1 Bft) S 189 ° 0 min 0,000 mm 0,7 UV-I 262 W/m² 14,6 °C 20,0 °C 9,7 km/h (2 Bft)
08.08.2018 07:44 20,2 °C 71 % 1010,8 hPa 0,0 mm 2,8 km/h (1 Bft) S 180 ° 0 min 0,000 mm 0,7 UV-I 250 W/m² 14,8 °C 20,2 °C 6,4 km/h (2 Bft)
08.08.2018 07:45 20,3 °C 70 % 1010,9 hPa 0,0 mm 3,3 km/h (1 Bft) W-SW 248 ° 0 min 0,000 mm 0,7 UV-I 267 W/m² 14,6 °C 20,3 °C 6,4 km/h (2 Bft)
08.08.2018 07:46 20,6 °C 69 % 1010,9 hPa 0,0 mm 2,5 km/h (1 Bft) W-SW 248 ° 0 min 0,000 mm 0,6 UV-I 258 W/m² 14,7 °C 20,6 °C 4,8 km/h (1 Bft)
08.08.2018 07:47 20,8 °C 69 % 1011,0 hPa 0,0 mm 0,1 km/h (0 Bft) W-SW 248 ° 0 min 0,000 mm 0,6 UV-I 258 W/m² 14,9 °C 20,8 °C 1,6 km/h (1 Bft)
08.08.2018 07:48 21,1 °C 68 % 1011,0 hPa 0,0 mm 0,0 km/h (0 Bft) W-SW 246 ° 0 min 0,000 mm 0,6 UV-I 243 W/m² 15,0 °C 21,1 °C 0,0 km/h (0 Bft)
08.08.2018 07:49 21,3 °C 66 % 1010,9 hPa 0,0 mm 2,3 km/h (1 Bft) W 263 ° 0 min 0,000 mm 0,5 UV-I 163 W/m² 14,7 °C 21,3 °C 4,8 km/h (1 Bft)
08.08.2018 07:50 21,4 °C 65 % 1011,0 hPa 0,0 mm 0,7 km/h (0 Bft) W 261 ° 0 min 0,000 mm 0,5 UV-I 111 W/m² 14,5 °C 21,4 °C 3,2 km/h (1 Bft)
08.08.2018 07:51 21,4 °C 68 % 1011,0 hPa 0,0 mm 0,2 km/h (0 Bft) W 261 ° 0 min 0,000 mm 0,5 UV-I 91 W/m² 15,2 °C 21,4 °C 1,6 km/h (1 Bft)
08.08.2018 07:52 21,3 °C 67 % 1011,1 hPa 0,0 mm 2,1 km/h (1 Bft) W 269 ° 0 min 0,000 mm 0,0 UV-I 84 W/m² 14,9 °C 21,3 °C 4,8 km/h (1 Bft)
08.08.2018 07:53 21,3 °C 66 % 1011,1 hPa 0,0 mm 2,6 km/h (1 Bft) W 269 ° 0 min 0,000 mm 0,0 UV-I 84 W/m² 14,7 °C 21,3 °C 4,8 km/h (1 Bft)
08.08.2018 07:54 21,2 °C 70 % 1011,1 hPa 0,0 mm 2,6 km/h (1 Bft) W-SW 252 ° 0 min 0,000 mm 0,0 UV-I 72 W/m² 15,5 °C 21,2 °C 4,8 km/h (1 Bft)
08.08.2018 07:55 21,1 °C 70 % 1011,2 hPa 0,0 mm 1,9 km/h (1 Bft) W-SW 242 ° 0 min 0,000 mm 0,0 UV-I 95 W/m² 15,4 °C 21,1 °C 4,8 km/h (1 Bft)
08.08.2018 07:56 21,1 °C 71 % 1011,2 hPa 0,0 mm 3,2 km/h (1 Bft) W-SW 250 ° 0 min 0,000 mm 0,0 UV-I 69 W/m² 15,6 °C 21,1 °C 6,4 km/h (2 Bft)
08.08.2018 07:57 21,0 °C 70 % 1011,4 hPa 0,0 mm 1,2 km/h (1 Bft) W-SW 244 ° 0 min 0,000 mm 0,0 UV-I 51 W/m² 15,3 °C 21,0 °C 3,2 km/h (1 Bft)
08.08.2018 07:58 21,0 °C 68 % 1011,4 hPa 0,0 mm 9,8 km/h (2 Bft) W-SW 257 ° 0 min 0,000 mm 0,0 UV-I 47 W/m² 14,9 °C 21,0 °C 12,9 km/h (3 Bft)
08.08.2018 07:59 20,9 °C 67 % 1011,4 hPa 0,0 mm 6,0 km/h (2 Bft) W-SW 251 ° 0 min 0,000 mm 0,0 UV-I 44 W/m² 14,5 °C 20,9 °C 11,3 km/h (2 Bft)
08.08.2018 08:00 20,9 °C 65 % 1011,4 hPa 0,0 mm 8,3 km/h (2 Bft) W 281 ° 0 min 0,000 mm 0,0 UV-I 42 W/m² 14,1 °C 20,9 °C 12,9 km/h (3 Bft)
08.08.2018 08:01 20,9 °C 66 % 1011,4 hPa 0,0 mm 4,2 km/h (1 Bft) W 271 ° 0 min 0,076 mm 0,0 UV-I 42 W/m² 14,3 °C 20,9 °C 9,7 km/h (2 Bft)
08.08.2018 08:02 20,9 °C 65 % 1011,5 hPa 0,0 mm 8,3 km/h (2 Bft) W 266 ° 0 min 0,000 mm 0,0 UV-I 40 W/m² 14,1 °C 20,9 °C 16,1 km/h (3 Bft)
08.08.2018 08:03 20,9 °C 65 % 1011,5 hPa 0,0 mm 9,2 km/h (2 Bft) W 262 ° 0 min 0,000 mm 0,0 UV-I 42 W/m² 14,1 °C 20,9 °C 16,1 km/h (3 Bft)
08.08.2018 08:04 20,8 °C 65 % 1011,5 hPa 0,0 mm 9,9 km/h (2 Bft) W 268 ° 0 min 0,000 mm 0,0 UV-I 44 W/m² 14,0 °C 20,8 °C 16,1 km/h (3 Bft)
08.08.2018 08:05 20,8 °C 65 % 1011,6 hPa 0,0 mm 10,8 km/h (2 Bft) W 269 ° 0 min 0,000 mm 0,0 UV-I 44 W/m² 14,0 °C 20,8 °C 16,1 km/h (3 Bft)
08.08.2018 08:06 20,8 °C 64 % 1011,6 hPa 0,0 mm 9,1 km/h (2 Bft) W-NW 288 ° 0 min 0,000 mm 0,0 UV-I 49 W/m² 13,7 °C 20,8 °C 14,5 km/h (3 Bft)
08.08.2018 08:07 20,8 °C 64 % 1011,6 hPa 0,0 mm 7,3 km/h (2 Bft) W-SW 246 ° 0 min 0,000 mm 0,0 UV-I 54 W/m² 13,7 °C 20,8 °C 11,3 km/h (2 Bft)
08.08.2018 08:08 20,8 °C 64 % 1011,6 hPa 0,0 mm 6,8 km/h (2 Bft) W-NW 283 ° 0 min 0,000 mm 0,6 UV-I 58 W/m² 13,7 °C 20,8 °C 9,7 km/h (2 Bft)
08.08.2018 08:09 20,8 °C 63 % 1011,6 hPa 0,0 mm 6,4 km/h (2 Bft) W-NW 294 ° 0 min 0,000 mm 0,6 UV-I 63 W/m² 13,5 °C 20,8 °C 11,3 km/h (2 Bft)
08.08.2018 08:10 20,8 °C 64 % 1011,6 hPa 0,0 mm 13,3 km/h (3 Bft) NW 315 ° 0 min 0,000 mm 0,6 UV-I 65 W/m² 13,7 °C 20,8 °C 17,7 km/h (3 Bft)
08.08.2018 08:11 20,8 °C 64 % 1011,7 hPa 0,0 mm 12,3 km/h (3 Bft) W 278 ° 0 min 0,000 mm 0,7 UV-I 65 W/m² 13,7 °C 20,8 °C 19,3 km/h (3 Bft)
08.08.2018 08:12 20,9 °C 62 % 1011,7 hPa 0,0 mm 12,3 km/h (3 Bft) W 273 ° 0 min 0,000 mm 0,7 UV-I 67 W/m² 13,3 °C 20,9 °C 20,9 km/h (4 Bft)
08.08.2018 08:13 21,0 °C 63 % 1011,7 hPa 0,0 mm 12,1 km/h (2 Bft) W 274 ° 0 min 0,000 mm 0,7 UV-I 67 W/m² 13,7 °C 21,0 °C 19,3 km/h (3 Bft)
08.08.2018 08:14 21,1 °C 62 % 1011,7 hPa 0,0 mm 11,9 km/h (2 Bft) W 263 ° 0 min 0,000 mm 0,7 UV-I 72 W/m² 13,5 °C 21,1 °C 16,1 km/h (3 Bft)
08.08.2018 08:15 21,1 °C 63 % 1011,7 hPa 0,0 mm 14,1 km/h (3 Bft) W-NW 294 ° 0 min 0,000 mm 0,7 UV-I 72 W/m² 13,8 °C 21,1 °C 24,1 km/h (4 Bft)
08.08.2018 08:16 21,1 °C 62 % 1011,7 hPa 0,0 mm 8,4 km/h (2 Bft) W-SW 254 ° 0 min 0,000 mm 0,8 UV-I 74 W/m² 13,5 °C 21,1 °C 14,5 km/h (3 Bft)
08.08.2018 08:17 21,2 °C 62 % 1011,7 hPa 0,0 mm 9,2 km/h (2 Bft) W 260 ° 0 min 0,000 mm 0,8 UV-I 76 W/m² 13,6 °C 21,2 °C 12,9 km/h (3 Bft)
08.08.2018 08:18 21,2 °C 61 % 1011,8 hPa 0,0 mm 12,4 km/h (3 Bft) W-NW 290 ° 0 min 0,000 mm 0,8 UV-I 76 W/m² 13,4 °C 21,2 °C 19,3 km/h (3 Bft)
08.08.2018 08:19 21,2 °C 61 % 1011,9 hPa 0,0 mm 12,6 km/h (3 Bft) W-NW 291 ° 0 min 0,000 mm 0,8 UV-I 76 W/m² 13,4 °C 21,2 °C 17,7 km/h (3 Bft)
08.08.2018 08:20 21,2 °C 62 % 1011,9 hPa 0,0 mm 9,4 km/h (2 Bft) W 264 ° 0 min 0,000 mm 0,9 UV-I 72 W/m² 13,6 °C 21,2 °C 12,9 km/h (3 Bft)
08.08.2018 08:21 21,3 °C 62 % 1011,9 hPa 0,0 mm 19,1 km/h (3 Bft) W 262 ° 0 min 0,000 mm 0,9 UV-I 72 W/m² 13,7 °C 21,3 °C 25,7 km/h (4 Bft)
08.08.2018 08:22 21,3 °C 62 % 1011,9 hPa 0,0 mm 10,8 km/h (2 Bft) W-SW 258 ° 0 min 0,000 mm 0,9 UV-I 72 W/m² 13,7 °C 21,3 °C 19,3 km/h (3 Bft)
08.08.2018 08:23 21,3 °C 62 % 1011,9 hPa 0,0 mm 10,7 km/h (2 Bft) W-SW 257 ° 0 min 0,000 mm 0,9 UV-I 72 W/m² 13,7 °C 21,3 °C 14,5 km/h (3 Bft)
08.08.2018 08:24 21,3 °C 62 % 1011,9 hPa 0,0 mm 12,5 km/h (3 Bft) W 268 ° 0 min 0,000 mm 1,0 UV-I 76 W/m² 13,7 °C 21,3 °C 17,7 km/h (3 Bft)
08.08.2018 08:25 21,3 °C 62 % 1011,9 hPa 0,0 mm 12,1 km/h (2 Bft) W 269 ° 0 min 0,000 mm 1,0 UV-I 77 W/m² 13,7 °C 21,3 °C 17,7 km/h (3 Bft)
08.08.2018 08:26 21,4 °C 63 % 1012,0 hPa 0,0 mm 14,7 km/h (3 Bft) W 260 ° 0 min 0,000 mm 1,0 UV-I 81 W/m² 14,1 °C 21,4 °C 22,5 km/h (4 Bft)
08.08.2018 08:27 21,3 °C 64 % 1012,0 hPa 0,0 mm 13,7 km/h (3 Bft) W 261 ° 0 min 0,000 mm 1,0 UV-I 83 W/m² 14,2 °C 21,3 °C 22,5 km/h (4 Bft)
08.08.2018 08:28 21,3 °C 63 % 1012,0 hPa 0,0 mm 17,0 km/h (3 Bft) W 277 ° 0 min 0,000 mm 1,1 UV-I 84 W/m² 14,0 °C 21,3 °C 20,9 km/h (4 Bft)
08.08.2018 08:29 21,3 °C 63 % 1012,0 hPa 0,0 mm 11,0 km/h (2 Bft) W-NW 296 ° 0 min 0,000 mm 1,1 UV-I 90 W/m² 14,0 °C 21,3 °C 19,3 km/h (3 Bft)
08.08.2018 08:30 21,3 °C 64 % 1012,1 hPa 0,0 mm 12,8 km/h (3 Bft) W-NW 302 ° 0 min 0,000 mm 1,1 UV-I 95 W/m² 14,2 °C 21,3 °C 22,5 km/h (4 Bft)
08.08.2018 08:31 21,3 °C 65 % 1012,0 hPa 0,0 mm 12,1 km/h (2 Bft) W 273 ° 0 min 0,000 mm 1,2 UV-I 107 W/m² 14,4 °C 21,3 °C 20,9 km/h (4 Bft)
08.08.2018 08:32 21,3 °C 65 % 1012,1 hPa 0,0 mm 14,9 km/h (3 Bft) W 267 ° 0 min 0,000 mm 1,3 UV-I 223 W/m² 14,4 °C 21,3 °C 25,7 km/h (4 Bft)
08.08.2018 08:33 21,4 °C 65 % 1012,2 hPa 0,0 mm 15,9 km/h (3 Bft) W-SW 253 ° 0 min 0,000 mm 1,4 UV-I 230 W/m² 14,5 °C 21,4 °C 27,4 km/h (4 Bft)
08.08.2018 08:34 21,5 °C 65 % 1012,1 hPa 0,0 mm 8,6 km/h (2 Bft) W 259 ° 0 min 0,000 mm 1,4 UV-I 250 W/m² 14,6 °C 21,5 °C 14,5 km/h (3 Bft)
08.08.2018 08:35 21,6 °C 65 % 1012,2 hPa 0,0 mm 10,8 km/h (2 Bft) W 266 ° 0 min 0,000 mm 1,5 UV-I 262 W/m² 14,7 °C 21,6 °C 19,3 km/h (3 Bft)
08.08.2018 08:36 21,7 °C 65 % 1012,2 hPa 0,0 mm 14,3 km/h (3 Bft) W 264 ° 0 min 0,000 mm 1,5 UV-I 264 W/m² 14,8 °C 21,7 °C 20,9 km/h (4 Bft)
08.08.2018 08:37 21,8 °C 64 % 1012,3 hPa 0,0 mm 14,5 km/h (3 Bft) W 267 ° 0 min 0,000 mm 1,6 UV-I 283 W/m² 14,7 °C 21,8 °C 20,9 km/h (4 Bft)
08.08.2018 08:38 21,9 °C 64 % 1012,3 hPa 0,0 mm 15,4 km/h (3 Bft) W 267 ° 0 min 0,000 mm 1,6 UV-I 301 W/m² 14,8 °C 21,9 °C 24,1 km/h (4 Bft)
08.08.2018 08:39 22,0 °C 65 % 1012,4 hPa 0,0 mm 15,6 km/h (3 Bft) W 273 ° 0 min 0,000 mm 1,6 UV-I 288 W/m² 15,1 °C 22,0 °C 19,3 km/h (3 Bft)
08.08.2018 08:40 22,1 °C 65 % 1012,3 hPa 0,0 mm 17,3 km/h (3 Bft) W-SW 252 ° 0 min 0,000 mm 1,5 UV-I 253 W/m² 15,2 °C 22,1 °C 25,7 km/h (4 Bft)
08.08.2018 08:41 22,1 °C 65 % 1012,3 hPa 0,0 mm 14,4 km/h (3 Bft) W 271 ° 0 min 0,000 mm 1,6 UV-I 253 W/m² 15,2 °C 22,1 °C 16,1 km/h (3 Bft)
08.08.2018 08:42 22,1 °C 64 % 1012,4 hPa 0,0 mm 14,6 km/h (3 Bft) W 261 ° 0 min 0,000 mm 1,6 UV-I 260 W/m² 15,0 °C 22,1 °C 22,5 km/h (4 Bft)
08.08.2018 08:43 22,1 °C 65 % 1012,4 hPa 0,0 mm 9,9 km/h (2 Bft) W 263 ° 0 min 0,000 mm 1,6 UV-I 265 W/m² 15,2 °C 22,1 °C 12,9 km/h (3 Bft)
08.08.2018 08:44 22,2 °C 66 % 1012,4 hPa 0,0 mm 8,3 km/h (2 Bft) W 269 ° 0 min 0,000 mm 1,5 UV-I 220 W/m² 15,5 °C 22,2 °C 14,5 km/h (3 Bft)
08.08.2018 08:45 22,1 °C 66 % 1012,4 hPa 0,0 mm 15,1 km/h (3 Bft) W 279 ° 0 min 0,000 mm 1,5 UV-I 167 W/m² 15,4 °C 22,1 °C 22,5 km/h (4 Bft)
08.08.2018 08:46 22,1 °C 65 % 1012,4 hPa 0,0 mm 15,6 km/h (3 Bft) W-NW 293 ° 0 min 0,000 mm 1,7 UV-I 209 W/m² 15,2 °C 22,1 °C 24,1 km/h (4 Bft)
08.08.2018 08:47 22,1 °C 65 % 1012,4 hPa 0,0 mm 10,9 km/h (2 Bft) W 269 ° 0 min 0,000 mm 1,9 UV-I 209 W/m² 15,2 °C 22,1 °C 14,5 km/h (3 Bft)
08.08.2018 08:48 22,2 °C 67 % 1012,5 hPa 0,0 mm 12,3 km/h (3 Bft) W-NW 288 ° 0 min 0,000 mm 1,9 UV-I 387 W/m² 15,8 °C 22,2 °C 19,3 km/h (3 Bft)
08.08.2018 08:49 22,3 °C 66 % 1012,5 hPa 0,0 mm 17,3 km/h (3 Bft) S 180 ° 0 min 0,000 mm 1,7 UV-I 387 W/m² 15,6 °C 22,3 °C 27,4 km/h (4 Bft)
08.08.2018 08:50 22,3 °C 67 % 1012,5 hPa 0,0 mm 20,0 km/h (4 Bft) W 265 ° 0 min 0,000 mm 1,7 UV-I 279 W/m² 15,9 °C 22,3 °C 29,0 km/h (5 Bft)
08.08.2018 08:51 22,4 °C 66 % 1012,5 hPa 0,0 mm 14,2 km/h (3 Bft) W 275 ° 0 min 0,000 mm 2,0 UV-I 408 W/m² 15,7 °C 22,4 °C 19,3 km/h (3 Bft)
08.08.2018 08:52 22,4 °C 67 % 1012,5 hPa 0,0 mm 13,8 km/h (3 Bft) W 261 ° 0 min 0,000 mm 1,9 UV-I 401 W/m² 16,0 °C 22,4 °C 25,7 km/h (4 Bft)
08.08.2018 08:53 22,4 °C 67 % 1012,5 hPa 0,0 mm 22,1 km/h (4 Bft) W-SW 254 ° 0 min 0,000 mm 1,9 UV-I 383 W/m² 16,0 °C 22,4 °C 27,4 km/h (4 Bft)
08.08.2018 08:54 22,4 °C 67 % 1012,5 hPa 0,0 mm 19,8 km/h (3 Bft) W 265 ° 0 min 0,000 mm 1,6 UV-I 383 W/m² 16,0 °C 22,4 °C 25,7 km/h (4 Bft)
08.08.2018 08:55 22,3 °C 67 % 1012,6 hPa 0,0 mm 18,0 km/h (3 Bft) W 267 ° 0 min 0,000 mm 1,5 UV-I 181 W/m² 15,9 °C 22,3 °C 22,5 km/h (4 Bft)
08.08.2018 08:56 22,3 °C 67 % 1012,7 hPa 0,0 mm 8,9 km/h (2 Bft) W 268 ° 0 min 0,000 mm 1,5 UV-I 181 W/m² 15,9 °C 22,3 °C 19,3 km/h (3 Bft)
08.08.2018 08:57 22,2 °C 67 % 1012,6 hPa 0,0 mm 14,2 km/h (3 Bft) W-NW 291 ° 0 min 0,000 mm 1,6 UV-I 265 W/m² 15,8 °C 22,2 °C 20,9 km/h (4 Bft)
08.08.2018 08:58 22,1 °C 68 % 1012,6 hPa 0,0 mm 11,9 km/h (2 Bft) W-NW 290 ° 0 min 0,000 mm 1,9 UV-I 316 W/m² 15,9 °C 22,1 °C 16,1 km/h (3 Bft)
08.08.2018 08:59 22,1 °C 69 % 1012,6 hPa 0,0 mm 11,8 km/h (2 Bft) W 261 ° 0 min 0,000 mm 1,7 UV-I 316 W/m² 16,1 °C 22,1 °C 16,1 km/h (3 Bft)
08.08.2018 09:00 22,1 °C 69 % 1012,6 hPa 0,0 mm 11,2 km/h (2 Bft) NW 323 ° 0 min 0,000 mm 2,0 UV-I 316 W/m² 16,1 °C 22,1 °C 16,1 km/h (3 Bft)
08.08.2018 09:01 22,2 °C 69 % 1012,6 hPa 0,0 mm 8,6 km/h (2 Bft) W-NW 288 ° 0 min 0,178 mm 1,9 UV-I 438 W/m² 16,2 °C 22,2 °C 20,9 km/h (4 Bft)
08.08.2018 09:02 22,3 °C 69 % 1012,7 hPa 0,0 mm 8,3 km/h (2 Bft) NW 306 ° 0 min 0,000 mm 1,6 UV-I 216 W/m² 16,3 °C 22,3 °C 16,1 km/h (3 Bft)
08.08.2018 09:03 22,3 °C 69 % 1012,7 hPa 0,0 mm 13,3 km/h (3 Bft) W 276 ° 0 min 0,000 mm 1,6 UV-I 218 W/m² 16,3 °C 22,3 °C 22,5 km/h (4 Bft)
08.08.2018 09:04 22,2 °C 68 % 1012,7 hPa 0,0 mm 8,9 km/h (2 Bft) N-NW 330 ° 0 min 0,000 mm 1,6 UV-I 230 W/m² 16,0 °C 22,2 °C 12,9 km/h (3 Bft)
08.08.2018 09:05 22,2 °C 70 % 1012,6 hPa 0,0 mm 14,8 km/h (3 Bft) W-NW 302 ° 0 min 0,000 mm 1,7 UV-I 246 W/m² 16,5 °C 22,2 °C 22,5 km/h (4 Bft)
08.08.2018 09:06 22,2 °C 69 % 1012,8 hPa 0,0 mm 10,2 km/h (2 Bft) W-NW 283 ° 0 min 0,000 mm 2,0 UV-I 246 W/m² 16,2 °C 22,2 °C 16,1 km/h (3 Bft)
08.08.2018 09:07 22,2 °C 69 % 1012,8 hPa 0,0 mm 10,7 km/h (2 Bft) NW 313 ° 0 min 0,000 mm 2,2 UV-I 443 W/m² 16,2 °C 22,2 °C 14,5 km/h (3 Bft)
08.08.2018 09:08 22,3 °C 70 % 1012,8 hPa 0,0 mm 16,3 km/h (3 Bft) W-NW 284 ° 0 min 0,000 mm 1,9 UV-I 443 W/m² 16,6 °C 22,3 °C 22,5 km/h (4 Bft)
08.08.2018 09:09 22,2 °C 69 % 1012,8 hPa 0,0 mm 10,6 km/h (2 Bft) W-NW 283 ° 0 min 0,000 mm 1,9 UV-I 276 W/m² 16,2 °C 22,2 °C 17,7 km/h (3 Bft)
08.08.2018 09:10 22,2 °C 69 % 1012,8 hPa 0,0 mm 11,5 km/h (2 Bft) W-NW 303 ° 0 min 0,000 mm 1,9 UV-I 274 W/m² 16,2 °C 22,2 °C 20,9 km/h (4 Bft)
08.08.2018 09:11 22,1 °C 69 % 1012,8 hPa 0,0 mm 15,7 km/h (3 Bft) W-SW 250 ° 0 min 0,000 mm 2,0 UV-I 269 W/m² 16,1 °C 22,1 °C 27,4 km/h (4 Bft)
08.08.2018 09:12 22,1 °C 70 % 1012,9 hPa 0,0 mm 9,4 km/h (2 Bft) W 277 ° 0 min 0,000 mm 2,3 UV-I 269 W/m² 16,4 °C 22,1 °C 16,1 km/h (3 Bft)
08.08.2018 09:13 22,1 °C 70 % 1012,8 hPa 0,0 mm 10,1 km/h (2 Bft) W 267 ° 0 min 0,000 mm 2,2 UV-I 350 W/m² 16,4 °C 22,1 °C 14,5 km/h (3 Bft)
08.08.2018 09:14 22,1 °C 70 % 1012,7 hPa 0,0 mm 5,2 km/h (1 Bft) W-SW 252 ° 0 min 0,000 mm 2,1 UV-I 322 W/m² 16,4 °C 22,1 °C 12,9 km/h (3 Bft)
08.08.2018 09:15 22,1 °C 71 % 1012,8 hPa 0,0 mm 11,0 km/h (2 Bft) W 269 ° 0 min 0,000 mm 2,5 UV-I 348 W/m² 16,6 °C 22,1 °C 16,1 km/h (3 Bft)
08.08.2018 09:16 22,2 °C 70 % 1012,8 hPa 0,0 mm 13,8 km/h (3 Bft) W-SW 258 ° 0 min 0,000 mm 2,6 UV-I 348 W/m² 16,5 °C 22,2 °C 16,1 km/h (3 Bft)
08.08.2018 09:17 22,3 °C 70 % 1012,9 hPa 0,0 mm 10,8 km/h (2 Bft) W-NW 284 ° 0 min 0,000 mm 2,5 UV-I 348 W/m² 16,6 °C 22,3 °C 14,5 km/h (3 Bft)
08.08.2018 09:18 22,4 °C 71 % 1012,8 hPa 0,0 mm 6,9 km/h (2 Bft) W-NW 284 ° 0 min 0,000 mm 2,5 UV-I 450 W/m² 16,9 °C 22,4 °C 14,5 km/h (3 Bft)
08.08.2018 09:19 22,4 °C 71 % 1012,8 hPa 0,0 mm 8,9 km/h (2 Bft) W-NW 282 ° 0 min 0,000 mm 2,3 UV-I 401 W/m² 16,9 °C 22,4 °C 16,1 km/h (3 Bft)
08.08.2018 09:20 22,4 °C 70 % 1012,7 hPa 0,0 mm 3,2 km/h (1 Bft) S-SW 205 ° 0 min 0,000 mm 2,3 UV-I 330 W/m² 16,7 °C 22,4 °C 6,4 km/h (2 Bft)
08.08.2018 09:21 22,4 °C 70 % 1012,8 hPa 0,0 mm 11,4 km/h (2 Bft) W-SW 240 ° 0 min 0,000 mm 2,0 UV-I 330 W/m² 16,7 °C 22,4 °C 24,1 km/h (4 Bft)
08.08.2018 09:22 22,4 °C 69 % 1012,8 hPa 0,0 mm 14,2 km/h (3 Bft) W 275 ° 0 min 0,000 mm 2,0 UV-I 158 W/m² 16,4 °C 22,4 °C 17,7 km/h (3 Bft)
08.08.2018 09:23 22,3 °C 70 % 1012,8 hPa 0,0 mm 18,4 km/h (3 Bft) W-NW 295 ° 0 min 0,000 mm 1,9 UV-I 153 W/m² 16,6 °C 22,3 °C 25,7 km/h (4 Bft)
08.08.2018 09:24 22,2 °C 68 % 1012,8 hPa 0,0 mm 17,6 km/h (3 Bft) W-NW 292 ° 0 min 0,000 mm 2,0 UV-I 153 W/m² 16,0 °C 22,2 °C 24,1 km/h (4 Bft)
08.08.2018 09:25 22,1 °C 69 % 1012,8 hPa 0,0 mm 13,6 km/h (3 Bft) NW 304 ° 0 min 0,000 mm 2,3 UV-I 350 W/m² 16,1 °C 22,1 °C 24,1 km/h (4 Bft)
08.08.2018 09:26 22,1 °C 70 % 1012,9 hPa 0,0 mm 15,2 km/h (3 Bft) W-SW 252 ° 0 min 0,000 mm 2,2 UV-I 350 W/m² 16,4 °C 22,1 °C 24,1 km/h (4 Bft)
08.08.2018 09:27 22,1 °C 70 % 1012,9 hPa 0,0 mm 8,2 km/h (2 Bft) W 277 ° 0 min 0,000 mm 2,5 UV-I 450 W/m² 16,4 °C 22,1 °C 17,7 km/h (3 Bft)
08.08.2018 09:28 22,2 °C 70 % 1012,9 hPa 0,0 mm 17,2 km/h (3 Bft) W 281 ° 0 min 0,000 mm 2,5 UV-I 471 W/m² 16,5 °C 22,2 °C 30,6 km/h (5 Bft)
08.08.2018 09:29 22,2 °C 69 % 1012,9 hPa 0,0 mm 14,3 km/h (3 Bft) SW 227 ° 0 min 0,000 mm 2,6 UV-I 455 W/m² 16,2 °C 22,2 °C 22,5 km/h (4 Bft)
08.08.2018 09:30 22,2 °C 70 % 1012,9 hPa 0,0 mm 13,2 km/h (3 Bft) W-SW 243 ° 0 min 0,000 mm 2,4 UV-I 424 W/m² 16,5 °C 22,2 °C 22,5 km/h (4 Bft)
08.08.2018 09:31 22,2 °C 70 % 1012,9 hPa 0,0 mm 10,8 km/h (2 Bft) W-SW 248 ° 0 min 0,000 mm 2,4 UV-I 424 W/m² 16,5 °C 22,2 °C 16,1 km/h (3 Bft)
08.08.2018 09:32 22,3 °C 70 % 1012,9 hPa 0,0 mm 2,2 km/h (1 Bft) W-NW 298 ° 0 min 0,000 mm 2,9 UV-I 519 W/m² 16,6 °C 22,3 °C 6,4 km/h (2 Bft)
08.08.2018 09:33 22,3 °C 71 % 1012,9 hPa 0,0 mm 7,2 km/h (2 Bft) W-NW 283 ° 0 min 0,000 mm 2,9 UV-I 538 W/m² 16,8 °C 22,3 °C 12,9 km/h (3 Bft)
08.08.2018 09:34 22,5 °C 74 % 1012,9 hPa 0,0 mm 6,2 km/h (2 Bft) W-SW 255 ° 0 min 0,000 mm 2,9 UV-I 512 W/m² 17,6 °C 22,5 °C 11,3 km/h (2 Bft)
08.08.2018 09:35 22,7 °C 71 % 1012,9 hPa 0,0 mm 9,4 km/h (2 Bft) W 281 ° 0 min 0,000 mm 2,9 UV-I 512 W/m² 17,2 °C 22,7 °C 14,5 km/h (3 Bft)
08.08.2018 09:36 22,8 °C 70 % 1012,9 hPa 0,0 mm 6,4 km/h (2 Bft) W 275 ° 0 min 0,000 mm 2,2 UV-I 512 W/m² 17,0 °C 22,8 °C 11,3 km/h (2 Bft)
08.08.2018 09:37 22,8 °C 69 % 1012,9 hPa 0,0 mm 9,9 km/h (2 Bft) W 265 ° 0 min 0,000 mm 2,0 UV-I 183 W/m² 16,8 °C 22,8 °C 16,1 km/h (3 Bft)
08.08.2018 09:38 22,7 °C 69 % 1012,9 hPa 0,0 mm 7,1 km/h (2 Bft) W 276 ° 0 min 0,000 mm 2,0 UV-I 186 W/m² 16,7 °C 22,7 °C 22,5 km/h (4 Bft)
08.08.2018 09:39 22,6 °C 68 % 1012,9 hPa 0,0 mm 12,7 km/h (3 Bft) W 260 ° 0 min 0,000 mm 2,1 UV-I 195 W/m² 16,4 °C 22,6 °C 22,5 km/h (4 Bft)
08.08.2018 09:40 22,4 °C 69 % 1013,0 hPa 0,0 mm 9,4 km/h (2 Bft) W 277 ° 0 min 0,000 mm 2,1 UV-I 207 W/m² 16,4 °C 22,4 °C 14,5 km/h (3 Bft)
08.08.2018 09:41 22,3 °C 70 % 1012,9 hPa 0,0 mm 11,0 km/h (2 Bft) W 280 ° 0 min 0,000 mm 2,1 UV-I 200 W/m² 16,6 °C 22,3 °C 17,7 km/h (3 Bft)
08.08.2018 09:42 22,2 °C 69 % 1013,0 hPa 0,0 mm 11,5 km/h (2 Bft) W 279 ° 0 min 0,000 mm 2,1 UV-I 199 W/m² 16,2 °C 22,2 °C 24,1 km/h (4 Bft)
08.08.2018 09:43 22,1 °C 68 % 1012,9 hPa 0,0 mm 12,3 km/h (3 Bft) S 189 ° 0 min 0,000 mm 2,2 UV-I 197 W/m² 15,9 °C 22,1 °C 19,3 km/h (3 Bft)
08.08.2018 09:44 22,1 °C 68 % 1012,9 hPa 0,0 mm 10,8 km/h (2 Bft) W 277 ° 0 min 0,000 mm 2,2 UV-I 193 W/m² 15,9 °C 22,1 °C 19,3 km/h (3 Bft)
08.08.2018 09:45 22,0 °C 69 % 1012,9 hPa 0,0 mm 14,8 km/h (3 Bft) W-SW 244 ° 0 min 0,000 mm 2,2 UV-I 186 W/m² 16,0 °C 22,0 °C 19,3 km/h (3 Bft)
08.08.2018 09:46 21,9 °C 69 % 1012,9 hPa 0,0 mm 13,6 km/h (3 Bft) W 277 ° 0 min 0,000 mm 2,2 UV-I 185 W/m² 15,9 °C 21,9 °C 19,3 km/h (3 Bft)
08.08.2018 09:47 21,9 °C 69 % 1012,9 hPa 0,0 mm 14,5 km/h (3 Bft) W-SW 257 ° 0 min 0,000 mm 2,3 UV-I 190 W/m² 15,9 °C 21,9 °C 19,3 km/h (3 Bft)
08.08.2018 09:48 21,8 °C 68 % 1012,9 hPa 0,0 mm 7,8 km/h (2 Bft) NW 326 ° 0 min 0,000 mm 2,3 UV-I 190 W/m² 15,6 °C 21,8 °C 19,3 km/h (3 Bft)
08.08.2018 09:49 21,9 °C 69 % 1012,9 hPa 0,0 mm 8,9 km/h (2 Bft) W-NW 300 ° 0 min 0,000 mm 2,4 UV-I 190 W/m² 15,9 °C 21,9 °C 14,5 km/h (3 Bft)
08.08.2018 09:50 21,9 °C 70 % 1012,9 hPa 0,0 mm 10,0 km/h (2 Bft) W 274 ° 0 min 0,000 mm 2,7 UV-I 229 W/m² 16,2 °C 21,9 °C 16,1 km/h (3 Bft)
08.08.2018 09:51 21,9 °C 70 % 1013,0 hPa 0,0 mm 14,6 km/h (3 Bft) W-SW 247 ° 0 min 0,000 mm 3,1 UV-I 229 W/m² 16,2 °C 21,9 °C 19,3 km/h (3 Bft)
08.08.2018 09:52 22,1 °C 69 % 1012,9 hPa 0,0 mm 11,6 km/h (2 Bft) NW 305 ° 0 min 0,000 mm 3,5 UV-I 229 W/m² 16,1 °C 22,1 °C 16,1 km/h (3 Bft)
08.08.2018 09:53 22,3 °C 69 % 1012,9 hPa 0,0 mm 5,9 km/h (2 Bft) W-NW 297 ° 0 min 0,000 mm 3,6 UV-I 229 W/m² 16,3 °C 22,3 °C 12,9 km/h (3 Bft)
08.08.2018 09:54 22,4 °C 69 % 1012,9 hPa 0,0 mm 7,2 km/h (2 Bft) NW 304 ° 0 min 0,000 mm 3,6 UV-I 592 W/m² 16,4 °C 22,4 °C 12,9 km/h (3 Bft)
08.08.2018 09:55 22,7 °C 69 % 1012,9 hPa 0,0 mm 8,0 km/h (2 Bft) NW 312 ° 0 min 0,000 mm 3,7 UV-I 592 W/m² 16,7 °C 22,7 °C 11,3 km/h (2 Bft)
08.08.2018 09:56 22,8 °C 69 % 1013,0 hPa 0,0 mm 10,3 km/h (2 Bft) W 277 ° 0 min 0,000 mm 3,7 UV-I 589 W/m² 16,8 °C 22,8 °C 19,3 km/h (3 Bft)
08.08.2018 09:57 22,9 °C 67 % 1013,0 hPa 0,0 mm 11,3 km/h (2 Bft) W-NW 291 ° 0 min 0,000 mm 3,7 UV-I 587 W/m² 16,4 °C 22,9 °C 17,7 km/h (3 Bft)
08.08.2018 09:58 23,0 °C 70 % 1012,9 hPa 0,0 mm 10,5 km/h (2 Bft) W-NW 298 ° 0 min 0,000 mm 3,7 UV-I 585 W/m² 17,2 °C 23,0 °C 16,1 km/h (3 Bft)
08.08.2018 09:59 23,1 °C 68 % 1013,0 hPa 0,0 mm 10,3 km/h (2 Bft) W 274 ° 0 min 0,000 mm 3,7 UV-I 570 W/m² 16,9 °C 23,1 °C 12,9 km/h (3 Bft)
08.08.2018 10:00 23,1 °C 67 % 1013,0 hPa 0,0 mm 8,0 km/h (2 Bft) W-NW 287 ° 0 min 0,254 mm 3,7 UV-I 585 W/m² 16,6 °C 23,1 °C 16,1 km/h (3 Bft)
08.08.2018 10:01 23,2 °C 68 % 1013,0 hPa 0,0 mm 8,9 km/h (2 Bft) W-NW 296 ° 0 min 0,000 mm 3,7 UV-I 580 W/m² 17,0 °C 23,2 °C 14,5 km/h (3 Bft)
08.08.2018 10:02 23,1 °C 66 % 1013,0 hPa 0,0 mm 10,4 km/h (2 Bft) NW 308 ° 0 min 0,000 mm 3,8 UV-I 596 W/m² 16,4 °C 23,1 °C 29,0 km/h (5 Bft)
08.08.2018 10:03 23,1 °C 67 % 1013,0 hPa 0,0 mm 13,8 km/h (3 Bft) W 279 ° 1 min 0,000 mm 3,8 UV-I 606 W/m² 16,6 °C 23,1 °C 19,3 km/h (3 Bft)
08.08.2018 10:04 23,0 °C 65 % 1013,0 hPa 0,0 mm 11,9 km/h (2 Bft) W-NW 288 ° 1 min 0,000 mm 3,7 UV-I 606 W/m² 16,1 °C 23,0 °C 19,3 km/h (3 Bft)
08.08.2018 10:05 23,0 °C 67 % 1013,0 hPa 0,0 mm 14,1 km/h (3 Bft) NW 319 ° 1 min 0,000 mm 3,8 UV-I 606 W/m² 16,5 °C 23,0 °C 20,9 km/h (4 Bft)
08.08.2018 10:06 22,9 °C 67 % 1013,0 hPa 0,0 mm 8,0 km/h (2 Bft) N-NO 32 ° 0 min 0,000 mm 3,9 UV-I 508 W/m² 16,4 °C 22,9 °C 14,5 km/h (3 Bft)
08.08.2018 10:07 23,0 °C 67 % 1013,0 hPa 0,0 mm 11,4 km/h (2 Bft) W-NW 289 ° 0 min 0,000 mm 4,0 UV-I 508 W/m² 16,5 °C 23,0 °C 14,5 km/h (3 Bft)
08.08.2018 10:08 23,2 °C 68 % 1013,1 hPa 0,0 mm 7,1 km/h (2 Bft) W-NW 294 ° 1 min 0,000 mm 4,1 UV-I 650 W/m² 17,0 °C 23,2 °C 11,3 km/h (2 Bft)
08.08.2018 10:09 23,2 °C 65 % 1013,1 hPa 0,0 mm 5,4 km/h (1 Bft) NW 312 ° 1 min 0,000 mm 4,2 UV-I 659 W/m² 16,2 °C 23,2 °C 9,7 km/h (2 Bft)
08.08.2018 10:10 23,3 °C 66 % 1013,1 hPa 0,0 mm 11,5 km/h (2 Bft) W-SW 257 ° 1 min 0,000 mm 4,2 UV-I 666 W/m² 16,6 °C 23,3 °C 17,7 km/h (3 Bft)
08.08.2018 10:11 23,3 °C 64 % 1013,1 hPa 0,0 mm 16,3 km/h (3 Bft) NW 304 ° 1 min 0,000 mm 4,2 UV-I 666 W/m² 16,1 °C 23,3 °C 24,1 km/h (4 Bft)
08.08.2018 10:12 23,3 °C 65 % 1013,0 hPa 0,0 mm 15,1 km/h (3 Bft) W-SW 257 ° 1 min 0,000 mm 4,2 UV-I 666 W/m² 16,3 °C 23,3 °C 22,5 km/h (4 Bft)
08.08.2018 10:13 23,3 °C 64 % 1013,0 hPa 0,0 mm 13,6 km/h (3 Bft) W 277 ° 1 min 0,000 mm 4,2 UV-I 663 W/m² 16,1 °C 23,3 °C 20,9 km/h (4 Bft)
08.08.2018 10:14 23,4 °C 68 % 1013,0 hPa 0,0 mm 7,7 km/h (2 Bft) W 272 ° 1 min 0,000 mm 4,2 UV-I 668 W/m² 17,1 °C 23,4 °C 12,9 km/h (3 Bft)
08.08.2018 10:15 23,6 °C 66 % 1013,1 hPa 0,0 mm 10,4 km/h (2 Bft) W-SW 258 ° 1 min 0,000 mm 4,3 UV-I 670 W/m² 16,9 °C 23,6 °C 16,1 km/h (3 Bft)
08.08.2018 10:16 23,7 °C 65 % 1013,0 hPa 0,0 mm 5,0 km/h (1 Bft) W-NW 284 ° 1 min 0,000 mm 4,4 UV-I 680 W/m² 16,7 °C 23,7 °C 16,1 km/h (3 Bft)
08.08.2018 10:17 23,7 °C 65 % 1013,0 hPa 0,0 mm 11,0 km/h (2 Bft) W-NW 296 ° 1 min 0,000 mm 4,4 UV-I 673 W/m² 16,7 °C 23,7 °C 16,1 km/h (3 Bft)
08.08.2018 10:18 23,7 °C 65 % 1013,0 hPa 0,0 mm 4,9 km/h (1 Bft) W 271 ° 1 min 0,000 mm 4,4 UV-I 664 W/m² 16,7 °C 23,7 °C 6,4 km/h (2 Bft)
08.08.2018 10:19 23,8 °C 66 % 1013,0 hPa 0,0 mm 13,7 km/h (3 Bft) W 268 ° 1 min 0,000 mm 4,4 UV-I 661 W/m² 17,1 °C 23,8 °C 20,9 km/h (4 Bft)
08.08.2018 10:20 23,8 °C 65 % 1013,0 hPa 0,0 mm 10,4 km/h (2 Bft) NW 304 ° 1 min 0,000 mm 4,4 UV-I 661 W/m² 16,8 °C 23,8 °C 14,5 km/h (3 Bft)
08.08.2018 10:21 23,8 °C 63 % 1013,0 hPa 0,0 mm 10,3 km/h (2 Bft) W 269 ° 1 min 0,000 mm 4,4 UV-I 661 W/m² 16,3 °C 23,8 °C 14,5 km/h (3 Bft)
08.08.2018 10:22 23,7 °C 64 % 1013,0 hPa 0,0 mm 9,0 km/h (2 Bft) W-SW 250 ° 1 min 0,000 mm 4,5 UV-I 668 W/m² 16,5 °C 23,7 °C 12,9 km/h (3 Bft)
08.08.2018 10:23 23,7 °C 65 % 1012,9 hPa 0,0 mm 5,9 km/h (2 Bft) W 263 ° 1 min 0,000 mm 4,5 UV-I 682 W/m² 16,7 °C 23,7 °C 12,9 km/h (3 Bft)
08.08.2018 10:24 23,7 °C 66 % 1013,0 hPa 0,0 mm 12,3 km/h (3 Bft) W 279 ° 1 min 0,000 mm 4,6 UV-I 682 W/m² 17,0 °C 23,7 °C 20,9 km/h (4 Bft)
08.08.2018 10:25 23,7 °C 65 % 1013,0 hPa 0,0 mm 12,5 km/h (3 Bft) W 265 ° 1 min 0,000 mm 4,6 UV-I 682 W/m² 16,7 °C 23,7 °C 17,7 km/h (3 Bft)
08.08.2018 10:26 23,7 °C 64 % 1012,9 hPa 0,0 mm 12,5 km/h (3 Bft) W 260 ° 1 min 0,000 mm 4,6 UV-I 686 W/m² 16,5 °C 23,7 °C 19,3 km/h (3 Bft)
08.08.2018 10:27 23,7 °C 64 % 1013,0 hPa 0,0 mm 9,8 km/h (2 Bft) W-NW 286 ° 1 min 0,000 mm 4,6 UV-I 689 W/m² 16,5 °C 23,7 °C 16,1 km/h (3 Bft)
08.08.2018 10:28 23,7 °C 64 % 1012,9 hPa 0,0 mm 8,5 km/h (2 Bft) W-NW 292 ° 1 min 0,000 mm 4,7 UV-I 694 W/m² 16,5 °C 23,7 °C 16,1 km/h (3 Bft)
08.08.2018 10:29 23,7 °C 65 % 1012,9 hPa 0,0 mm 3,8 km/h (1 Bft) W-NW 295 ° 1 min 0,000 mm 4,7 UV-I 703 W/m² 16,7 °C 23,7 °C 6,4 km/h (2 Bft)
08.08.2018 10:30 23,8 °C 64 % 1012,9 hPa 0,0 mm 7,7 km/h (2 Bft) NW 313 ° 1 min 0,000 mm 4,7 UV-I 670 W/m² 16,6 °C 23,8 °C 12,9 km/h (3 Bft)
08.08.2018 10:31 23,8 °C 65 % 1012,9 hPa 0,0 mm 10,9 km/h (2 Bft) W 266 ° 1 min 0,000 mm 3,9 UV-I 670 W/m² 16,8 °C 23,8 °C 16,1 km/h (3 Bft)
08.08.2018 10:32 23,8 °C 64 % 1012,9 hPa 0,0 mm 9,1 km/h (2 Bft) NW 314 ° 1 min 0,000 mm 3,9 UV-I 670 W/m² 16,6 °C 23,8 °C 16,1 km/h (3 Bft)
08.08.2018 10:33 23,7 °C 62 % 1013,0 hPa 0,0 mm 8,1 km/h (2 Bft) W-NW 294 ° 1 min 0,000 mm 3,4 UV-I 670 W/m² 16,0 °C 23,7 °C 11,3 km/h (2 Bft)
08.08.2018 10:34 23,4 °C 63 % 1012,9 hPa 0,0 mm 4,2 km/h (1 Bft) W-NW 294 ° 1 min 0,000 mm 4,0 UV-I 670 W/m² 15,9 °C 23,4 °C 8,0 km/h (2 Bft)
08.08.2018 10:35 23,3 °C 64 % 1013,0 hPa 0,0 mm 10,2 km/h (2 Bft) NW 308 ° 1 min 0,000 mm 3,6 UV-I 670 W/m² 16,1 °C 23,3 °C 16,1 km/h (3 Bft)
08.08.2018 10:36 23,3 °C 65 % 1013,0 hPa 0,0 mm 8,0 km/h (2 Bft) W-NW 296 ° 0 min 0,000 mm 4,5 UV-I 592 W/m² 16,3 °C 23,3 °C 12,9 km/h (3 Bft)
08.08.2018 10:37 23,3 °C 65 % 1013,0 hPa 0,0 mm 6,1 km/h (2 Bft) NW 311 ° 1 min 0,000 mm 4,6 UV-I 663 W/m² 16,3 °C 23,3 °C 11,3 km/h (2 Bft)
08.08.2018 10:38 23,3 °C 64 % 1013,0 hPa 0,0 mm 6,0 km/h (2 Bft) NW 316 ° 1 min 0,000 mm 4,6 UV-I 663 W/m² 16,1 °C 23,3 °C 9,7 km/h (2 Bft)
08.08.2018 10:39 23,3 °C 67 % 1012,9 hPa 0,0 mm 4,6 km/h (1 Bft) N-NW 327 ° 1 min 0,000 mm 4,6 UV-I 663 W/m² 16,8 °C 23,3 °C 6,4 km/h (2 Bft)
08.08.2018 10:40 23,4 °C 66 % 1013,0 hPa 0,0 mm 5,1 km/h (1 Bft) NW 307 ° 1 min 0,000 mm 4,7 UV-I 663 W/m² 16,7 °C 23,4 °C 6,4 km/h (2 Bft)
08.08.2018 10:41 23,6 °C 65 % 1013,0 hPa 0,0 mm 8,0 km/h (2 Bft) W-NW 303 ° 1 min 0,000 mm 4,7 UV-I 668 W/m² 16,6 °C 23,6 °C 12,9 km/h (3 Bft)
08.08.2018 10:42 23,6 °C 64 % 1012,9 hPa 0,0 mm 9,6 km/h (2 Bft) NW 323 ° 1 min 0,000 mm 4,7 UV-I 671 W/m² 16,4 °C 23,6 °C 12,9 km/h (3 Bft)
08.08.2018 10:43 23,7 °C 67 % 1012,9 hPa 0,0 mm 9,1 km/h (2 Bft) NW 321 ° 1 min 0,000 mm 4,7 UV-I 671 W/m² 17,2 °C 23,7 °C 17,7 km/h (3 Bft)
08.08.2018 10:44 23,7 °C 64 % 1012,9 hPa 0,0 mm 6,1 km/h (2 Bft) N-NW 333 ° 1 min 0,000 mm 4,7 UV-I 670 W/m² 16,5 °C 23,7 °C 11,3 km/h (2 Bft)
08.08.2018 10:45 23,8 °C 64 % 1012,9 hPa 0,0 mm 8,3 km/h (2 Bft) NW 315 ° 1 min 0,000 mm 4,7 UV-I 668 W/m² 16,6 °C 23,8 °C 14,5 km/h (3 Bft)
08.08.2018 10:46 23,8 °C 65 % 1013,0 hPa 0,0 mm 6,3 km/h (2 Bft) NW 305 ° 1 min 0,000 mm 4,8 UV-I 675 W/m² 16,8 °C 23,8 °C 9,7 km/h (2 Bft)
08.08.2018 10:47 23,7 °C 64 % 1013,0 hPa 0,0 mm 6,7 km/h (2 Bft) N-NW 329 ° 1 min 0,000 mm 4,8 UV-I 670 W/m² 16,5 °C 23,7 °C 9,7 km/h (2 Bft)
08.08.2018 10:48 23,8 °C 66 % 1012,9 hPa 0,0 mm 4,8 km/h (1 Bft) W-NW 302 ° 1 min 0,000 mm 4,8 UV-I 661 W/m² 17,1 °C 23,8 °C 9,7 km/h (2 Bft)
08.08.2018 10:49 23,9 °C 67 % 1012,9 hPa 0,0 mm 7,1 km/h (2 Bft) W-NW 286 ° 1 min 0,000 mm 4,8 UV-I 673 W/m² 17,4 °C 23,9 °C 11,3 km/h (2 Bft)
08.08.2018 10:50 24,0 °C 65 % 1012,9 hPa 0,0 mm 5,2 km/h (1 Bft) W 265 ° 1 min 0,000 mm 4,8 UV-I 689 W/m² 17,0 °C 24,0 °C 9,7 km/h (2 Bft)
08.08.2018 10:51 24,1 °C 62 % 1012,9 hPa 0,0 mm 7,6 km/h (2 Bft) W 265 ° 1 min 0,000 mm 4,9 UV-I 696 W/m² 16,4 °C 24,1 °C 14,5 km/h (3 Bft)
08.08.2018 10:52 24,0 °C 65 % 1013,0 hPa 0,0 mm 2,9 km/h (1 Bft) W 275 ° 1 min 0,000 mm 4,8 UV-I 649 W/m² 17,0 °C 24,0 °C 3,2 km/h (1 Bft)
08.08.2018 10:53 24,1 °C 64 % 1012,9 hPa 0,0 mm 3,8 km/h (1 Bft) N-NW 329 ° 1 min 0,000 mm 4,9 UV-I 691 W/m² 16,9 °C 24,1 °C 6,4 km/h (2 Bft)
08.08.2018 10:54 24,1 °C 63 % 1012,9 hPa 0,0 mm 2,6 km/h (1 Bft) NW 306 ° 1 min 0,000 mm 4,9 UV-I 682 W/m² 16,6 °C 24,1 °C 4,8 km/h (1 Bft)
08.08.2018 10:55 24,1 °C 62 % 1012,9 hPa 0,0 mm 4,9 km/h (1 Bft) NW 316 ° 1 min 0,000 mm 4,9 UV-I 684 W/m² 16,4 °C 24,1 °C 9,7 km/h (2 Bft)
08.08.2018 10:56 24,1 °C 64 % 1012,9 hPa 0,0 mm 3,8 km/h (1 Bft) NW 317 ° 1 min 0,000 mm 5,0 UV-I 686 W/m² 16,9 °C 24,1 °C 4,8 km/h (1 Bft)
08.08.2018 10:57 24,2 °C 63 % 1012,9 hPa 0,0 mm 4,2 km/h (1 Bft) N-NW 329 ° 1 min 0,000 mm 5,0 UV-I 687 W/m² 16,7 °C 24,2 °C 6,4 km/h (2 Bft)
08.08.2018 10:58 24,2 °C 64 % 1012,9 hPa 0,0 mm 4,8 km/h (1 Bft) N-NW 327 ° 1 min 0,000 mm 5,0 UV-I 693 W/m² 16,9 °C 24,2 °C 6,4 km/h (2 Bft)
08.08.2018 10:59 24,2 °C 63 % 1012,9 hPa 0,0 mm 5,1 km/h (1 Bft) N 10 ° 1 min 0,000 mm 5,0 UV-I 691 W/m² 16,7 °C 24,2 °C 9,7 km/h (2 Bft)
08.08.2018 11:00 24,3 °C 63 % 1012,9 hPa 0,0 mm 8,6 km/h (2 Bft) N 355 ° 1 min 0,000 mm 5,0 UV-I 696 W/m² 16,8 °C 24,3 °C 14,5 km/h (3 Bft)
08.08.2018 11:01 24,3 °C 63 % 1012,9 hPa 0,0 mm 9,0 km/h (2 Bft) W-NW 297 ° 1 min 0,432 mm 5,1 UV-I 693 W/m² 16,8 °C 24,3 °C 16,1 km/h (3 Bft)
08.08.2018 11:02 24,4 °C 63 % 1012,9 hPa 0,0 mm 10,1 km/h (2 Bft) N-NW 327 ° 1 min 0,000 mm 5,1 UV-I 696 W/m² 16,9 °C 24,4 °C 14,5 km/h (3 Bft)
08.08.2018 11:03 24,4 °C 64 % 1012,9 hPa 0,0 mm 7,4 km/h (2 Bft) NW 319 ° 1 min 0,000 mm 5,0 UV-I 689 W/m² 17,1 °C 24,4 °C 12,9 km/h (3 Bft)
08.08.2018 11:04 24,4 °C 61 % 1012,9 hPa 0,0 mm 6,7 km/h (2 Bft) NW 304 ° 1 min 0,000 mm 5,0 UV-I 696 W/m² 16,4 °C 24,4 °C 9,7 km/h (2 Bft)
08.08.2018 11:05 24,3 °C 62 % 1012,8 hPa 0,0 mm 3,4 km/h (1 Bft) W-SW 253 ° 1 min 0,000 mm 5,1 UV-I 707 W/m² 16,5 °C 24,3 °C 4,8 km/h (1 Bft)
08.08.2018 11:06 24,2 °C 61 % 1012,8 hPa 0,0 mm 2,1 km/h (1 Bft) NW 314 ° 1 min 0,000 mm 5,1 UV-I 700 W/m² 16,2 °C 24,2 °C 4,8 km/h (1 Bft)
08.08.2018 11:07 24,2 °C 62 % 1012,8 hPa 0,0 mm 6,6 km/h (2 Bft) W-NW 294 ° 1 min 0,000 mm 5,2 UV-I 719 W/m² 16,4 °C 24,2 °C 11,3 km/h (2 Bft)
08.08.2018 11:08 24,1 °C 61 % 1012,8 hPa 0,0 mm 4,5 km/h (1 Bft) W-NW 290 ° 1 min 0,000 mm 5,2 UV-I 710 W/m² 16,1 °C 24,1 °C 8,0 km/h (2 Bft)
08.08.2018 11:09 24,1 °C 63 % 1012,8 hPa 0,0 mm 1,3 km/h (1 Bft) W-NW 290 ° 1 min 0,000 mm 5,2 UV-I 710 W/m² 16,6 °C 24,1 °C 3,2 km/h (1 Bft)
08.08.2018 11:10 24,2 °C 63 % 1012,8 hPa 0,0 mm 3,9 km/h (1 Bft) N 355 ° 1 min 0,000 mm 5,2 UV-I 714 W/m² 16,7 °C 24,2 °C 8,0 km/h (2 Bft)
08.08.2018 11:11 24,2 °C 64 % 1012,8 hPa 0,0 mm 7,4 km/h (2 Bft) NW 315 ° 1 min 0,000 mm 5,2 UV-I 714 W/m² 16,9 °C 24,2 °C 12,9 km/h (3 Bft)
08.08.2018 11:12 24,4 °C 64 % 1012,8 hPa 0,0 mm 4,4 km/h (1 Bft) NW 325 ° 1 min 0,000 mm 5,3 UV-I 728 W/m² 17,1 °C 24,4 °C 8,0 km/h (2 Bft)
08.08.2018 11:13 24,6 °C 64 % 1012,8 hPa 0,0 mm 5,1 km/h (1 Bft) W 269 ° 1 min 0,000 mm 5,3 UV-I 717 W/m² 17,3 °C 24,6 °C 8,0 km/h (2 Bft)
08.08.2018 11:14 24,4 °C 60 % 1012,8 hPa 0,0 mm 4,4 km/h (1 Bft) NW 307 ° 1 min 0,000 mm 5,4 UV-I 729 W/m² 16,1 °C 24,4 °C 9,7 km/h (2 Bft)
08.08.2018 11:15 24,4 °C 60 % 1012,8 hPa 0,0 mm 4,4 km/h (1 Bft) W-NW 284 ° 1 min 0,000 mm 5,4 UV-I 738 W/m² 16,1 °C 24,4 °C 9,7 km/h (2 Bft)
08.08.2018 11:16 24,3 °C 60 % 1012,8 hPa 0,0 mm 6,0 km/h (2 Bft) W-NW 284 ° 1 min 0,000 mm 5,5 UV-I 754 W/m² 16,0 °C 24,3 °C 11,3 km/h (2 Bft)
08.08.2018 11:17 24,2 °C 61 % 1012,8 hPa 0,0 mm 5,7 km/h (1 Bft) W-NW 283 ° 1 min 0,000 mm 5,6 UV-I 765 W/m² 16,2 °C 24,2 °C 9,7 km/h (2 Bft)
08.08.2018 11:18 24,2 °C 62 % 1012,8 hPa 0,0 mm 3,8 km/h (1 Bft) W-SW 255 ° 1 min 0,000 mm 5,6 UV-I 777 W/m² 16,4 °C 24,2 °C 6,4 km/h (2 Bft)
08.08.2018 11:19 24,2 °C 60 % 1012,8 hPa 0,0 mm 3,4 km/h (1 Bft) W-SW 246 ° 1 min 0,000 mm 5,7 UV-I 786 W/m² 15,9 °C 24,2 °C 4,8 km/h (1 Bft)
08.08.2018 11:20 24,3 °C 60 % 1012,8 hPa 0,0 mm 2,0 km/h (1 Bft) W-SW 246 ° 1 min 0,000 mm 5,7 UV-I 796 W/m² 16,0 °C 24,3 °C 3,2 km/h (1 Bft)
08.08.2018 11:21 24,3 °C 64 % 1012,8 hPa 0,0 mm 3,0 km/h (1 Bft) W-NW 298 ° 1 min 0,000 mm 5,8 UV-I 798 W/m² 17,0 °C 24,3 °C 11,3 km/h (2 Bft)
08.08.2018 11:22 24,3 °C 61 % 1012,8 hPa 0,0 mm 4,4 km/h (1 Bft) W-NW 285 ° 1 min 0,000 mm 5,8 UV-I 793 W/m² 16,3 °C 24,3 °C 8,0 km/h (2 Bft)
08.08.2018 11:23 24,3 °C 60 % 1012,7 hPa 0,0 mm 4,8 km/h (1 Bft) W 267 ° 1 min 0,000 mm 5,8 UV-I 789 W/m² 16,0 °C 24,3 °C 6,4 km/h (2 Bft)
08.08.2018 11:24 24,3 °C 60 % 1012,7 hPa 0,0 mm 3,2 km/h (1 Bft) W-NW 297 ° 1 min 0,000 mm 5,8 UV-I 786 W/m² 16,0 °C 24,3 °C 6,4 km/h (2 Bft)
08.08.2018 11:25 24,4 °C 63 % 1012,8 hPa 0,0 mm 3,6 km/h (1 Bft) N-NO 14 ° 1 min 0,000 mm 5,8 UV-I 784 W/m² 16,9 °C 24,4 °C 6,4 km/h (2 Bft)
08.08.2018 11:26 24,6 °C 60 % 1012,7 hPa 0,0 mm 3,7 km/h (1 Bft) N-NO 15 ° 1 min 0,000 mm 5,8 UV-I 789 W/m² 16,3 °C 24,6 °C 4,8 km/h (1 Bft)
08.08.2018 11:27 24,6 °C 61 % 1012,7 hPa 0,0 mm 6,1 km/h (2 Bft) N-NW 327 ° 1 min 0,000 mm 5,8 UV-I 795 W/m² 16,6 °C 24,6 °C 8,0 km/h (2 Bft)
08.08.2018 11:28 24,7 °C 60 % 1012,7 hPa 0,0 mm 7,1 km/h (2 Bft) NW 319 ° 1 min 0,000 mm 5,9 UV-I 828 W/m² 16,4 °C 24,7 °C 12,9 km/h (3 Bft)
08.08.2018 11:29 24,6 °C 59 % 1012,7 hPa 0,0 mm 0,9 km/h (0 Bft) N-NO 17 ° 1 min 0,000 mm 6,1 UV-I 840 W/m² 16,0 °C 24,6 °C 1,6 km/h (1 Bft)
08.08.2018 11:30 24,6 °C 60 % 1012,7 hPa 0,0 mm 5,5 km/h (1 Bft) N 11 ° 1 min 0,000 mm 6,1 UV-I 849 W/m² 16,3 °C 24,6 °C 9,7 km/h (2 Bft)
08.08.2018 11:31 24,7 °C 63 % 1012,6 hPa 0,0 mm 6,1 km/h (2 Bft) N 355 ° 1 min 0,000 mm 6,1 UV-I 856 W/m² 17,2 °C 24,7 °C 8,0 km/h (2 Bft)
08.08.2018 11:32 24,8 °C 59 % 1012,6 hPa 0,0 mm 4,8 km/h (1 Bft) N-NW 342 ° 1 min 0,000 mm 6,2 UV-I 877 W/m² 16,2 °C 24,8 °C 8,0 km/h (2 Bft)
08.08.2018 11:33 24,9 °C 63 % 1012,6 hPa 0,0 mm 3,0 km/h (1 Bft) N-NW 334 ° 1 min 0,000 mm 5,1 UV-I 861 W/m² 17,4 °C 24,9 °C 6,4 km/h (2 Bft)
08.08.2018 11:34 25,1 °C 60 % 1012,6 hPa 0,0 mm 5,5 km/h (1 Bft) N-NW 338 ° 1 min 0,000 mm 5,1 UV-I 861 W/m² 16,8 °C 25,1 °C 8,0 km/h (2 Bft)
08.08.2018 11:35 24,9 °C 59 % 1012,6 hPa 0,0 mm 6,2 km/h (2 Bft) W-NW 293 ° 1 min 0,000 mm 3,9 UV-I 861 W/m² 16,3 °C 24,9 °C 11,3 km/h (2 Bft)
08.08.2018 11:36 24,8 °C 57 % 1012,6 hPa 0,0 mm 2,0 km/h (1 Bft) W-NW 301 ° 1 min 0,000 mm 4,0 UV-I 861 W/m² 15,7 °C 24,8 °C 4,8 km/h (1 Bft)
08.08.2018 11:37 24,7 °C 62 % 1012,7 hPa 0,0 mm 5,5 km/h (1 Bft) NW 304 ° 0 min 0,000 mm 3,5 UV-I 366 W/m² 16,9 °C 24,7 °C 11,3 km/h (2 Bft)
08.08.2018 11:38 24,7 °C 63 % 1012,7 hPa 0,0 mm 9,2 km/h (2 Bft) N-NW 335 ° 0 min 0,000 mm 3,4 UV-I 341 W/m² 17,2 °C 24,7 °C 12,9 km/h (3 Bft)
08.08.2018 11:39 24,7 °C 60 % 1012,7 hPa 0,0 mm 4,5 km/h (1 Bft) NW 320 ° 0 min 0,000 mm 3,4 UV-I 352 W/m² 16,4 °C 24,7 °C 8,0 km/h (2 Bft)
08.08.2018 11:40 24,5 °C 60 % 1012,7 hPa 0,0 mm 2,7 km/h (1 Bft) W-NW 295 ° 0 min 0,000 mm 3,4 UV-I 367 W/m² 16,2 °C 24,5 °C 4,8 km/h (1 Bft)
08.08.2018 11:41 24,4 °C 61 % 1012,8 hPa 0,0 mm 1,9 km/h (1 Bft) W-NW 298 ° 0 min 0,000 mm 3,7 UV-I 385 W/m² 16,4 °C 24,4 °C 4,8 km/h (1 Bft)
08.08.2018 11:42 24,3 °C 61 % 1012,7 hPa 0,0 mm 3,1 km/h (1 Bft) W 267 ° 0 min 0,000 mm 3,9 UV-I 422 W/m² 16,3 °C 24,3 °C 6,4 km/h (2 Bft)
08.08.2018 11:43 24,3 °C 62 % 1012,7 hPa 0,0 mm 6,3 km/h (2 Bft) NW 321 ° 0 min 0,000 mm 4,0 UV-I 457 W/m² 16,5 °C 24,3 °C 9,7 km/h (2 Bft)
08.08.2018 11:44 24,3 °C 61 % 1012,8 hPa 0,0 mm 3,9 km/h (1 Bft) NW 306 ° 0 min 0,000 mm 3,9 UV-I 432 W/m² 16,3 °C 24,3 °C 8,0 km/h (2 Bft)
08.08.2018 11:45 24,3 °C 63 % 1012,8 hPa 0,0 mm 2,4 km/h (1 Bft) NW 307 ° 0 min 0,000 mm 3,9 UV-I 432 W/m² 16,8 °C 24,3 °C 6,4 km/h (2 Bft)
08.08.2018 11:46 24,3 °C 62 % 1012,8 hPa 0,0 mm 2,3 km/h (1 Bft) N-NW 343 ° 0 min 0,000 mm 4,6 UV-I 490 W/m² 16,5 °C 24,3 °C 4,8 km/h (1 Bft)
08.08.2018 11:47 24,4 °C 63 % 1012,7 hPa 0,0 mm 4,6 km/h (1 Bft) W-SW 257 ° 0 min 0,000 mm 4,6 UV-I 536 W/m² 16,9 °C 24,4 °C 6,4 km/h (2 Bft)
08.08.2018 11:48 24,4 °C 60 % 1012,8 hPa 0,0 mm 5,0 km/h (1 Bft) W-NW 286 ° 0 min 0,000 mm 4,1 UV-I 478 W/m² 16,1 °C 24,4 °C 6,4 km/h (2 Bft)
08.08.2018 11:49 24,3 °C 60 % 1012,8 hPa 0,0 mm 3,5 km/h (1 Bft) W-NW 290 ° 0 min 0,000 mm 4,1 UV-I 448 W/m² 16,0 °C 24,3 °C 4,8 km/h (1 Bft)
08.08.2018 11:50 24,3 °C 59 % 1012,7 hPa 0,0 mm 0,3 km/h (0 Bft) W-NW 290 ° 0 min 0,000 mm 4,8 UV-I 534 W/m² 15,8 °C 24,3 °C 1,6 km/h (1 Bft)
08.08.2018 11:51 24,3 °C 62 % 1012,8 hPa 0,0 mm 0,0 km/h (0 Bft) W-NW 290 ° 0 min 0,000 mm 4,1 UV-I 461 W/m² 16,5 °C 24,3 °C 0,0 km/h (0 Bft)
08.08.2018 11:52 24,5 °C 66 % 1012,7 hPa 0,0 mm 1,3 km/h (1 Bft) W-NW 293 ° 0 min 0,000 mm 3,4 UV-I 373 W/m² 17,7 °C 24,5 °C 4,8 km/h (1 Bft)
08.08.2018 11:53 24,6 °C 65 % 1012,8 hPa 0,0 mm 3,0 km/h (1 Bft) W-NW 293 ° 0 min 0,000 mm 3,4 UV-I 367 W/m² 17,6 °C 24,6 °C 4,8 km/h (1 Bft)
08.08.2018 11:54 24,6 °C 64 % 1012,7 hPa 0,0 mm 3,6 km/h (1 Bft) NW 316 ° 0 min 0,000 mm 3,3 UV-I 371 W/m² 17,3 °C 24,6 °C 4,8 km/h (1 Bft)
08.08.2018 11:55 24,6 °C 59 % 1012,8 hPa 0,0 mm 2,4 km/h (1 Bft) W-NW 303 ° 0 min 0,000 mm 3,5 UV-I 432 W/m² 16,0 °C 24,6 °C 4,8 km/h (1 Bft)
08.08.2018 11:56 24,6 °C 60 % 1012,8 hPa 0,0 mm 1,0 km/h (0 Bft) NW 313 ° 0 min 0,000 mm 2,9 UV-I 432 W/m² 16,3 °C 24,6 °C 4,8 km/h (1 Bft)
08.08.2018 11:57 24,5 °C 63 % 1012,8 hPa 0,0 mm 3,1 km/h (1 Bft) NW 314 ° 0 min 0,000 mm 2,7 UV-I 272 W/m² 17,0 °C 24,5 °C 4,8 km/h (1 Bft)
08.08.2018 11:58 24,4 °C 62 % 1012,8 hPa 0,0 mm 6,6 km/h (2 Bft) NW 304 ° 0 min 0,000 mm 2,4 UV-I 255 W/m² 16,6 °C 24,4 °C 12,9 km/h (3 Bft)
08.08.2018 11:59 24,3 °C 61 % 1012,8 hPa 0,0 mm 5,4 km/h (1 Bft) W-NW 298 ° 0 min 0,000 mm 2,2 UV-I 239 W/m² 16,3 °C 24,3 °C 9,7 km/h (2 Bft)
08.08.2018 12:00 24,3 °C 60 % 1012,8 hPa 0,0 mm 5,6 km/h (1 Bft) NW 307 ° 0 min 0,406 mm 2,2 UV-I 227 W/m² 16,0 °C 24,3 °C 8,0 km/h (2 Bft)
08.08.2018 12:01 24,2 °C 61 % 1012,8 hPa 0,0 mm 6,5 km/h (2 Bft) N-NW 346 ° 0 min 0,000 mm 2,1 UV-I 220 W/m² 16,2 °C 24,2 °C 9,7 km/h (2 Bft)
08.08.2018 12:02 24,2 °C 60 % 1012,8 hPa 0,0 mm 0,4 km/h (0 Bft) N-NW 346 ° 0 min 0,000 mm 2,1 UV-I 214 W/m² 15,9 °C 24,2 °C 1,6 km/h (1 Bft)
08.08.2018 12:03 24,1 °C 62 % 1012,8 hPa 0,0 mm 2,6 km/h (1 Bft) NW 317 ° 0 min 0,000 mm 1,9 UV-I 207 W/m² 16,4 °C 24,1 °C 3,2 km/h (1 Bft)
08.08.2018 12:04 24,1 °C 61 % 1012,8 hPa 0,0 mm 2,2 km/h (1 Bft) N-NW 345 ° 0 min 0,000 mm 1,9 UV-I 211 W/m² 16,1 °C 24,1 °C 3,2 km/h (1 Bft)
08.08.2018 12:05 23,9 °C 61 % 1012,8 hPa 0,0 mm 1,8 km/h (1 Bft) N-NW 331 ° 0 min 0,000 mm 1,8 UV-I 214 W/m² 15,9 °C 23,9 °C 4,8 km/h (1 Bft)
08.08.2018 12:06 24,0 °C 63 % 1012,8 hPa 0,0 mm 0,6 km/h (0 Bft) N-NW 331 ° 0 min 0,000 mm 1,8 UV-I 200 W/m² 16,5 °C 24,0 °C 1,6 km/h (1 Bft)
08.08.2018 12:07 23,9 °C 61 % 1012,8 hPa 0,0 mm 1,0 km/h (0 Bft) N-NW 331 ° 0 min 0,000 mm 1,7 UV-I 193 W/m² 15,9 °C 23,9 °C 1,6 km/h (1 Bft)
08.08.2018 12:08 23,9 °C 62 % 1012,8 hPa 0,0 mm 1,6 km/h (1 Bft) N-NW 331 ° 0 min 0,000 mm 1,7 UV-I 190 W/m² 16,2 °C 23,9 °C 3,2 km/h (1 Bft)
08.08.2018 12:09 23,9 °C 61 % 1012,8 hPa 0,0 mm 1,5 km/h (1 Bft) NW 325 ° 0 min 0,000 mm 1,7 UV-I 192 W/m² 15,9 °C 23,9 °C 4,8 km/h (1 Bft)
08.08.2018 12:10 23,9 °C 61 % 1012,8 hPa 0,0 mm 2,5 km/h (1 Bft) N-NW 337 ° 0 min 0,000 mm 1,7 UV-I 192 W/m² 15,9 °C 23,9 °C 6,4 km/h (2 Bft)
08.08.2018 12:11 23,9 °C 62 % 1012,8 hPa 0,0 mm 4,7 km/h (1 Bft) NW 326 ° 0 min 0,000 mm 1,7 UV-I 190 W/m² 16,2 °C 23,9 °C 6,4 km/h (2 Bft)
08.08.2018 12:12 23,9 °C 62 % 1012,9 hPa 0,0 mm 1,1 km/h (1 Bft) NW 326 ° 0 min 0,000 mm 1,7 UV-I 195 W/m² 16,2 °C 23,9 °C 3,2 km/h (1 Bft)
08.08.2018 12:13 23,8 °C 62 % 1012,9 hPa 0,0 mm 2,5 km/h (1 Bft) W-NW 301 ° 0 min 0,000 mm 1,8 UV-I 204 W/m² 16,1 °C 23,8 °C 4,8 km/h (1 Bft)
08.08.2018 12:14 23,8 °C 64 % 1012,8 hPa 0,0 mm 2,2 km/h (1 Bft) NW 319 ° 0 min 0,000 mm 1,9 UV-I 218 W/m² 16,6 °C 23,8 °C 4,8 km/h (1 Bft)
08.08.2018 12:15 23,8 °C 63 % 1012,9 hPa 0,0 mm 3,4 km/h (1 Bft) W-NW 294 ° 0 min 0,000 mm 2,1 UV-I 281 W/m² 16,3 °C 23,8 °C 6,4 km/h (2 Bft)
08.08.2018 12:16 23,8 °C 63 % 1012,9 hPa 0,0 mm 1,4 km/h (1 Bft) W-NW 294 ° 0 min 0,000 mm 4,3 UV-I 281 W/m² 16,3 °C 23,8 °C 3,2 km/h (1 Bft)
08.08.2018 12:17 23,9 °C 63 % 1012,8 hPa 0,0 mm 0,3 km/h (0 Bft) W-NW 294 ° 0 min 0,000 mm 2,6 UV-I 281 W/m² 16,4 °C 23,9 °C 1,6 km/h (1 Bft)
08.08.2018 12:18 23,9 °C 63 % 1012,8 hPa 0,0 mm 1,7 km/h (1 Bft) W-NW 300 ° 0 min 0,000 mm 2,7 UV-I 288 W/m² 16,4 °C 23,9 °C 4,8 km/h (1 Bft)
08.08.2018 12:19 24,0 °C 64 % 1012,8 hPa 0,0 mm 6,0 km/h (2 Bft) NW 306 ° 0 min 0,000 mm 2,8 UV-I 294 W/m² 16,8 °C 24,0 °C 8,0 km/h (2 Bft)
08.08.2018 12:20 24,0 °C 61 % 1012,8 hPa 0,0 mm 3,8 km/h (1 Bft) NW 321 ° 0 min 0,000 mm 3,1 UV-I 320 W/m² 16,0 °C 24,0 °C 6,4 km/h (2 Bft)
08.08.2018 12:21 24,1 °C 63 % 1012,8 hPa 0,0 mm 4,7 km/h (1 Bft) NW 304 ° 0 min 0,000 mm 4,5 UV-I 320 W/m² 16,6 °C 24,1 °C 6,4 km/h (2 Bft)
08.08.2018 12:22 24,3 °C 62 % 1012,8 hPa 0,0 mm 3,1 km/h (1 Bft) NW 318 ° 1 min 0,000 mm 5,7 UV-I 747 W/m² 16,5 °C 24,3 °C 6,4 km/h (2 Bft)
08.08.2018 12:23 24,4 °C 63 % 1012,8 hPa 0,0 mm 3,8 km/h (1 Bft) NW 317 ° 1 min 0,000 mm 5,9 UV-I 747 W/m² 16,9 °C 24,4 °C 6,4 km/h (2 Bft)
08.08.2018 12:24 24,6 °C 64 % 1012,8 hPa 0,0 mm 0,0 km/h (0 Bft) NW 317 ° 1 min 0,000 mm 3,6 UV-I 747 W/m² 17,3 °C 24,6 °C 0,0 km/h (0 Bft)
08.08.2018 12:25 24,6 °C 60 % 1012,8 hPa 0,0 mm 1,2 km/h (1 Bft) NW 317 ° 0 min 0,000 mm 3,1 UV-I 301 W/m² 16,3 °C 24,6 °C 3,2 km/h (1 Bft)
08.08.2018 12:26 24,6 °C 61 % 1012,8 hPa 0,0 mm 3,3 km/h (1 Bft) NW 317 ° 0 min 0,000 mm 2,9 UV-I 251 W/m² 16,6 °C 24,6 °C 4,8 km/h (1 Bft)
08.08.2018 12:27 24,6 °C 61 % 1012,8 hPa 0,0 mm 3,9 km/h (1 Bft) NW 322 ° 0 min 0,000 mm 2,8 UV-I 237 W/m² 16,6 °C 24,6 °C 6,4 km/h (2 Bft)
08.08.2018 12:28 24,4 °C 58 % 1012,8 hPa 0,0 mm 1,2 km/h (1 Bft) NW 319 ° 0 min 0,000 mm 2,5 UV-I 223 W/m² 15,6 °C 24,4 °C 3,2 km/h (1 Bft)
08.08.2018 12:29 24,3 °C 58 % 1012,8 hPa 0,0 mm 0,6 km/h (0 Bft) NW 319 ° 0 min 0,000 mm 2,4 UV-I 214 W/m² 15,5 °C 24,3 °C 1,6 km/h (1 Bft)
08.08.2018 12:30 24,2 °C 59 % 1012,8 hPa 0,0 mm 0,2 km/h (0 Bft) NW 320 ° 0 min 0,000 mm 2,3 UV-I 207 W/m² 15,7 °C 24,2 °C 1,6 km/h (1 Bft)
08.08.2018 12:31 24,2 °C 59 % 1012,8 hPa 0,0 mm 0,3 km/h (0 Bft) NW 319 ° 0 min 0,000 mm 2,3 UV-I 202 W/m² 15,7 °C 24,2 °C 1,6 km/h (1 Bft)
08.08.2018 12:32 24,1 °C 59 % 1012,8 hPa 0,0 mm 1,2 km/h (1 Bft) NW 319 ° 0 min 0,000 mm 2,3 UV-I 202 W/m² 15,6 °C 24,1 °C 1,6 km/h (1 Bft)
08.08.2018 12:33 24,0 °C 60 % 1012,8 hPa 0,0 mm 0,6 km/h (0 Bft) NW 319 ° 0 min 0,000 mm 2,2 UV-I 199 W/m² 15,7 °C 24,0 °C 1,6 km/h (1 Bft)
08.08.2018 12:34 23,9 °C 59 % 1012,8 hPa 0,0 mm 0,0 km/h (0 Bft) NW 319 ° 0 min 0,000 mm 2,3 UV-I 199 W/m² 15,4 °C 23,9 °C 0,0 km/h (0 Bft)
08.08.2018 12:35 23,9 °C 61 % 1012,8 hPa 0,0 mm 0,1 km/h (0 Bft) NW 319 ° 0 min 0,000 mm 2,3 UV-I 206 W/m² 15,9 °C 23,9 °C 1,6 km/h (1 Bft)
08.08.2018 12:36 23,8 °C 63 % 1012,8 hPa 0,0 mm 0,0 km/h (0 Bft) NW 319 ° 0 min 0,000 mm 2,5 UV-I 218 W/m² 16,3 °C 23,8 °C 0,0 km/h (0 Bft)
08.08.2018 12:37 23,8 °C 63 % 1012,8 hPa 0,0 mm 0,0 km/h (0 Bft) NW 320 ° 0 min 0,000 mm 2,7 UV-I 236 W/m² 16,3 °C 23,8 °C 0,0 km/h (0 Bft)
08.08.2018 12:38 23,8 °C 65 % 1012,7 hPa 0,0 mm 0,0 km/h (0 Bft) NW 319 ° 0 min 0,000 mm 2,9 UV-I 301 W/m² 16,8 °C 23,8 °C 0,0 km/h (0 Bft)
08.08.2018 12:39 23,8 °C 63 % 1012,7 hPa 0,0 mm 0,0 km/h (0 Bft) NW 319 ° 0 min 0,000 mm 4,9 UV-I 301 W/m² 16,3 °C 23,8 °C 0,0 km/h (0 Bft)
08.08.2018 12:40 23,9 °C 65 % 1012,7 hPa 0,0 mm 0,0 km/h (0 Bft) NW 320 ° 0 min 0,000 mm 4,2 UV-I 418 W/m² 16,9 °C 23,9 °C 0,0 km/h (0 Bft)
08.08.2018 12:41 23,9 °C 64 % 1012,7 hPa 0,0 mm 0,0 km/h (0 Bft) NW 320 ° 0 min 0,000 mm 7,3 UV-I 480 W/m² 16,7 °C 23,9 °C 0,0 km/h (0 Bft)
08.08.2018 12:42 24,1 °C 62 % 1012,7 hPa 0,0 mm 0,4 km/h (0 Bft) NW 319 ° 0 min 0,000 mm 6,4 UV-I 480 W/m² 16,4 °C 24,1 °C 3,2 km/h (1 Bft)
08.08.2018 12:43 24,3 °C 65 % 1012,7 hPa 0,0 mm 0,6 km/h (0 Bft) NW 319 ° 0 min 0,000 mm 5,5 UV-I 480 W/m² 17,3 °C 24,3 °C 3,2 km/h (1 Bft)
08.08.2018 12:44 24,5 °C 62 % 1012,7 hPa 0,0 mm 3,1 km/h (1 Bft) NW 319 ° 0 min 0,000 mm 5,0 UV-I 480 W/m² 16,7 °C 24,5 °C 4,8 km/h (1 Bft)
08.08.2018 12:45 24,6 °C 58 % 1012,7 hPa 0,0 mm 0,9 km/h (0 Bft) NW 319 ° 0 min 0,000 mm 4,2 UV-I 480 W/m² 15,8 °C 24,6 °C 3,2 km/h (1 Bft)
08.08.2018 12:46 24,6 °C 58 % 1012,7 hPa 0,0 mm 0,3 km/h (0 Bft) NW 319 ° 0 min 0,000 mm 4,2 UV-I 381 W/m² 15,8 °C 24,6 °C 1,6 km/h (1 Bft)
08.08.2018 12:47 24,6 °C 62 % 1012,7 hPa 0,0 mm 2,7 km/h (1 Bft) NW 318 ° 0 min 0,000 mm 4,9 UV-I 381 W/m² 16,8 °C 24,6 °C 4,8 km/h (1 Bft)
08.08.2018 12:48 24,5 °C 58 % 1012,8 hPa 0,0 mm 1,1 km/h (1 Bft) NW 318 ° 0 min 0,000 mm 5,1 UV-I 381 W/m² 15,7 °C 24,5 °C 3,2 km/h (1 Bft)
08.08.2018 12:49 24,6 °C 59 % 1012,8 hPa 0,0 mm 3,1 km/h (1 Bft) N-NW 327 ° 0 min 0,000 mm 3,7 UV-I 381 W/m² 16,0 °C 24,6 °C 4,8 km/h (1 Bft)
08.08.2018 12:50 24,5 °C 58 % 1012,7 hPa 0,0 mm 2,4 km/h (1 Bft) N-NW 327 ° 0 min 0,000 mm 4,3 UV-I 471 W/m² 15,7 °C 24,5 °C 3,2 km/h (1 Bft)
08.08.2018 12:51 24,6 °C 59 % 1012,8 hPa 0,0 mm 0,9 km/h (0 Bft) N-NW 327 ° 0 min 0,000 mm 4,7 UV-I 454 W/m² 16,0 °C 24,6 °C 1,6 km/h (1 Bft)
08.08.2018 12:52 24,6 °C 62 % 1012,7 hPa 0,0 mm 0,0 km/h (0 Bft) N-NW 327 ° 0 min 0,000 mm 4,4 UV-I 436 W/m² 16,8 °C 24,6 °C 0,0 km/h (0 Bft)
08.08.2018 12:53 24,5 °C 58 % 1012,7 hPa 0,0 mm 0,0 km/h (0 Bft) N-NW 327 ° 0 min 0,000 mm 4,7 UV-I 536 W/m² 15,7 °C 24,5 °C 0,0 km/h (0 Bft)
08.08.2018 12:54 24,4 °C 59 % 1012,7 hPa 0,0 mm 0,0 km/h (0 Bft) N-NW 327 ° 0 min 0,000 mm 5,4 UV-I 515 W/m² 15,9 °C 24,4 °C 0,0 km/h (0 Bft)
08.08.2018 12:55 24,4 °C 58 % 1012,7 hPa 0,0 mm 0,0 km/h (0 Bft) N-NW 327 ° 0 min 0,000 mm 5,3 UV-I 541 W/m² 15,6 °C 24,4 °C 0,0 km/h (0 Bft)
08.08.2018 12:56 24,4 °C 61 % 1012,8 hPa 0,0 mm 0,0 km/h (0 Bft) N-NW 327 ° 0 min 0,000 mm 5,5 UV-I 450 W/m² 16,4 °C 24,4 °C 0,0 km/h (0 Bft)
08.08.2018 12:57 24,5 °C 58 % 1012,7 hPa 0,0 mm 0,0 km/h (0 Bft) N-NW 327 ° 0 min 0,000 mm 3,9 UV-I 396 W/m² 15,7 °C 24,5 °C 0,0 km/h (0 Bft)
08.08.2018 12:58 24,5 °C 59 % 1012,7 hPa 0,0 mm 0,1 km/h (0 Bft) N-NW 327 ° 0 min 0,000 mm 3,3 UV-I 350 W/m² 15,9 °C 24,5 °C 1,6 km/h (1 Bft)
08.08.2018 12:59 24,6 °C 60 % 1012,8 hPa 0,0 mm 0,1 km/h (0 Bft) N-NW 327 ° 0 min 0,000 mm 3,9 UV-I 369 W/m² 16,3 °C 24,6 °C 1,6 km/h (1 Bft)
08.08.2018 13:00 24,6 °C 61 % 1012,7 hPa 0,0 mm 0,1 km/h (0 Bft) N-NW 327 ° 0 min 0,000 mm 4,5 UV-I 455 W/m² 16,6 °C 24,6 °C 1,6 km/h (1 Bft)
08.08.2018 13:01 24,6 °C 63 % 1012,7 hPa 0,0 mm 0,9 km/h (0 Bft) N-NW 327 ° 1 min 0,229 mm 6,2 UV-I 817 W/m² 17,1 °C 24,6 °C 1,6 km/h (1 Bft)
08.08.2018 13:02 24,8 °C 62 % 1012,7 hPa 0,0 mm 0,6 km/h (0 Bft) N-NW 327 ° 1 min 0,000 mm 4,4 UV-I 817 W/m² 17,0 °C 24,8 °C 1,6 km/h (1 Bft)
08.08.2018 13:03 24,8 °C 60 % 1012,6 hPa 0,0 mm 1,2 km/h (1 Bft) N-NW 327 ° 0 min 0,000 mm 4,2 UV-I 399 W/m² 16,5 °C 24,8 °C 3,2 km/h (1 Bft)
08.08.2018 13:04 24,8 °C 59 % 1012,6 hPa 0,0 mm 0,2 km/h (0 Bft) N-NW 327 ° 0 min 0,000 mm 4,2 UV-I 390 W/m² 16,2 °C 24,8 °C 1,6 km/h (1 Bft)
08.08.2018 13:05 24,8 °C 59 % 1012,7 hPa 0,0 mm 2,7 km/h (1 Bft) NO 42 ° 0 min 0,000 mm 4,2 UV-I 394 W/m² 16,2 °C 24,8 °C 4,8 km/h (1 Bft)
08.08.2018 13:06 24,7 °C 59 % 1012,6 hPa 0,0 mm 0,5 km/h (0 Bft) NO 42 ° 0 min 0,000 mm 4,2 UV-I 399 W/m² 16,1 °C 24,7 °C 1,6 km/h (1 Bft)
08.08.2018 13:07 24,7 °C 59 % 1012,6 hPa 0,0 mm 0,0 km/h (0 Bft) NO 42 ° 0 min 0,000 mm 4,3 UV-I 397 W/m² 16,1 °C 24,7 °C 0,0 km/h (0 Bft)
08.08.2018 13:08 24,8 °C 60 % 1012,6 hPa 0,0 mm 0,7 km/h (0 Bft) NO 42 ° 0 min 0,000 mm 4,9 UV-I 475 W/m² 16,5 °C 24,8 °C 3,2 km/h (1 Bft)
08.08.2018 13:09 24,7 °C 60 % 1012,7 hPa 0,0 mm 1,1 km/h (1 Bft) NO 42 ° 0 min 0,000 mm 5,0 UV-I 485 W/m² 16,4 °C 24,7 °C 3,2 km/h (1 Bft)
08.08.2018 13:10 24,8 °C 58 % 1012,7 hPa 0,0 mm 2,4 km/h (1 Bft) NO 42 ° 0 min 0,000 mm 4,7 UV-I 462 W/m² 16,0 °C 24,8 °C 4,8 km/h (1 Bft)
08.08.2018 13:11 24,8 °C 59 % 1012,6 hPa 0,0 mm 1,5 km/h (1 Bft) NO 42 ° 0 min 0,000 mm 4,8 UV-I 445 W/m² 16,2 °C 24,8 °C 3,2 km/h (1 Bft)
08.08.2018 13:12 24,7 °C 60 % 1012,6 hPa 0,0 mm 0,6 km/h (0 Bft) NO 42 ° 0 min 0,000 mm 4,9 UV-I 490 W/m² 16,4 °C 24,7 °C 3,2 km/h (1 Bft)
08.08.2018 13:13 24,7 °C 60 % 1012,6 hPa 0,0 mm 0,2 km/h (0 Bft) NO 42 ° 0 min 0,000 mm 4,8 UV-I 520 W/m² 16,4 °C 24,7 °C 1,6 km/h (1 Bft)
08.08.2018 13:14 24,8 °C 59 % 1012,6 hPa 0,0 mm 0,0 km/h (0 Bft) NO 42 ° 1 min 0,000 mm 5,9 UV-I 650 W/m² 16,2 °C 24,8 °C 0,0 km/h (0 Bft)
08.08.2018 13:15 24,9 °C 64 % 1012,6 hPa 0,0 mm 0,5 km/h (0 Bft) NO 42 ° 1 min 0,000 mm 5,5 UV-I 647 W/m² 17,6 °C 24,9 °C 1,6 km/h (1 Bft)
08.08.2018 13:16 25,1 °C 62 % 1012,6 hPa 0,0 mm 1,5 km/h (1 Bft) NO 42 ° 1 min 0,000 mm 6,8 UV-I 693 W/m² 17,3 °C 25,1 °C 3,2 km/h (1 Bft)
08.08.2018 13:17 25,2 °C 62 % 1012,6 hPa 0,0 mm 0,5 km/h (0 Bft) NO 42 ° 1 min 0,000 mm 4,8 UV-I 693 W/m² 17,4 °C 25,2 °C 1,6 km/h (1 Bft)
08.08.2018 13:18 25,4 °C 63 % 1012,6 hPa 0,0 mm 2,0 km/h (1 Bft) NO 42 ° 0 min 0,000 mm 5,2 UV-I 520 W/m² 17,8 °C 25,4 °C 3,2 km/h (1 Bft)
08.08.2018 13:19 25,4 °C 59 % 1012,6 hPa 0,0 mm 2,5 km/h (1 Bft) N-NO 32 ° 0 min 0,000 mm 5,1 UV-I 555 W/m² 16,8 °C 25,4 °C 3,2 km/h (1 Bft)
08.08.2018 13:20 25,4 °C 59 % 1012,6 hPa 0,0 mm 2,6 km/h (1 Bft) NW 320 ° 0 min 0,000 mm 7,9 UV-I 555 W/m² 16,8 °C 25,4 °C 4,8 km/h (1 Bft)
08.08.2018 13:21 25,4 °C 58 % 1012,6 hPa 0,0 mm 2,0 km/h (1 Bft) N 355 ° 0 min 0,000 mm 5,6 UV-I 555 W/m² 16,5 °C 25,4 °C 3,2 km/h (1 Bft)
08.08.2018 13:22 25,4 °C 58 % 1012,6 hPa 0,0 mm 3,6 km/h (1 Bft) W 273 ° 1 min 0,000 mm 5,4 UV-I 636 W/m² 16,5 °C 25,4 °C 4,8 km/h (1 Bft)
08.08.2018 13:23 25,4 °C 60 % 1012,5 hPa 0,0 mm 2,4 km/h (1 Bft) W 274 ° 0 min 0,000 mm 5,0 UV-I 559 W/m² 17,1 °C 25,4 °C 4,8 km/h (1 Bft)
08.08.2018 13:24 25,5 °C 57 % 1012,5 hPa 0,0 mm 0,7 km/h (0 Bft) W 274 ° 1 min 0,000 mm 5,9 UV-I 624 W/m² 16,3 °C 25,5 °C 1,6 km/h (1 Bft)
08.08.2018 13:25 25,5 °C 59 % 1012,5 hPa 0,0 mm 1,1 km/h (1 Bft) S 181 ° 1 min 0,000 mm 7,5 UV-I 624 W/m² 16,9 °C 25,5 °C 3,2 km/h (1 Bft)
08.08.2018 13:26 25,5 °C 58 % 1012,5 hPa 0,0 mm 1,8 km/h (1 Bft) S 181 ° 1 min 0,000 mm 7,4 UV-I 624 W/m² 16,6 °C 25,5 °C 3,2 km/h (1 Bft)
08.08.2018 13:27 25,6 °C 57 % 1012,5 hPa 0,0 mm 0,1 km/h (0 Bft) S 181 ° 1 min 0,000 mm 7,5 UV-I 624 W/m² 16,4 °C 25,6 °C 1,6 km/h (1 Bft)
08.08.2018 13:28 25,6 °C 56 % 1012,5 hPa 0,0 mm 0,0 km/h (0 Bft) S 180 ° 1 min 0,000 mm 7,5 UV-I 1000 W/m² 16,2 °C 25,6 °C 0,0 km/h (0 Bft)
08.08.2018 13:29 25,7 °C 56 % 1012,5 hPa 0,0 mm 4,5 km/h (1 Bft) O-NO 59 ° 1 min 0,000 mm 7,5 UV-I 986 W/m² 16,2 °C 25,7 °C 8,0 km/h (2 Bft)
08.08.2018 13:30 25,8 °C 57 % 1012,4 hPa 0,0 mm 4,0 km/h (1 Bft) NO 56 ° 1 min 0,000 mm 7,4 UV-I 986 W/m² 16,6 °C 25,8 °C 6,4 km/h (2 Bft)
08.08.2018 13:31 25,8 °C 57 % 1012,4 hPa 0,0 mm 3,9 km/h (1 Bft) NO 45 ° 1 min 0,000 mm 6,7 UV-I 986 W/m² 16,6 °C 25,8 °C 6,4 km/h (2 Bft)
08.08.2018 13:32 25,8 °C 56 % 1012,4 hPa 0,0 mm 4,1 km/h (1 Bft) NO 46 ° 1 min 0,000 mm 7,3 UV-I 986 W/m² 16,3 °C 25,8 °C 6,4 km/h (2 Bft)
08.08.2018 13:33 25,8 °C 57 % 1012,4 hPa 0,0 mm 5,0 km/h (1 Bft) N 10 ° 1 min 0,000 mm 7,2 UV-I 940 W/m² 16,6 °C 25,8 °C 6,4 km/h (2 Bft)
08.08.2018 13:34 25,8 °C 57 % 1012,4 hPa 0,0 mm 4,6 km/h (1 Bft) N-NW 344 ° 1 min 0,000 mm 7,1 UV-I 919 W/m² 16,6 °C 25,8 °C 8,0 km/h (2 Bft)
08.08.2018 13:35 25,8 °C 56 % 1012,3 hPa 0,0 mm 3,5 km/h (1 Bft) N 355 ° 1 min 0,000 mm 6,5 UV-I 884 W/m² 16,3 °C 25,8 °C 6,4 km/h (2 Bft)
08.08.2018 13:36 25,9 °C 55 % 1012,3 hPa 0,0 mm 1,8 km/h (1 Bft) N 355 ° 1 min 0,000 mm 5,3 UV-I 884 W/m² 16,2 °C 25,9 °C 3,2 km/h (1 Bft)
08.08.2018 13:37 25,9 °C 54 % 1012,3 hPa 0,0 mm 0,2 km/h (0 Bft) N 355 ° 1 min 0,000 mm 6,8 UV-I 963 W/m² 15,9 °C 25,9 °C 1,6 km/h (1 Bft)
08.08.2018 13:38 26,1 °C 54 % 1012,3 hPa 0,0 mm 0,5 km/h (0 Bft) N 355 ° 1 min 0,000 mm 7,2 UV-I 962 W/m² 16,0 °C 26,1 °C 1,6 km/h (1 Bft)
08.08.2018 13:39 26,3 °C 56 % 1012,3 hPa 0,0 mm 1,4 km/h (1 Bft) N 349 ° 1 min 0,000 mm 7,3 UV-I 970 W/m² 16,8 °C 26,3 °C 3,2 km/h (1 Bft)
08.08.2018 13:40 26,4 °C 55 % 1012,3 hPa 0,0 mm 2,7 km/h (1 Bft) N 5 ° 1 min 0,000 mm 7,2 UV-I 928 W/m² 16,6 °C 26,4 °C 4,8 km/h (1 Bft)
08.08.2018 13:41 26,5 °C 57 % 1012,3 hPa 0,0 mm 1,4 km/h (1 Bft) N-NO 17 ° 1 min 0,000 mm 7,2 UV-I 983 W/m² 17,3 °C 26,5 °C 3,2 km/h (1 Bft)
08.08.2018 13:42 26,7 °C 55 % 1012,3 hPa 0,0 mm 2,3 km/h (1 Bft) NO 51 ° 1 min 0,000 mm 7,1 UV-I 819 W/m² 16,9 °C 26,7 °C 4,8 km/h (1 Bft)
08.08.2018 13:43 26,7 °C 55 % 1012,3 hPa 0,0 mm 1,4 km/h (1 Bft) NO 49 ° 1 min 0,000 mm 6,6 UV-I 819 W/m² 16,9 °C 26,7 °C 3,2 km/h (1 Bft)
08.08.2018 13:44 26,6 °C 53 % 1012,3 hPa 0,0 mm 1,5 km/h (1 Bft) NO 36 ° 1 min 0,000 mm 6,5 UV-I 621 W/m² 16,2 °C 26,6 °C 4,8 km/h (1 Bft)
08.08.2018 13:45 26,6 °C 55 % 1012,3 hPa 0,0 mm 5,9 km/h (2 Bft) N 355 ° 1 min 0,000 mm 5,7 UV-I 621 W/m² 16,8 °C 26,6 °C 12,9 km/h (3 Bft)
08.08.2018 13:46 26,7 °C 53 % 1012,4 hPa 0,0 mm 4,5 km/h (1 Bft) N-NW 339 ° 1 min 0,000 mm 7,4 UV-I 621 W/m² 16,3 °C 26,7 °C 14,5 km/h (3 Bft)
08.08.2018 13:47 26,7 °C 52 % 1012,3 hPa 0,0 mm 0,3 km/h (0 Bft) N 360 ° 1 min 0,000 mm 7,0 UV-I 1062 W/m² 16,0 °C 26,7 °C 1,6 km/h (1 Bft)
08.08.2018 13:48 26,5 °C 52 % 1012,3 hPa 0,0 mm 0,8 km/h (0 Bft) N 5 ° 1 min 0,000 mm 7,5 UV-I 1062 W/m² 15,8 °C 26,5 °C 3,2 km/h (1 Bft)
08.08.2018 13:49 26,3 °C 52 % 1012,3 hPa 0,0 mm 2,2 km/h (1 Bft) SO 146 ° 1 min 0,000 mm 6,4 UV-I 1062 W/m² 15,6 °C 26,3 °C 4,8 km/h (1 Bft)
08.08.2018 13:50 26,2 °C 53 % 1012,3 hPa 0,0 mm 0,0 km/h (0 Bft) SO 146 ° 1 min 0,000 mm 5,3 UV-I 1062 W/m² 15,8 °C 26,2 °C 0,0 km/h (0 Bft)
08.08.2018 13:51 26,2 °C 56 % 1012,3 hPa 0,0 mm 1,0 km/h (0 Bft) NW 309 ° 1 min 0,000 mm 6,7 UV-I 942 W/m² 16,7 °C 26,2 °C 3,2 km/h (1 Bft)
08.08.2018 13:52 26,3 °C 54 % 1012,3 hPa 0,0 mm 2,3 km/h (1 Bft) NW 307 ° 1 min 0,000 mm 5,0 UV-I 942 W/m² 16,2 °C 26,3 °C 4,8 km/h (1 Bft)
08.08.2018 13:53 26,3 °C 54 % 1012,3 hPa 0,0 mm 1,3 km/h (1 Bft) W 271 ° 0 min 0,000 mm 4,3 UV-I 461 W/m² 16,2 °C 26,3 °C 3,2 km/h (1 Bft)
08.08.2018 13:54 26,3 °C 55 % 1012,3 hPa 0,0 mm 1,1 km/h (1 Bft) W 273 ° 0 min 0,000 mm 4,3 UV-I 401 W/m² 16,5 °C 26,3 °C 4,8 km/h (1 Bft)
08.08.2018 13:55 26,3 °C 52 % 1012,2 hPa 0,0 mm 2,5 km/h (1 Bft) W 262 ° 0 min 0,000 mm 4,1 UV-I 401 W/m² 15,6 °C 26,3 °C 4,8 km/h (1 Bft)
08.08.2018 13:56 26,2 °C 52 % 1012,3 hPa 0,0 mm 3,7 km/h (1 Bft) W 271 ° 0 min 0,000 mm 4,1 UV-I 401 W/m² 15,6 °C 26,2 °C 6,4 km/h (2 Bft)
08.08.2018 13:57 26,1 °C 53 % 1012,2 hPa 0,0 mm 1,8 km/h (1 Bft) W 271 ° 0 min 0,000 mm 4,0 UV-I 399 W/m² 15,8 °C 26,1 °C 3,2 km/h (1 Bft)
08.08.2018 13:58 26,1 °C 54 % 1012,2 hPa 0,0 mm 3,7 km/h (1 Bft) W-NW 286 ° 0 min 0,000 mm 3,9 UV-I 387 W/m² 16,0 °C 26,1 °C 11,3 km/h (2 Bft)
08.08.2018 13:59 26,1 °C 55 % 1012,3 hPa 0,0 mm 5,0 km/h (1 Bft) NW 316 ° 0 min 0,000 mm 3,8 UV-I 369 W/m² 16,3 °C 26,1 °C 9,7 km/h (2 Bft)
08.08.2018 14:00 26,1 °C 55 % 1012,2 hPa 0,0 mm 3,6 km/h (1 Bft) NW 316 ° 0 min 0,000 mm 3,7 UV-I 359 W/m² 16,3 °C 26,1 °C 4,8 km/h (1 Bft)
08.08.2018 14:01 26,2 °C 54 % 1012,2 hPa 0,0 mm 3,5 km/h (1 Bft) NW 326 ° 0 min 0,432 mm 3,5 UV-I 343 W/m² 16,1 °C 26,2 °C 4,8 km/h (1 Bft)
08.08.2018 14:02 26,2 °C 54 % 1012,2 hPa 0,0 mm 3,0 km/h (1 Bft) NW 317 ° 0 min 0,000 mm 3,5 UV-I 339 W/m² 16,1 °C 26,2 °C 4,8 km/h (1 Bft)
08.08.2018 14:03 26,2 °C 55 % 1012,2 hPa 0,0 mm 2,3 km/h (1 Bft) NW 317 ° 0 min 0,000 mm 3,5 UV-I 339 W/m² 16,4 °C 26,2 °C 3,2 km/h (1 Bft)
08.08.2018 14:04 26,1 °C 54 % 1012,2 hPa 0,0 mm 2,6 km/h (1 Bft) NW 317 ° 0 min 0,000 mm 3,5 UV-I 339 W/m² 16,0 °C 26,1 °C 3,2 km/h (1 Bft)
08.08.2018 14:05 26,1 °C 54 % 1012,1 hPa 0,0 mm 0,4 km/h (0 Bft) NW 317 ° 0 min 0,000 mm 3,5 UV-I 345 W/m² 16,0 °C 26,1 °C 1,6 km/h (1 Bft)
08.08.2018 14:06 26,1 °C 55 % 1012,1 hPa 0,0 mm 4,4 km/h (1 Bft) W-NW 303 ° 0 min 0,000 mm 3,5 UV-I 343 W/m² 16,3 °C 26,1 °C 6,4 km/h (2 Bft)
08.08.2018 14:07 26,1 °C 55 % 1012,1 hPa 0,0 mm 4,6 km/h (1 Bft) NW 321 ° 0 min 0,000 mm 3,4 UV-I 332 W/m² 16,3 °C 26,1 °C 6,4 km/h (2 Bft)
08.08.2018 14:08 26,2 °C 56 % 1012,1 hPa 0,0 mm 4,2 km/h (1 Bft) NW 321 ° 0 min 0,000 mm 3,3 UV-I 325 W/m² 16,7 °C 26,2 °C 8,0 km/h (2 Bft)
08.08.2018 14:09 26,2 °C 55 % 1012,1 hPa 0,0 mm 4,3 km/h (1 Bft) W 277 ° 0 min 0,000 mm 3,3 UV-I 320 W/m² 16,4 °C 26,2 °C 8,0 km/h (2 Bft)
08.08.2018 14:10 26,1 °C 54 % 1012,1 hPa 0,0 mm 4,4 km/h (1 Bft) NW 317 ° 0 min 0,000 mm 3,4 UV-I 330 W/m² 16,0 °C 26,1 °C 6,4 km/h (2 Bft)
08.08.2018 14:11 26,1 °C 56 % 1012,1 hPa 0,0 mm 4,2 km/h (1 Bft) W-NW 294 ° 0 min 0,000 mm 3,5 UV-I 357 W/m² 16,6 °C 26,1 °C 6,4 km/h (2 Bft)
08.08.2018 14:12 26,1 °C 56 % 1012,1 hPa 0,0 mm 1,7 km/h (1 Bft) W-NW 295 ° 0 min 0,000 mm 3,8 UV-I 387 W/m² 16,6 °C 26,1 °C 4,8 km/h (1 Bft)
08.08.2018 14:13 26,1 °C 57 % 1012,1 hPa 0,0 mm 1,4 km/h (1 Bft) W-NW 295 ° 0 min 0,000 mm 3,6 UV-I 381 W/m² 16,9 °C 26,1 °C 3,2 km/h (1 Bft)
08.08.2018 14:14 26,1 °C 56 % 1012,1 hPa 0,0 mm 1,3 km/h (1 Bft) W-NW 295 ° 0 min 0,000 mm 3,8 UV-I 408 W/m² 16,6 °C 26,1 °C 3,2 km/h (1 Bft)
08.08.2018 14:15 26,1 °C 55 % 1012,1 hPa 0,0 mm 2,3 km/h (1 Bft) W-NW 295 ° 0 min 0,000 mm 3,9 UV-I 408 W/m² 16,3 °C 26,1 °C 4,8 km/h (1 Bft)
08.08.2018 14:16 26,1 °C 52 % 1012,1 hPa 0,0 mm 0,3 km/h (0 Bft) W-NW 295 ° 0 min 0,000 mm 4,6 UV-I 471 W/m² 15,5 °C 26,1 °C 1,6 km/h (1 Bft)
08.08.2018 14:17 26,1 °C 51 % 1012,1 hPa 0,0 mm 1,2 km/h (1 Bft) W-NW 295 ° 0 min 0,000 mm 5,3 UV-I 471 W/m² 15,2 °C 26,1 °C 4,8 km/h (1 Bft)
08.08.2018 14:18 26,2 °C 54 % 1012,0 hPa 0,0 mm 3,4 km/h (1 Bft) W-NW 295 ° 0 min 0,000 mm 5,5 UV-I 471 W/m² 16,1 °C 26,2 °C 4,8 km/h (1 Bft)
08.08.2018 14:19 26,3 °C 53 % 1012,1 hPa 0,0 mm 3,3 km/h (1 Bft) N-NW 342 ° 1 min 0,000 mm 7,7 UV-I 1174 W/m² 15,9 °C 26,3 °C 4,8 km/h (1 Bft)
08.08.2018 14:20 26,6 °C 53 % 1012,0 hPa 0,0 mm 4,9 km/h (1 Bft) N 360 ° 1 min 0,000 mm 7,2 UV-I 1144 W/m² 16,2 °C 26,6 °C 6,4 km/h (2 Bft)
08.08.2018 14:21 26,6 °C 51 % 1012,0 hPa 0,0 mm 1,7 km/h (1 Bft) N 360 ° 1 min 0,000 mm 6,4 UV-I 1169 W/m² 15,6 °C 26,6 °C 4,8 km/h (1 Bft)
08.08.2018 14:22 26,8 °C 51 % 1012,0 hPa 0,0 mm 3,3 km/h (1 Bft) N 355 ° 1 min 0,000 mm 4,9 UV-I 1169 W/m² 15,8 °C 26,8 °C 4,8 km/h (1 Bft)
08.08.2018 14:23 26,9 °C 54 % 1012,0 hPa 0,0 mm 6,2 km/h (2 Bft) W-NW 292 ° 1 min 0,000 mm 5,1 UV-I 1169 W/m² 16,8 °C 26,9 °C 8,0 km/h (2 Bft)
08.08.2018 14:24 26,9 °C 51 % 1012,0 hPa 0,0 mm 4,8 km/h (1 Bft) NW 315 ° 1 min 0,000 mm 4,4 UV-I 1169 W/m² 15,9 °C 26,9 °C 8,0 km/h (2 Bft)
08.08.2018 14:25 27,0 °C 53 % 1012,0 hPa 0,0 mm 3,5 km/h (1 Bft) N-NW 334 ° 1 min 0,000 mm 6,4 UV-I 1169 W/m² 16,6 °C 27,0 °C 6,4 km/h (2 Bft)
08.08.2018 14:26 27,2 °C 55 % 1012,0 hPa 0,0 mm 4,9 km/h (1 Bft) W-NW 288 ° 1 min 0,000 mm 4,8 UV-I 1169 W/m² 17,4 °C 27,2 °C 6,4 km/h (2 Bft)
08.08.2018 14:27 27,2 °C 51 % 1012,0 hPa 0,0 mm 5,6 km/h (1 Bft) W-NW 282 ° 1 min 0,000 mm 7,5 UV-I 1169 W/m² 16,2 °C 27,2 °C 9,7 km/h (2 Bft)
08.08.2018 14:28 27,1 °C 49 % 1012,0 hPa 0,0 mm 1,1 km/h (1 Bft) W-NW 282 ° 1 min 0,000 mm 5,4 UV-I 1169 W/m² 15,4 °C 27,1 °C 1,6 km/h (1 Bft)
08.08.2018 14:29 27,0 °C 51 % 1012,0 hPa 0,0 mm 4,4 km/h (1 Bft) NW 324 ° 1 min 0,000 mm 5,8 UV-I 700 W/m² 16,0 °C 27,0 °C 8,0 km/h (2 Bft)
08.08.2018 14:30 26,9 °C 52 % 1012,0 hPa 0,0 mm 5,9 km/h (2 Bft) NW 313 ° 0 min 0,000 mm 4,3 UV-I 429 W/m² 16,2 °C 26,9 °C 9,7 km/h (2 Bft)
08.08.2018 14:31 26,9 °C 52 % 1012,0 hPa 0,0 mm 4,4 km/h (1 Bft) W 281 ° 0 min 0,000 mm 5,1 UV-I 429 W/m² 16,2 °C 26,9 °C 6,4 km/h (2 Bft)
08.08.2018 14:32 26,8 °C 52 % 1012,0 hPa 0,0 mm 3,7 km/h (1 Bft) W-NW 288 ° 0 min 0,000 mm 5,9 UV-I 429 W/m² 16,1 °C 26,8 °C 6,4 km/h (2 Bft)
08.08.2018 14:33 26,8 °C 54 % 1012,0 hPa 0,0 mm 5,9 km/h (2 Bft) W-NW 284 ° 0 min 0,000 mm 6,4 UV-I 429 W/m² 16,7 °C 26,8 °C 11,3 km/h (2 Bft)
08.08.2018 14:34 26,8 °C 53 % 1012,0 hPa 0,0 mm 0,2 km/h (0 Bft) W-NW 284 ° 0 min 0,000 mm 6,7 UV-I 429 W/m² 16,4 °C 26,8 °C 1,6 km/h (1 Bft)
08.08.2018 14:35 26,9 °C 55 % 1012,0 hPa 0,0 mm 1,2 km/h (1 Bft) W-NW 284 ° 0 min 0,000 mm 6,3 UV-I 429 W/m² 17,1 °C 26,9 °C 3,2 km/h (1 Bft)
08.08.2018 14:36 26,9 °C 53 % 1012,1 hPa 0,0 mm 0,1 km/h (0 Bft) W-NW 285 ° 1 min 0,000 mm 5,1 UV-I 638 W/m² 16,5 °C 26,9 °C 1,6 km/h (1 Bft)
08.08.2018 14:37 27,0 °C 51 % 1012,0 hPa 0,0 mm 1,0 km/h (0 Bft) W-NW 285 ° 1 min 0,000 mm 5,4 UV-I 622 W/m² 16,0 °C 27,0 °C 1,6 km/h (1 Bft)
08.08.2018 14:38 27,1 °C 56 % 1012,0 hPa 0,0 mm 4,9 km/h (1 Bft) W 264 ° 1 min 0,000 mm 4,9 UV-I 622 W/m² 17,5 °C 27,1 °C 6,4 km/h (2 Bft)
08.08.2018 14:39 27,1 °C 58 % 1012,0 hPa 0,0 mm 4,9 km/h (1 Bft) SW 225 ° 1 min 0,000 mm 7,1 UV-I 622 W/m² 18,1 °C 27,1 °C 6,4 km/h (2 Bft)
08.08.2018 14:40 27,2 °C 51 % 1011,9 hPa 0,0 mm 4,7 km/h (1 Bft) W 270 ° 1 min 0,000 mm 6,8 UV-I 622 W/m² 16,2 °C 27,2 °C 9,7 km/h (2 Bft)
08.08.2018 14:41 27,1 °C 52 % 1011,9 hPa 0,0 mm 0,5 km/h (0 Bft) W 270 ° 1 min 0,000 mm 7,3 UV-I 977 W/m² 16,4 °C 27,1 °C 3,2 km/h (1 Bft)
08.08.2018 14:42 27,2 °C 53 % 1011,9 hPa 0,0 mm 4,3 km/h (1 Bft) NW 314 ° 1 min 0,000 mm 6,8 UV-I 977 W/m² 16,8 °C 27,2 °C 6,4 km/h (2 Bft)
08.08.2018 14:43 27,3 °C 55 % 1011,9 hPa 0,0 mm 4,1 km/h (1 Bft) NW 325 ° 1 min 0,000 mm 5,6 UV-I 977 W/m² 17,4 °C 27,3 °C 6,4 km/h (2 Bft)
08.08.2018 14:44 27,4 °C 55 % 1012,0 hPa 0,0 mm 6,3 km/h (2 Bft) NW 324 ° 1 min 0,000 mm 4,5 UV-I 977 W/m² 17,5 °C 27,4 °C 9,7 km/h (2 Bft)
08.08.2018 14:45 27,4 °C 55 % 1011,9 hPa 0,0 mm 1,1 km/h (1 Bft) NW 324 ° 1 min 0,000 mm 4,0 UV-I 977 W/m² 17,5 °C 27,4 °C 4,8 km/h (1 Bft)
08.08.2018 14:46 27,3 °C 50 % 1011,9 hPa 0,0 mm 2,5 km/h (1 Bft) N-NW 338 ° 0 min 0,000 mm 3,7 UV-I 378 W/m² 15,9 °C 27,3 °C 8,0 km/h (2 Bft)
08.08.2018 14:47 27,2 °C 50 % 1011,9 hPa 0,0 mm 1,9 km/h (1 Bft) N-NW 338 ° 0 min 0,000 mm 4,3 UV-I 387 W/m² 15,9 °C 27,2 °C 3,2 km/h (1 Bft)
08.08.2018 14:48 27,2 °C 54 % 1011,9 hPa 0,0 mm 2,9 km/h (1 Bft) W-NW 301 ° 0 min 0,000 mm 3,8 UV-I 373 W/m² 17,1 °C 27,2 °C 6,4 km/h (2 Bft)
08.08.2018 14:49 27,1 °C 52 % 1011,9 hPa 0,0 mm 4,6 km/h (1 Bft) W-NW 294 ° 0 min 0,000 mm 4,2 UV-I 420 W/m² 16,4 °C 27,1 °C 6,4 km/h (2 Bft)
08.08.2018 14:50 26,9 °C 53 % 1011,9 hPa 0,0 mm 2,9 km/h (1 Bft) NW 306 ° 0 min 0,000 mm 3,9 UV-I 408 W/m² 16,5 °C 26,9 °C 4,8 km/h (1 Bft)
08.08.2018 14:51 26,9 °C 55 % 1011,9 hPa 0,0 mm 3,9 km/h (1 Bft) NW 310 ° 0 min 0,000 mm 4,1 UV-I 420 W/m² 17,1 °C 26,9 °C 4,8 km/h (1 Bft)
08.08.2018 14:52 26,9 °C 56 % 1011,9 hPa 0,0 mm 4,2 km/h (1 Bft) N-NW 344 ° 0 min 0,000 mm 4,1 UV-I 439 W/m² 17,4 °C 26,9 °C 4,8 km/h (1 Bft)
08.08.2018 14:53 27,0 °C 56 % 1011,9 hPa 0,0 mm 4,2 km/h (1 Bft) W-NW 303 ° 0 min 0,000 mm 4,3 UV-I 534 W/m² 17,5 °C 27,0 °C 6,4 km/h (2 Bft)
08.08.2018 14:54 27,1 °C 57 % 1011,9 hPa 0,0 mm 5,6 km/h (1 Bft) NW 314 ° 0 min 0,000 mm 4,0 UV-I 446 W/m² 17,8 °C 27,1 °C 9,7 km/h (2 Bft)
08.08.2018 14:55 27,0 °C 54 % 1011,9 hPa 0,0 mm 3,7 km/h (1 Bft) NW 319 ° 0 min 0,000 mm 4,2 UV-I 466 W/m² 16,9 °C 27,0 °C 6,4 km/h (2 Bft)
08.08.2018 14:56 26,9 °C 53 % 1011,9 hPa 0,0 mm 1,8 km/h (1 Bft) W-NW 289 ° 0 min 0,000 mm 4,4 UV-I 503 W/m² 16,5 °C 26,9 °C 4,8 km/h (1 Bft)
08.08.2018 14:57 26,8 °C 51 % 1011,9 hPa 0,0 mm 2,6 km/h (1 Bft) W-NW 291 ° 0 min 0,000 mm 4,4 UV-I 513 W/m² 15,8 °C 26,8 °C 4,8 km/h (1 Bft)
08.08.2018 14:58 26,7 °C 52 % 1011,9 hPa 0,0 mm 4,2 km/h (1 Bft) W-NW 287 ° 0 min 0,000 mm 3,6 UV-I 513 W/m² 16,0 °C 26,7 °C 6,4 km/h (2 Bft)
08.08.2018 14:59 26,7 °C 51 % 1011,9 hPa 0,0 mm 4,6 km/h (1 Bft) W-NW 288 ° 0 min 0,000 mm 3,9 UV-I 374 W/m² 15,7 °C 26,7 °C 6,4 km/h (2 Bft)
08.08.2018 15:00 26,6 °C 52 % 1011,8 hPa 0,0 mm 1,5 km/h (1 Bft) W-NW 288 ° 0 min 0,000 mm 3,7 UV-I 369 W/m² 15,9 °C 26,6 °C 4,8 km/h (1 Bft)
08.08.2018 15:01 26,6 °C 50 % 1011,9 hPa 0,0 mm 2,6 km/h (1 Bft) W-NW 288 ° 0 min 0,406 mm 3,6 UV-I 350 W/m² 15,3 °C 26,6 °C 4,8 km/h (1 Bft)
08.08.2018 15:02 26,6 °C 54 % 1011,9 hPa 0,0 mm 1,1 km/h (1 Bft) W-NW 288 ° 0 min 0,000 mm 4,2 UV-I 408 W/m² 16,5 °C 26,6 °C 1,6 km/h (1 Bft)
08.08.2018 15:03 26,5 °C 52 % 1011,8 hPa 0,0 mm 2,3 km/h (1 Bft) W-SW 255 ° 0 min 0,000 mm 4,0 UV-I 381 W/m² 15,8 °C 26,5 °C 4,8 km/h (1 Bft)
08.08.2018 15:04 26,6 °C 52 % 1011,8 hPa 0,0 mm 0,5 km/h (0 Bft) W 281 ° 0 min 0,000 mm 6,2 UV-I 381 W/m² 15,9 °C 26,6 °C 1,6 km/h (1 Bft)
08.08.2018 15:05 26,6 °C 57 % 1011,8 hPa 0,0 mm 0,0 km/h (0 Bft) W 281 ° 1 min 0,000 mm 6,4 UV-I 907 W/m² 17,4 °C 26,6 °C 0,0 km/h (0 Bft)
08.08.2018 15:06 26,8 °C 54 % 1011,8 hPa 0,0 mm 2,2 km/h (1 Bft) W-NW 302 ° 1 min 0,000 mm 4,9 UV-I 907 W/m² 16,7 °C 26,8 °C 4,8 km/h (1 Bft)
08.08.2018 15:07 26,9 °C 54 % 1011,8 hPa 0,0 mm 4,6 km/h (1 Bft) NW 311 ° 1 min 0,000 mm 6,1 UV-I 907 W/m² 16,8 °C 26,9 °C 6,4 km/h (2 Bft)
08.08.2018 15:08 27,1 °C 52 % 1011,8 hPa 0,0 mm 3,3 km/h (1 Bft) NW 312 ° 1 min 0,000 mm 6,0 UV-I 854 W/m² 16,4 °C 27,1 °C 4,8 km/h (1 Bft)
08.08.2018 15:09 27,2 °C 53 % 1011,8 hPa 0,0 mm 2,5 km/h (1 Bft) NW 313 ° 1 min 0,000 mm 5,9 UV-I 844 W/m² 16,8 °C 27,2 °C 4,8 km/h (1 Bft)
08.08.2018 15:10 27,4 °C 55 % 1011,8 hPa 0,0 mm 4,8 km/h (1 Bft) NW 306 ° 0 min 0,000 mm 3,7 UV-I 320 W/m² 17,5 °C 27,4 °C 11,3 km/h (2 Bft)
08.08.2018 15:11 27,4 °C 53 % 1011,8 hPa 0,0 mm 8,4 km/h (2 Bft) W-NW 289 ° 0 min 0,000 mm 6,1 UV-I 320 W/m² 17,0 °C 27,4 °C 11,3 km/h (2 Bft)
08.08.2018 15:12 27,4 °C 52 % 1011,8 hPa 0,0 mm 4,5 km/h (1 Bft) NW 318 ° 1 min 0,000 mm 6,1 UV-I 893 W/m² 16,7 °C 27,4 °C 8,0 km/h (2 Bft)
08.08.2018 15:13 27,4 °C 51 % 1011,8 hPa 0,0 mm 9,1 km/h (2 Bft) NW 315 ° 1 min 0,000 mm 6,0 UV-I 884 W/m² 16,3 °C 27,4 °C 14,5 km/h (3 Bft)
08.08.2018 15:14 27,6 °C 50 % 1011,8 hPa 0,0 mm 9,5 km/h (2 Bft) W-NW 296 ° 1 min 0,000 mm 6,1 UV-I 914 W/m² 16,2 °C 27,6 °C 12,9 km/h (3 Bft)
08.08.2018 15:15 27,6 °C 51 % 1011,8 hPa 0,0 mm 6,7 km/h (2 Bft) NW 315 ° 1 min 0,000 mm 4,3 UV-I 914 W/m² 16,5 °C 27,6 °C 11,3 km/h (2 Bft)
08.08.2018 15:16 27,4 °C 52 % 1011,8 hPa 0,0 mm 9,2 km/h (2 Bft) N-NW 328 ° 1 min 0,000 mm 4,1 UV-I 914 W/m² 16,7 °C 27,4 °C 17,7 km/h (3 Bft)
08.08.2018 15:17 27,3 °C 52 % 1011,8 hPa 0,0 mm 4,6 km/h (1 Bft) N-NO 19 ° 1 min 0,000 mm 6,0 UV-I 914 W/m² 16,6 °C 27,3 °C 12,9 km/h (3 Bft)
08.08.2018 15:18 27,3 °C 52 % 1011,8 hPa 0,0 mm 8,9 km/h (2 Bft) W-NW 295 ° 1 min 0,000 mm 4,7 UV-I 914 W/m² 16,6 °C 27,3 °C 12,9 km/h (3 Bft)
08.08.2018 15:19 27,4 °C 55 % 1011,8 hPa 0,0 mm 8,4 km/h (2 Bft) W-NW 298 ° 1 min 0,000 mm 3,5 UV-I 914 W/m² 17,5 °C 27,4 °C 11,3 km/h (2 Bft)
08.08.2018 15:20 27,2 °C 53 % 1011,8 hPa 0,0 mm 8,0 km/h (2 Bft) W 267 ° 0 min 0,000 mm 4,2 UV-I 439 W/m² 16,8 °C 27,2 °C 12,9 km/h (3 Bft)
08.08.2018 15:21 27,1 °C 54 % 1011,8 hPa 0,0 mm 5,9 km/h (2 Bft) W-NW 295 ° 0 min 0,000 mm 4,9 UV-I 439 W/m² 17,0 °C 27,1 °C 9,7 km/h (2 Bft)
08.08.2018 15:22 26,9 °C 54 % 1011,8 hPa 0,0 mm 4,5 km/h (1 Bft) W 259 ° 1 min 0,000 mm 4,9 UV-I 898 W/m² 16,8 °C 26,9 °C 12,9 km/h (3 Bft)
08.08.2018 15:23 26,9 °C 55 % 1011,8 hPa 0,0 mm 6,4 km/h (2 Bft) W-NW 290 ° 1 min 0,000 mm 5,7 UV-I 812 W/m² 17,1 °C 26,9 °C 12,9 km/h (3 Bft)
08.08.2018 15:24 26,9 °C 55 % 1011,8 hPa 0,0 mm 7,6 km/h (2 Bft) N-NW 330 ° 1 min 0,000 mm 5,8 UV-I 867 W/m² 17,1 °C 26,9 °C 12,9 km/h (3 Bft)
08.08.2018 15:25 26,9 °C 54 % 1011,7 hPa 0,0 mm 6,0 km/h (2 Bft) W-NW 289 ° 1 min 0,000 mm 5,8 UV-I 861 W/m² 16,8 °C 26,9 °C 11,3 km/h (2 Bft)
08.08.2018 15:26 27,1 °C 54 % 1011,7 hPa 0,0 mm 6,6 km/h (2 Bft) NW 314 ° 1 min 0,000 mm 5,7 UV-I 846 W/m² 17,0 °C 27,1 °C 11,3 km/h (2 Bft)
08.08.2018 15:27 27,1 °C 54 % 1011,7 hPa 0,0 mm 7,5 km/h (2 Bft) W 275 ° 1 min 0,000 mm 5,7 UV-I 838 W/m² 17,0 °C 27,1 °C 11,3 km/h (2 Bft)
08.08.2018 15:28 27,2 °C 54 % 1011,8 hPa 0,0 mm 6,4 km/h (2 Bft) NW 321 ° 1 min 0,000 mm 5,7 UV-I 826 W/m² 17,1 °C 27,2 °C 9,7 km/h (2 Bft)
08.08.2018 15:29 27,3 °C 55 % 1011,8 hPa 0,0 mm 3,8 km/h (1 Bft) W-NW 296 ° 1 min 0,000 mm 5,6 UV-I 821 W/m² 17,4 °C 27,3 °C 6,4 km/h (2 Bft)
08.08.2018 15:30 27,3 °C 52 % 1011,7 hPa 0,0 mm 7,6 km/h (2 Bft) N-NW 329 ° 1 min 0,000 mm 5,6 UV-I 821 W/m² 16,6 °C 27,3 °C 14,5 km/h (3 Bft)
08.08.2018 15:31 27,3 °C 53 % 1011,8 hPa 0,0 mm 8,7 km/h (2 Bft) N-NW 331 ° 1 min 0,000 mm 5,1 UV-I 744 W/m² 16,9 °C 27,3 °C 12,9 km/h (3 Bft)
08.08.2018 15:32 27,2 °C 52 % 1011,7 hPa 0,0 mm 9,4 km/h (2 Bft) NW 315 ° 1 min 0,000 mm 5,4 UV-I 819 W/m² 16,5 °C 27,2 °C 14,5 km/h (3 Bft)
08.08.2018 15:33 27,1 °C 53 % 1011,7 hPa 0,0 mm 7,9 km/h (2 Bft) N-NW 327 ° 1 min 0,000 mm 4,7 UV-I 819 W/m² 16,7 °C 27,1 °C 12,9 km/h (3 Bft)
08.08.2018 15:34 27,2 °C 56 % 1011,7 hPa 0,0 mm 6,3 km/h (2 Bft) NW 316 ° 1 min 0,000 mm 5,4 UV-I 819 W/m² 17,6 °C 27,2 °C 11,3 km/h (2 Bft)
08.08.2018 15:35 27,2 °C 54 % 1011,7 hPa 0,0 mm 8,4 km/h (2 Bft) N-NW 329 ° 1 min 0,000 mm 3,7 UV-I 819 W/m² 17,1 °C 27,2 °C 14,5 km/h (3 Bft)
08.08.2018 15:36 27,1 °C 53 % 1011,7 hPa 0,0 mm 9,4 km/h (2 Bft) W-SW 254 ° 0 min 0,000 mm 3,6 UV-I 302 W/m² 16,7 °C 27,1 °C 14,5 km/h (3 Bft)
08.08.2018 15:37 27,0 °C 53 % 1011,7 hPa 0,0 mm 8,0 km/h (2 Bft) W 273 ° 0 min 0,000 mm 4,0 UV-I 390 W/m² 16,6 °C 27,0 °C 12,9 km/h (3 Bft)
08.08.2018 15:38 26,8 °C 52 % 1011,6 hPa 0,0 mm 6,2 km/h (2 Bft) NW 314 ° 0 min 0,000 mm 3,4 UV-I 359 W/m² 16,1 °C 26,8 °C 8,0 km/h (2 Bft)
08.08.2018 15:39 26,8 °C 51 % 1011,7 hPa 0,0 mm 4,5 km/h (1 Bft) W-NW 292 ° 0 min 0,000 mm 3,0 UV-I 359 W/m² 15,8 °C 26,8 °C 8,0 km/h (2 Bft)
08.08.2018 15:40 26,6 °C 52 % 1011,7 hPa 0,0 mm 5,6 km/h (1 Bft) W-NW 300 ° 0 min 0,000 mm 2,9 UV-I 248 W/m² 15,9 °C 26,6 °C 8,0 km/h (2 Bft)
08.08.2018 15:41 26,4 °C 51 % 1011,6 hPa 0,0 mm 4,5 km/h (1 Bft) NW 312 ° 0 min 0,000 mm 3,4 UV-I 311 W/m² 15,4 °C 26,4 °C 9,7 km/h (2 Bft)
08.08.2018 15:42 26,4 °C 50 % 1011,6 hPa 0,0 mm 1,4 km/h (1 Bft) NW 312 ° 0 min 0,000 mm 3,4 UV-I 329 W/m² 15,1 °C 26,4 °C 3,2 km/h (1 Bft)
08.08.2018 15:43 26,3 °C 52 % 1011,6 hPa 0,0 mm 4,7 km/h (1 Bft) W-NW 283 ° 0 min 0,000 mm 3,9 UV-I 329 W/m² 15,6 °C 26,3 °C 8,0 km/h (2 Bft)
08.08.2018 15:44 26,4 °C 53 % 1011,6 hPa 0,0 mm 8,8 km/h (2 Bft) NW 314 ° 0 min 0,000 mm 4,3 UV-I 594 W/m² 16,0 °C 26,4 °C 12,9 km/h (3 Bft)
08.08.2018 15:45 26,4 °C 52 % 1011,5 hPa 0,0 mm 4,1 km/h (1 Bft) NW 318 ° 1 min 0,000 mm 4,9 UV-I 733 W/m² 15,7 °C 26,4 °C 8,0 km/h (2 Bft)
08.08.2018 15:46 26,6 °C 51 % 1011,5 hPa 0,0 mm 6,0 km/h (2 Bft) NW 320 ° 1 min 0,000 mm 5,1 UV-I 821 W/m² 15,6 °C 26,6 °C 11,3 km/h (2 Bft)
08.08.2018 15:47 26,7 °C 53 % 1011,5 hPa 0,0 mm 4,8 km/h (1 Bft) NW 324 ° 1 min 0,000 mm 5,4 UV-I 838 W/m² 16,3 °C 26,7 °C 9,7 km/h (2 Bft)
08.08.2018 15:48 26,8 °C 53 % 1011,5 hPa 0,0 mm 5,2 km/h (1 Bft) W-NW 302 ° 1 min 0,000 mm 5,3 UV-I 835 W/m² 16,4 °C 26,8 °C 12,9 km/h (3 Bft)
08.08.2018 15:49 27,1 °C 51 % 1011,5 hPa 0,0 mm 7,3 km/h (2 Bft) NW 307 ° 1 min 0,000 mm 5,1 UV-I 835 W/m² 16,1 °C 27,1 °C 11,3 km/h (2 Bft)
08.08.2018 15:50 27,2 °C 51 % 1011,5 hPa 0,0 mm 7,2 km/h (2 Bft) NW 305 ° 1 min 0,000 mm 5,3 UV-I 788 W/m² 16,2 °C 27,2 °C 11,3 km/h (2 Bft)
08.08.2018 15:51 27,2 °C 47 % 1011,5 hPa 0,0 mm 5,6 km/h (1 Bft) W-NW 289 ° 1 min 0,000 mm 5,3 UV-I 810 W/m² 14,9 °C 27,2 °C 8,0 km/h (2 Bft)
08.08.2018 15:52 27,1 °C 48 % 1011,5 hPa 0,0 mm 4,7 km/h (1 Bft) W-NW 287 ° 1 min 0,000 mm 5,2 UV-I 807 W/m² 15,1 °C 27,1 °C 8,0 km/h (2 Bft)
08.08.2018 15:53 27,1 °C 47 % 1011,5 hPa 0,0 mm 0,7 km/h (0 Bft) W-NW 287 ° 1 min 0,000 mm 4,3 UV-I 807 W/m² 14,8 °C 27,1 °C 3,2 km/h (1 Bft)
08.08.2018 15:54 27,1 °C 46 % 1011,5 hPa 0,0 mm 0,9 km/h (0 Bft) W-NW 289 ° 1 min 0,000 mm 4,8 UV-I 638 W/m² 14,5 °C 27,1 °C 3,2 km/h (1 Bft)
08.08.2018 15:55 27,1 °C 53 % 1011,4 hPa 0,0 mm 2,2 km/h (1 Bft) W-NW 289 ° 1 min 0,000 mm 5,1 UV-I 638 W/m² 16,7 °C 27,1 °C 4,8 km/h (1 Bft)
08.08.2018 15:56 27,2 °C 52 % 1011,4 hPa 0,0 mm 2,6 km/h (1 Bft) W-NW 282 ° 1 min 0,000 mm 4,6 UV-I 638 W/m² 16,5 °C 27,2 °C 9,7 km/h (2 Bft)
08.08.2018 15:57 27,2 °C 46 % 1011,4 hPa 0,0 mm 2,7 km/h (1 Bft) W 281 ° 1 min 0,000 mm 5,0 UV-I 763 W/m² 14,6 °C 27,2 °C 3,2 km/h (1 Bft)
08.08.2018 15:58 27,2 °C 46 % 1011,4 hPa 0,0 mm 5,1 km/h (1 Bft) W-NW 300 ° 1 min 0,000 mm 4,9 UV-I 751 W/m² 14,6 °C 27,2 °C 6,4 km/h (2 Bft)
08.08.2018 15:59 27,1 °C 47 % 1011,4 hPa 0,0 mm 2,0 km/h (1 Bft) W-NW 300 ° 1 min 0,000 mm 4,8 UV-I 742 W/m² 14,8 °C 27,1 °C 4,8 km/h (1 Bft)
08.08.2018 16:00 27,1 °C 48 % 1011,4 hPa 0,0 mm 0,5 km/h (0 Bft) W-NW 300 ° 1 min 0,000 mm 4,8 UV-I 742 W/m² 15,1 °C 27,1 °C 1,6 km/h (1 Bft)
08.08.2018 16:01 27,0 °C 47 % 1011,4 hPa 0,0 mm 1,5 km/h (1 Bft) W-NW 299 ° 1 min 0,483 mm 4,7 UV-I 728 W/m² 14,7 °C 27,0 °C 3,2 km/h (1 Bft)
08.08.2018 16:02 26,9 °C 48 % 1011,4 hPa 0,0 mm 0,2 km/h (0 Bft) W-NW 298 ° 1 min 0,000 mm 4,7 UV-I 729 W/m² 14,9 °C 26,9 °C 1,6 km/h (1 Bft)
08.08.2018 16:03 26,9 °C 47 % 1011,4 hPa 0,0 mm 2,0 km/h (1 Bft) W 263 ° 1 min 0,000 mm 4,5 UV-I 722 W/m² 14,6 °C 26,9 °C 6,4 km/h (2 Bft)
08.08.2018 16:04 27,1 °C 48 % 1011,4 hPa 0,0 mm 4,3 km/h (1 Bft) W 279 ° 1 min 0,000 mm 4,5 UV-I 705 W/m² 15,1 °C 27,1 °C 4,8 km/h (1 Bft)
08.08.2018 16:05 27,2 °C 47 % 1011,4 hPa 0,0 mm 5,7 km/h (1 Bft) NW 322 ° 1 min 0,000 mm 4,5 UV-I 696 W/m² 14,9 °C 27,2 °C 12,9 km/h (3 Bft)
08.08.2018 16:06 27,2 °C 48 % 1011,4 hPa 0,0 mm 6,6 km/h (2 Bft) N-NW 338 ° 1 min 0,000 mm 4,4 UV-I 689 W/m² 15,2 °C 27,2 °C 9,7 km/h (2 Bft)
08.08.2018 16:07 27,3 °C 47 % 1011,4 hPa 0,0 mm 5,2 km/h (1 Bft) N-NW 348 ° 1 min 0,000 mm 4,4 UV-I 631 W/m² 15,0 °C 27,3 °C 8,0 km/h (2 Bft)
08.08.2018 16:08 27,3 °C 47 % 1011,4 hPa 0,0 mm 2,6 km/h (1 Bft) N-NW 338 ° 1 min 0,000 mm 4,4 UV-I 631 W/m² 15,0 °C 27,3 °C 4,8 km/h (1 Bft)
08.08.2018 16:09 27,4 °C 46 % 1011,4 hPa 0,0 mm 5,6 km/h (1 Bft) N-NO 14 ° 0 min 0,000 mm 3,3 UV-I 137 W/m² 14,7 °C 27,4 °C 14,5 km/h (3 Bft)
08.08.2018 16:10 27,4 °C 45 % 1011,4 hPa 0,0 mm 11,3 km/h (2 Bft) N 355 ° 0 min 0,000 mm 2,6 UV-I 127 W/m² 14,4 °C 27,4 °C 19,3 km/h (3 Bft)
08.08.2018 16:11 27,5 °C 45 % 1011,4 hPa 0,0 mm 6,2 km/h (2 Bft) N-NW 348 ° 0 min 0,000 mm 2,6 UV-I 128 W/m² 14,5 °C 27,5 °C 9,7 km/h (2 Bft)
08.08.2018 16:12 27,5 °C 45 % 1011,4 hPa 0,0 mm 2,8 km/h (1 Bft) N 349 ° 0 min 0,000 mm 2,6 UV-I 125 W/m² 14,5 °C 27,5 °C 8,0 km/h (2 Bft)
08.08.2018 16:13 27,4 °C 45 % 1011,4 hPa 0,0 mm 3,8 km/h (1 Bft) NW 325 ° 0 min 0,000 mm 2,5 UV-I 120 W/m² 14,4 °C 27,4 °C 8,0 km/h (2 Bft)
08.08.2018 16:14 27,3 °C 45 % 1011,3 hPa 0,0 mm 6,2 km/h (2 Bft) NW 314 ° 0 min 0,000 mm 2,5 UV-I 121 W/m² 14,3 °C 27,3 °C 9,7 km/h (2 Bft)
08.08.2018 16:15 27,3 °C 46 % 1011,4 hPa 0,0 mm 6,5 km/h (2 Bft) N-NO 19 ° 0 min 0,000 mm 2,6 UV-I 132 W/m² 14,6 °C 27,3 °C 8,0 km/h (2 Bft)
08.08.2018 16:16 27,3 °C 46 % 1011,4 hPa 0,0 mm 5,8 km/h (2 Bft) N-NW 342 ° 0 min 0,000 mm 2,5 UV-I 139 W/m² 14,6 °C 27,3 °C 9,7 km/h (2 Bft)
08.08.2018 16:17 27,4 °C 46 % 1011,4 hPa 0,0 mm 7,6 km/h (2 Bft) N 360 ° 0 min 0,000 mm 2,4 UV-I 134 W/m² 14,7 °C 27,4 °C 12,9 km/h (3 Bft)
08.08.2018 16:18 27,4 °C 46 % 1011,3 hPa 0,0 mm 4,3 km/h (1 Bft) N-NW 343 ° 0 min 0,000 mm 2,4 UV-I 128 W/m² 14,7 °C 27,4 °C 8,0 km/h (2 Bft)
08.08.2018 16:19 27,5 °C 45 % 1011,4 hPa 0,0 mm 5,6 km/h (1 Bft) N-NO 17 ° 0 min 0,000 mm 2,4 UV-I 116 W/m² 14,5 °C 27,5 °C 8,0 km/h (2 Bft)
08.08.2018 16:20 27,5 °C 47 % 1011,4 hPa 0,0 mm 3,7 km/h (1 Bft) N 360 ° 0 min 0,000 mm 2,4 UV-I 105 W/m² 15,2 °C 27,5 °C 4,8 km/h (1 Bft)
08.08.2018 16:21 27,4 °C 46 % 1011,4 hPa 0,0 mm 2,5 km/h (1 Bft) N 355 ° 0 min 0,000 mm 2,4 UV-I 107 W/m² 14,7 °C 27,4 °C 6,4 km/h (2 Bft)
08.08.2018 16:22 27,3 °C 45 % 1011,4 hPa 0,0 mm 4,8 km/h (1 Bft) W-SW 243 ° 0 min 0,000 mm 2,4 UV-I 113 W/m² 14,3 °C 27,3 °C 9,7 km/h (2 Bft)
08.08.2018 16:23 27,2 °C 45 % 1011,4 hPa 0,0 mm 3,6 km/h (1 Bft) W-NW 291 ° 0 min 0,000 mm 2,4 UV-I 114 W/m² 14,2 °C 27,2 °C 6,4 km/h (2 Bft)
08.08.2018 16:24 27,1 °C 45 % 1011,3 hPa 0,0 mm 3,8 km/h (1 Bft) W-NW 282 ° 0 min 0,000 mm 2,4 UV-I 109 W/m² 14,1 °C 27,1 °C 6,4 km/h (2 Bft)
08.08.2018 16:25 27,1 °C 47 % 1011,3 hPa 0,0 mm 6,1 km/h (2 Bft) W-SW 240 ° 0 min 0,000 mm 2,4 UV-I 120 W/m² 14,8 °C 27,1 °C 11,3 km/h (2 Bft)
08.08.2018 16:26 27,1 °C 48 % 1011,3 hPa 0,0 mm 2,8 km/h (1 Bft) W-SW 258 ° 0 min 0,000 mm 2,4 UV-I 153 W/m² 15,1 °C 27,1 °C 4,8 km/h (1 Bft)
08.08.2018 16:27 27,1 °C 49 % 1011,3 hPa 0,0 mm 2,7 km/h (1 Bft) W-SW 240 ° 0 min 0,000 mm 2,4 UV-I 162 W/m² 15,4 °C 27,1 °C 4,8 km/h (1 Bft)
08.08.2018 16:28 27,1 °C 48 % 1011,3 hPa 0,0 mm 3,4 km/h (1 Bft) W-NW 283 ° 0 min 0,000 mm 2,4 UV-I 158 W/m² 15,1 °C 27,1 °C 6,4 km/h (2 Bft)
08.08.2018 16:29 27,1 °C 50 % 1011,3 hPa 0,0 mm 5,0 km/h (1 Bft) W-SW 250 ° 0 min 0,000 mm 2,4 UV-I 146 W/m² 15,8 °C 27,1 °C 6,4 km/h (2 Bft)
08.08.2018 16:30 27,1 °C 45 % 1011,2 hPa 0,0 mm 6,1 km/h (2 Bft) W 273 ° 0 min 0,000 mm 2,4 UV-I 130 W/m² 14,1 °C 27,1 °C 9,7 km/h (2 Bft)
08.08.2018 16:31 27,0 °C 45 % 1011,2 hPa 0,0 mm 1,2 km/h (1 Bft) W 273 ° 0 min 0,000 mm 2,4 UV-I 121 W/m² 14,0 °C 27,0 °C 3,2 km/h (1 Bft)
08.08.2018 16:32 26,9 °C 45 % 1011,2 hPa 0,0 mm 1,9 km/h (1 Bft) N-NW 348 ° 0 min 0,000 mm 2,4 UV-I 120 W/m² 13,9 °C 26,9 °C 4,8 km/h (1 Bft)
08.08.2018 16:33 26,9 °C 47 % 1011,1 hPa 0,0 mm 1,8 km/h (1 Bft) N-NW 344 ° 0 min 0,000 mm 2,3 UV-I 120 W/m² 14,6 °C 26,9 °C 4,8 km/h (1 Bft)
08.08.2018 16:34 26,9 °C 44 % 1011,1 hPa 0,0 mm 0,3 km/h (0 Bft) N-NW 348 ° 0 min 0,000 mm 2,3 UV-I 118 W/m² 13,6 °C 26,9 °C 1,6 km/h (1 Bft)
08.08.2018 16:35 26,9 °C 48 % 1011,1 hPa 0,0 mm 1,3 km/h (1 Bft) N 360 ° 0 min 0,000 mm 2,3 UV-I 116 W/m² 14,9 °C 26,9 °C 3,2 km/h (1 Bft)
08.08.2018 16:36 26,9 °C 46 % 1011,1 hPa 0,0 mm 1,4 km/h (1 Bft) N 360 ° 0 min 0,000 mm 2,3 UV-I 114 W/m² 14,3 °C 26,9 °C 3,2 km/h (1 Bft)
08.08.2018 16:37 26,9 °C 47 % 1011,1 hPa 0,0 mm 3,4 km/h (1 Bft) N 5 ° 0 min 0,000 mm 2,3 UV-I 111 W/m² 14,6 °C 26,9 °C 4,8 km/h (1 Bft)
08.08.2018 16:38 26,9 °C 45 % 1011,1 hPa 0,0 mm 0,8 km/h (0 Bft) N 5 ° 0 min 0,000 mm 2,2 UV-I 107 W/m² 13,9 °C 26,9 °C 3,2 km/h (1 Bft)
08.08.2018 16:39 26,9 °C 47 % 1011,1 hPa 0,0 mm 4,1 km/h (1 Bft) W-SW 251 ° 0 min 0,000 mm 2,2 UV-I 105 W/m² 14,6 °C 26,9 °C 11,3 km/h (2 Bft)
08.08.2018 16:40 26,9 °C 46 % 1011,1 hPa 0,0 mm 9,9 km/h (2 Bft) W-NW 295 ° 0 min 0,000 mm 2,2 UV-I 104 W/m² 14,3 °C 26,9 °C 14,5 km/h (3 Bft)
08.08.2018 16:41 26,9 °C 45 % 1011,1 hPa 0,0 mm 5,0 km/h (1 Bft) W-SW 245 ° 0 min 0,000 mm 2,2 UV-I 104 W/m² 13,9 °C 26,9 °C 11,3 km/h (2 Bft)
08.08.2018 16:42 26,9 °C 47 % 1011,0 hPa 0,0 mm 7,1 km/h (2 Bft) NW 321 ° 0 min 0,000 mm 2,2 UV-I 102 W/m² 14,6 °C 26,9 °C 12,9 km/h (3 Bft)
08.08.2018 16:43 26,9 °C 47 % 1011,1 hPa 0,0 mm 5,8 km/h (2 Bft) NW 318 ° 0 min 0,000 mm 2,2 UV-I 100 W/m² 14,6 °C 26,9 °C 9,7 km/h (2 Bft)
08.08.2018 16:44 27,1 °C 49 % 1011,0 hPa 0,0 mm 11,0 km/h (2 Bft) W 266 ° 0 min 0,000 mm 2,2 UV-I 100 W/m² 15,4 °C 27,1 °C 14,5 km/h (3 Bft)
08.08.2018 16:45 27,1 °C 48 % 1011,0 hPa 0,0 mm 10,6 km/h (2 Bft) W-NW 294 ° 0 min 0,000 mm 2,1 UV-I 105 W/m² 15,1 °C 27,1 °C 14,5 km/h (3 Bft)
08.08.2018 16:46 27,1 °C 47 % 1011,0 hPa 0,0 mm 8,0 km/h (2 Bft) W-NW 296 ° 0 min 0,000 mm 2,1 UV-I 100 W/m² 14,8 °C 27,1 °C 12,9 km/h (3 Bft)
08.08.2018 16:47 27,1 °C 47 % 1011,0 hPa 0,0 mm 8,3 km/h (2 Bft) W-NW 291 ° 0 min 0,000 mm 2,1 UV-I 100 W/m² 14,8 °C 27,1 °C 12,9 km/h (3 Bft)
08.08.2018 16:48 27,1 °C 47 % 1011,0 hPa 0,0 mm 9,5 km/h (2 Bft) W-NW 286 ° 0 min 0,000 mm 2,1 UV-I 100 W/m² 14,8 °C 27,1 °C 12,9 km/h (3 Bft)
08.08.2018 16:49 27,1 °C 47 % 1011,0 hPa 0,0 mm 11,3 km/h (2 Bft) W 279 ° 0 min 0,000 mm 2,1 UV-I 100 W/m² 14,8 °C 27,1 °C 12,9 km/h (3 Bft)
08.08.2018 16:50 27,1 °C 46 % 1011,0 hPa 0,0 mm 5,4 km/h (1 Bft) W 271 ° 0 min 0,000 mm 2,1 UV-I 111 W/m² 14,5 °C 27,1 °C 9,7 km/h (2 Bft)
08.08.2018 16:51 27,1 °C 46 % 1011,0 hPa 0,0 mm 5,7 km/h (1 Bft) W 260 ° 0 min 0,000 mm 2,1 UV-I 113 W/m² 14,5 °C 27,1 °C 11,3 km/h (2 Bft)
08.08.2018 16:52 26,9 °C 45 % 1011,0 hPa 0,0 mm 6,6 km/h (2 Bft) NW 312 ° 0 min 0,000 mm 2,1 UV-I 118 W/m² 13,9 °C 26,9 °C 11,3 km/h (2 Bft)
08.08.2018 16:53 27,0 °C 46 % 1011,1 hPa 0,0 mm 6,7 km/h (2 Bft) W-NW 299 ° 0 min 0,000 mm 2,1 UV-I 121 W/m² 14,4 °C 27,0 °C 12,9 km/h (3 Bft)
08.08.2018 16:54 27,0 °C 46 % 1011,1 hPa 0,0 mm 5,9 km/h (2 Bft) W-NW 293 ° 0 min 0,000 mm 2,1 UV-I 121 W/m² 14,4 °C 27,0 °C 11,3 km/h (2 Bft)
08.08.2018 16:55 27,0 °C 46 % 1011,1 hPa 0,0 mm 2,3 km/h (1 Bft) W-NW 293 ° 0 min 0,000 mm 2,1 UV-I 121 W/m² 14,4 °C 27,0 °C 8,0 km/h (2 Bft)
08.08.2018 16:56 27,0 °C 45 % 1011,1 hPa 0,0 mm 5,7 km/h (1 Bft) W-NW 295 ° 0 min 0,000 mm 2,0 UV-I 123 W/m² 14,0 °C 27,0 °C 9,7 km/h (2 Bft)
08.08.2018 16:57 26,9 °C 45 % 1011,1 hPa 0,0 mm 4,6 km/h (1 Bft) W 279 ° 0 min 0,000 mm 2,0 UV-I 125 W/m² 13,9 °C 26,9 °C 6,4 km/h (2 Bft)
08.08.2018 16:58 26,9 °C 44 % 1011,1 hPa 0,0 mm 2,4 km/h (1 Bft) W 279 ° 0 min 0,000 mm 2,0 UV-I 125 W/m² 13,6 °C 26,9 °C 4,8 km/h (1 Bft)
08.08.2018 16:59 26,8 °C 45 % 1011,1 hPa 0,0 mm 1,0 km/h (0 Bft) W-NW 293 ° 0 min 0,000 mm 2,0 UV-I 123 W/m² 13,9 °C 26,8 °C 3,2 km/h (1 Bft)
08.08.2018 17:00 26,9 °C 46 % 1011,1 hPa 0,0 mm 2,3 km/h (1 Bft) NW 304 ° 0 min 0,000 mm 2,0 UV-I 120 W/m² 14,3 °C 26,9 °C 4,8 km/h (1 Bft)
08.08.2018 17:01 26,9 °C 44 % 1011,0 hPa 0,0 mm 1,5 km/h (1 Bft) NW 312 ° 0 min 0,177 mm 1,9 UV-I 111 W/m² 13,6 °C 26,9 °C 6,4 km/h (2 Bft)
08.08.2018 17:02 26,9 °C 47 % 1011,1 hPa 0,0 mm 6,3 km/h (2 Bft) NW 316 ° 0 min 0,000 mm 1,9 UV-I 109 W/m² 14,6 °C 26,9 °C 8,0 km/h (2 Bft)
08.08.2018 17:03 27,0 °C 46 % 1011,0 hPa 0,0 mm 5,4 km/h (1 Bft) W-NW 303 ° 0 min 0,000 mm 1,8 UV-I 105 W/m² 14,4 °C 27,0 °C 12,9 km/h (3 Bft)
08.08.2018 17:04 27,1 °C 45 % 1011,1 hPa 0,0 mm 5,9 km/h (2 Bft) NW 315 ° 0 min 0,000 mm 1,7 UV-I 104 W/m² 14,1 °C 27,1 °C 12,9 km/h (3 Bft)
08.08.2018 17:05 27,1 °C 46 % 1011,1 hPa 0,0 mm 4,1 km/h (1 Bft) W-NW 295 ° 0 min 0,000 mm 1,7 UV-I 104 W/m² 14,5 °C 27,1 °C 8,0 km/h (2 Bft)
08.08.2018 17:06 27,1 °C 44 % 1011,1 hPa 0,0 mm 6,2 km/h (2 Bft) NW 306 ° 0 min 0,000 mm 1,6 UV-I 102 W/m² 13,8 °C 27,1 °C 11,3 km/h (2 Bft)
08.08.2018 17:07 26,9 °C 44 % 1011,1 hPa 0,0 mm 6,6 km/h (2 Bft) W 269 ° 0 min 0,000 mm 1,6 UV-I 109 W/m² 13,6 °C 26,9 °C 11,3 km/h (2 Bft)
08.08.2018 17:08 26,8 °C 45 % 1011,1 hPa 0,0 mm 3,1 km/h (1 Bft) W 265 ° 0 min 0,000 mm 1,6 UV-I 111 W/m² 13,9 °C 26,8 °C 6,4 km/h (2 Bft)
08.08.2018 17:09 26,7 °C 48 % 1011,1 hPa 0,0 mm 2,1 km/h (1 Bft) W 275 ° 0 min 0,000 mm 1,6 UV-I 118 W/m² 14,8 °C 26,7 °C 6,4 km/h (2 Bft)
08.08.2018 17:10 26,6 °C 45 % 1011,2 hPa 0,0 mm 4,5 km/h (1 Bft) W-NW 283 ° 0 min 0,000 mm 1,6 UV-I 118 W/m² 13,7 °C 26,6 °C 9,7 km/h (2 Bft)
08.08.2018 17:11 26,6 °C 44 % 1011,1 hPa 0,0 mm 4,7 km/h (1 Bft) W-NW 292 ° 0 min 0,000 mm 1,7 UV-I 130 W/m² 13,3 °C 26,6 °C 8,0 km/h (2 Bft)
08.08.2018 17:12 26,5 °C 44 % 1011,1 hPa 0,0 mm 1,9 km/h (1 Bft) W 267 ° 0 min 0,000 mm 1,7 UV-I 135 W/m² 13,2 °C 26,5 °C 3,2 km/h (1 Bft)
08.08.2018 17:13 26,4 °C 48 % 1011,1 hPa 0,0 mm 2,8 km/h (1 Bft) W-NW 290 ° 0 min 0,000 mm 1,7 UV-I 162 W/m² 14,5 °C 26,4 °C 4,8 km/h (1 Bft)
08.08.2018 17:14 26,4 °C 45 % 1011,1 hPa 0,0 mm 2,0 km/h (1 Bft) W-NW 290 ° 0 min 0,000 mm 1,8 UV-I 171 W/m² 13,5 °C 26,4 °C 3,2 km/h (1 Bft)
08.08.2018 17:15 26,6 °C 45 % 1011,1 hPa 0,0 mm 1,9 km/h (1 Bft) N-NW 340 ° 0 min 0,000 mm 1,9 UV-I 179 W/m² 13,7 °C 26,6 °C 4,8 km/h (1 Bft)
08.08.2018 17:16 26,7 °C 46 % 1011,2 hPa 0,0 mm 4,4 km/h (1 Bft) W 279 ° 0 min 0,000 mm 2,0 UV-I 202 W/m² 14,1 °C 26,7 °C 9,7 km/h (2 Bft)
08.08.2018 17:17 26,8 °C 44 % 1011,1 hPa 0,0 mm 2,8 km/h (1 Bft) NW 318 ° 0 min 0,000 mm 2,1 UV-I 204 W/m² 13,5 °C 26,8 °C 9,7 km/h (2 Bft)
08.08.2018 17:18 26,9 °C 45 % 1011,1 hPa 0,0 mm 7,2 km/h (2 Bft) W-NW 286 ° 0 min 0,000 mm 2,2 UV-I 227 W/m² 13,9 °C 26,9 °C 9,7 km/h (2 Bft)
08.08.2018 17:19 27,0 °C 44 % 1011,1 hPa 0,0 mm 4,4 km/h (1 Bft) W-NW 286 ° 0 min 0,000 mm 2,1 UV-I 204 W/m² 13,7 °C 27,0 °C 6,4 km/h (2 Bft)
08.08.2018 17:20 27,1 °C 44 % 1011,2 hPa 0,0 mm 4,5 km/h (1 Bft) NW 318 ° 0 min 0,000 mm 2,1 UV-I 204 W/m² 13,8 °C 27,1 °C 6,4 km/h (2 Bft)
08.08.2018 17:21 27,1 °C 44 % 1011,2 hPa 0,0 mm 1,7 km/h (1 Bft) N-NW 332 ° 0 min 0,000 mm 2,1 UV-I 199 W/m² 13,8 °C 27,1 °C 4,8 km/h (1 Bft)
08.08.2018 17:22 27,1 °C 43 % 1011,1 hPa 0,0 mm 2,3 km/h (1 Bft) NW 326 ° 0 min 0,000 mm 2,1 UV-I 193 W/m² 13,4 °C 27,1 °C 3,2 km/h (1 Bft)
08.08.2018 17:23 27,1 °C 46 % 1011,2 hPa 0,0 mm 2,8 km/h (1 Bft) N-NO 16 ° 0 min 0,000 mm 2,0 UV-I 179 W/m² 14,5 °C 27,1 °C 6,4 km/h (2 Bft)
08.08.2018 17:24 27,2 °C 47 % 1011,1 hPa 0,0 mm 3,9 km/h (1 Bft) NO 34 ° 0 min 0,000 mm 2,0 UV-I 176 W/m² 14,9 °C 27,2 °C 6,4 km/h (2 Bft)
08.08.2018 17:25 27,3 °C 44 % 1011,2 hPa 0,0 mm 1,6 km/h (1 Bft) N-NO 33 ° 0 min 0,000 mm 1,9 UV-I 167 W/m² 14,0 °C 27,3 °C 3,2 km/h (1 Bft)
08.08.2018 17:26 27,3 °C 45 % 1011,1 hPa 0,0 mm 2,5 km/h (1 Bft) W 279 ° 0 min 0,000 mm 1,9 UV-I 169 W/m² 14,3 °C 27,3 °C 9,7 km/h (2 Bft)
08.08.2018 17:27 27,3 °C 45 % 1011,2 hPa 0,0 mm 3,8 km/h (1 Bft) W-NW 296 ° 0 min 0,000 mm 1,9 UV-I 162 W/m² 14,3 °C 27,3 °C 6,4 km/h (2 Bft)
08.08.2018 17:28 27,3 °C 43 % 1011,2 hPa 0,0 mm 0,3 km/h (0 Bft) W-NW 296 ° 0 min 0,000 mm 1,9 UV-I 156 W/m² 13,6 °C 27,3 °C 1,6 km/h (1 Bft)
08.08.2018 17:29 27,2 °C 45 % 1011,2 hPa 0,0 mm 0,0 km/h (0 Bft) W-NW 296 ° 0 min 0,000 mm 1,9 UV-I 149 W/m² 14,2 °C 27,2 °C 0,0 km/h (0 Bft)
08.08.2018 17:30 27,2 °C 47 % 1011,2 hPa 0,0 mm 1,1 km/h (1 Bft) W-NW 296 ° 0 min 0,000 mm 1,9 UV-I 146 W/m² 14,9 °C 27,2 °C 3,2 km/h (1 Bft)
08.08.2018 17:31 27,2 °C 46 % 1011,2 hPa 0,0 mm 1,4 km/h (1 Bft) W-NW 296 ° 0 min 0,000 mm 1,8 UV-I 135 W/m² 14,6 °C 27,2 °C 3,2 km/h (1 Bft)
08.08.2018 17:32 27,2 °C 46 % 1011,2 hPa 0,0 mm 2,0 km/h (1 Bft) W-NW 296 ° 0 min 0,000 mm 1,7 UV-I 130 W/m² 14,6 °C 27,2 °C 3,2 km/h (1 Bft)
08.08.2018 17:33 27,2 °C 46 % 1011,2 hPa 0,0 mm 2,7 km/h (1 Bft) W-NW 295 ° 0 min 0,000 mm 1,7 UV-I 125 W/m² 14,6 °C 27,2 °C 4,8 km/h (1 Bft)
08.08.2018 17:34 27,2 °C 44 % 1011,2 hPa 0,0 mm 1,4 km/h (1 Bft) W-NW 295 ° 0 min 0,000 mm 1,7 UV-I 120 W/m² 13,9 °C 27,2 °C 3,2 km/h (1 Bft)
08.08.2018 17:35 27,2 °C 44 % 1011,2 hPa 0,0 mm 1,1 km/h (1 Bft) W-NW 295 ° 0 min 0,000 mm 1,7 UV-I 118 W/m² 13,9 °C 27,2 °C 3,2 km/h (1 Bft)
08.08.2018 17:36 27,3 °C 46 % 1011,3 hPa 0,0 mm 1,7 km/h (1 Bft) W-NW 297 ° 0 min 0,000 mm 1,6 UV-I 114 W/m² 14,6 °C 27,3 °C 3,2 km/h (1 Bft)
08.08.2018 17:37 27,3 °C 48 % 1011,3 hPa 0,0 mm 3,0 km/h (1 Bft) W-NW 297 ° 0 min 0,000 mm 1,7 UV-I 128 W/m² 15,3 °C 27,3 °C 6,4 km/h (2 Bft)
08.08.2018 17:38 27,3 °C 47 % 1011,3 hPa 0,0 mm 4,7 km/h (1 Bft) W 269 ° 0 min 0,000 mm 1,7 UV-I 134 W/m² 15,0 °C 27,3 °C 6,4 km/h (2 Bft)
08.08.2018 17:39 27,2 °C 48 % 1011,3 hPa 0,0 mm 2,8 km/h (1 Bft) NW 306 ° 0 min 0,000 mm 1,7 UV-I 134 W/m² 15,2 °C 27,2 °C 4,8 km/h (1 Bft)
08.08.2018 17:40 27,1 °C 45 % 1011,3 hPa 0,0 mm 3,9 km/h (1 Bft) NW 306 ° 0 min 0,000 mm 1,6 UV-I 132 W/m² 14,1 °C 27,1 °C 6,4 km/h (2 Bft)
08.08.2018 17:41 27,0 °C 44 % 1011,3 hPa 0,0 mm 0,8 km/h (0 Bft) NW 306 ° 0 min 0,000 mm 1,6 UV-I 130 W/m² 13,7 °C 27,0 °C 3,2 km/h (1 Bft)
08.08.2018 17:42 26,9 °C 45 % 1011,3 hPa 0,0 mm 0,3 km/h (0 Bft) NW 306 ° 0 min 0,000 mm 1,5 UV-I 127 W/m² 13,9 °C 26,9 °C 1,6 km/h (1 Bft)
08.08.2018 17:43 26,9 °C 46 % 1011,2 hPa 0,0 mm 2,4 km/h (1 Bft) NW 306 ° 0 min 0,000 mm 1,5 UV-I 118 W/m² 14,3 °C 26,9 °C 3,2 km/h (1 Bft)
08.08.2018 17:44 26,8 °C 48 % 1011,2 hPa 0,0 mm 0,1 km/h (0 Bft) NW 306 ° 0 min 0,000 mm 1,5 UV-I 116 W/m² 14,9 °C 26,8 °C 1,6 km/h (1 Bft)
08.08.2018 17:45 26,7 °C 45 % 1011,2 hPa 0,0 mm 0,0 km/h (0 Bft) NW 306 ° 0 min 0,000 mm 1,5 UV-I 116 W/m² 13,8 °C 26,7 °C 0,0 km/h (0 Bft)
08.08.2018 17:46 26,6 °C 49 % 1011,2 hPa 0,0 mm 0,3 km/h (0 Bft) NW 306 ° 0 min 0,000 mm 1,4 UV-I 116 W/m² 15,0 °C 26,6 °C 1,6 km/h (1 Bft)
08.08.2018 17:47 26,5 °C 47 % 1011,2 hPa 0,0 mm 2,3 km/h (1 Bft) W-NW 284 ° 0 min 0,000 mm 1,4 UV-I 114 W/m² 14,3 °C 26,5 °C 4,8 km/h (1 Bft)
08.08.2018 17:48 26,4 °C 54 % 1011,2 hPa 0,0 mm 1,7 km/h (1 Bft) W-NW 284 ° 0 min 0,000 mm 1,4 UV-I 118 W/m² 16,3 °C 26,4 °C 3,2 km/h (1 Bft)
08.08.2018 17:49 26,4 °C 47 % 1011,1 hPa 0,0 mm 0,7 km/h (0 Bft) W-NW 284 ° 0 min 0,000 mm 1,4 UV-I 118 W/m² 14,2 °C 26,4 °C 1,6 km/h (1 Bft)
08.08.2018 17:50 26,4 °C 48 % 1011,2 hPa 0,0 mm 0,7 km/h (0 Bft) W-NW 284 ° 0 min 0,000 mm 1,4 UV-I 116 W/m² 14,5 °C 26,4 °C 1,6 km/h (1 Bft)
08.08.2018 17:51 26,4 °C 49 % 1011,1 hPa 0,0 mm 0,3 km/h (0 Bft) W-NW 284 ° 0 min 0,000 mm 1,4 UV-I 111 W/m² 14,8 °C 26,4 °C 1,6 km/h (1 Bft)
08.08.2018 17:52 26,4 °C 51 % 1011,2 hPa 0,0 mm 0,0 km/h (0 Bft) W-NW 284 ° 0 min 0,000 mm 1,4 UV-I 109 W/m² 15,4 °C 26,4 °C 0,0 km/h (0 Bft)
08.08.2018 17:53 26,3 °C 51 % 1011,1 hPa 0,0 mm 0,0 km/h (0 Bft) W-NW 284 ° 0 min 0,000 mm 1,4 UV-I 109 W/m² 15,3 °C 26,3 °C 0,0 km/h (0 Bft)
08.08.2018 17:54 26,2 °C 51 % 1011,2 hPa 0,0 mm 0,0 km/h (0 Bft) W-NW 284 ° 0 min 0,000 mm 1,4 UV-I 105 W/m² 15,2 °C 26,2 °C 0,0 km/h (0 Bft)
08.08.2018 17:55 26,2 °C 50 % 1011,2 hPa 0,0 mm 0,0 km/h (0 Bft) W-NW 284 ° 0 min 0,000 mm 1,3 UV-I 100 W/m² 14,9 °C 26,2 °C 0,0 km/h (0 Bft)
08.08.2018 17:56 26,1 °C 51 % 1011,2 hPa 0,0 mm 0,0 km/h (0 Bft) W-NW 284 ° 0 min 0,000 mm 1,3 UV-I 97 W/m² 15,2 °C 26,1 °C 0,0 km/h (0 Bft)
08.08.2018 17:57 26,0 °C 52 % 1011,2 hPa 0,0 mm 0,0 km/h (0 Bft) W-NW 284 ° 0 min 0,000 mm 1,3 UV-I 91 W/m² 15,4 °C 26,0 °C 0,0 km/h (0 Bft)
08.08.2018 17:58 25,9 °C 58 % 1011,1 hPa 0,0 mm 0,0 km/h (0 Bft) W-NW 284 ° 0 min 0,000 mm 1,3 UV-I 90 W/m² 17,0 °C 25,9 °C 0,0 km/h (0 Bft)
08.08.2018 17:59 25,8 °C 54 % 1011,1 hPa 0,0 mm 0,0 km/h (0 Bft) W-NW 284 ° 0 min 0,000 mm 1,3 UV-I 93 W/m² 15,8 °C 25,8 °C 0,0 km/h (0 Bft)
08.08.2018 18:00 25,8 °C 53 % 1011,2 hPa 0,0 mm 0,0 km/h (0 Bft) W-NW 284 ° 0 min 0,000 mm 1,3 UV-I 97 W/m² 15,5 °C 25,8 °C 0,0 km/h (0 Bft)
08.08.2018 18:01 25,8 °C 53 % 1011,2 hPa 0,0 mm 0,0 km/h (0 Bft) W-NW 284 ° 0 min 0,127 mm 1,3 UV-I 97 W/m² 15,5 °C 25,8 °C 0,0 km/h (0 Bft)
08.08.2018 18:02 25,8 °C 53 % 1011,2 hPa 0,0 mm 0,0 km/h (0 Bft) W-NW 284 ° 0 min 0,000 mm 1,3 UV-I 97 W/m² 15,5 °C 25,8 °C 0,0 km/h (0 Bft)
08.08.2018 18:03 25,9 °C 56 % 1011,1 hPa 0,0 mm 0,0 km/h (0 Bft) W-NW 284 ° 0 min 0,000 mm 1,2 UV-I 100 W/m² 16,4 °C 25,9 °C 0,0 km/h (0 Bft)
08.08.2018 18:04 25,9 °C 54 % 1011,2 hPa 0,0 mm 0,0 km/h (0 Bft) W-NW 284 ° 0 min 0,000 mm 1,2 UV-I 98 W/m² 15,9 °C 25,9 °C 0,0 km/h (0 Bft)
08.08.2018 18:05 26,1 °C 50 % 1011,2 hPa 0,0 mm 0,0 km/h (0 Bft) W-NW 284 ° 0 min 0,000 mm 1,2 UV-I 98 W/m² 14,8 °C 26,1 °C 0,0 km/h (0 Bft)
08.08.2018 18:06 26,2 °C 50 % 1011,2 hPa 0,0 mm 0,0 km/h (0 Bft) W-NW 284 ° 0 min 0,000 mm 1,2 UV-I 104 W/m² 14,9 °C 26,2 °C 0,0 km/h (0 Bft)
08.08.2018 18:07 26,3 °C 48 % 1011,2 hPa 0,0 mm 0,0 km/h (0 Bft) W-NW 284 ° 0 min 0,000 mm 1,2 UV-I 107 W/m² 14,4 °C 26,3 °C 0,0 km/h (0 Bft)
08.08.2018 18:08 26,4 °C 49 % 1011,2 hPa 0,0 mm 0,7 km/h (0 Bft) W-NW 284 ° 0 min 0,000 mm 1,2 UV-I 105 W/m² 14,8 °C 26,4 °C 3,2 km/h (1 Bft)
08.08.2018 18:09 26,4 °C 48 % 1011,3 hPa 0,0 mm 0,8 km/h (0 Bft) W-NW 284 ° 0 min 0,000 mm 1,2 UV-I 104 W/m² 14,5 °C 26,4 °C 3,2 km/h (1 Bft)
08.08.2018 18:10 26,5 °C 51 % 1011,2 hPa 0,0 mm 0,0 km/h (0 Bft) W-NW 284 ° 0 min 0,000 mm 1,2 UV-I 107 W/m² 15,5 °C 26,5 °C 0,0 km/h (0 Bft)
08.08.2018 18:11 26,6 °C 47 % 1011,3 hPa 0,0 mm 0,1 km/h (0 Bft) W-NW 284 ° 0 min 0,000 mm 1,2 UV-I 102 W/m² 14,3 °C 26,6 °C 1,6 km/h (1 Bft)
08.08.2018 18:12 26,5 °C 48 % 1011,2 hPa 0,0 mm 0,3 km/h (0 Bft) W-NW 284 ° 0 min 0,000 mm 1,2 UV-I 102 W/m² 14,6 °C 26,5 °C 1,6 km/h (1 Bft)
08.08.2018 18:13 26,5 °C 51 % 1011,3 hPa 0,0 mm 0,1 km/h (0 Bft) W-NW 284 ° 0 min 0,000 mm 1,2 UV-I 102 W/m² 15,5 °C 26,5 °C 1,6 km/h (1 Bft)
08.08.2018 18:14 26,4 °C 53 % 1011,2 hPa 0,0 mm 1,5 km/h (1 Bft) W-NW 284 ° 0 min 0,000 mm 1,1 UV-I 100 W/m² 16,0 °C 26,4 °C 3,2 km/h (1 Bft)
08.08.2018 18:15 26,3 °C 52 % 1011,3 hPa 0,0 mm 0,4 km/h (0 Bft) W-NW 284 ° 0 min 0,000 mm 1,1 UV-I 98 W/m² 15,6 °C 26,3 °C 1,6 km/h (1 Bft)
08.08.2018 18:16 26,2 °C 50 % 1011,3 hPa 0,0 mm 0,0 km/h (0 Bft) W-NW 284 ° 0 min 0,000 mm 1,1 UV-I 95 W/m² 14,9 °C 26,2 °C 0,0 km/h (0 Bft)
08.08.2018 18:17 26,2 °C 50 % 1011,3 hPa 0,0 mm 0,0 km/h (0 Bft) W-NW 284 ° 0 min 0,000 mm 1,1 UV-I 91 W/m² 14,9 °C 26,2 °C 0,0 km/h (0 Bft)
08.08.2018 18:18 26,1 °C 53 % 1011,3 hPa 0,0 mm 0,0 km/h (0 Bft) W-NW 284 ° 0 min 0,000 mm 1,0 UV-I 83 W/m² 15,8 °C 26,1 °C 0,0 km/h (0 Bft)
08.08.2018 18:19 25,9 °C 55 % 1011,3 hPa 0,0 mm 0,0 km/h (0 Bft) W-NW 284 ° 0 min 0,000 mm 1,0 UV-I 81 W/m² 16,2 °C 25,9 °C 0,0 km/h (0 Bft)
08.08.2018 18:20 25,8 °C 54 % 1011,3 hPa 0,0 mm 0,0 km/h (0 Bft) W-NW 284 ° 0 min 0,000 mm 1,0 UV-I 79 W/m² 15,8 °C 25,8 °C 0,0 km/h (0 Bft)
08.08.2018 18:21 25,7 °C 52 % 1011,3 hPa 0,0 mm 0,0 km/h (0 Bft) W-NW 284 ° 0 min 0,000 mm 0,9 UV-I 81 W/m² 15,1 °C 25,7 °C 0,0 km/h (0 Bft)
08.08.2018 18:22 25,7 °C 53 % 1011,3 hPa 0,0 mm 0,0 km/h (0 Bft) W-NW 284 ° 0 min 0,000 mm 0,9 UV-I 84 W/m² 15,4 °C 25,7 °C 0,0 km/h (0 Bft)
08.08.2018 18:23 25,7 °C 55 % 1011,3 hPa 0,0 mm 0,0 km/h (0 Bft) W-NW 284 ° 0 min 0,000 mm 0,9 UV-I 86 W/m² 16,0 °C 25,7 °C 0,0 km/h (0 Bft)
08.08.2018 18:24 25,7 °C 54 % 1011,3 hPa 0,0 mm 0,0 km/h (0 Bft) W-NW 284 ° 0 min 0,000 mm 0,9 UV-I 86 W/m² 15,7 °C 25,7 °C 0,0 km/h (0 Bft)
08.08.2018 18:25 25,6 °C 55 % 1011,3 hPa 0,0 mm 0,0 km/h (0 Bft) W-NW 284 ° 0 min 0,000 mm 0,8 UV-I 86 W/m² 15,9 °C 25,6 °C 0,0 km/h (0 Bft)
08.08.2018 18:26 25,4 °C 60 % 1011,3 hPa 0,0 mm 0,0 km/h (0 Bft) W-NW 284 ° 0 min 0,000 mm 0,8 UV-I 86 W/m² 17,1 °C 25,4 °C 0,0 km/h (0 Bft)
08.08.2018 18:27 25,3 °C 58 % 1011,3 hPa 0,0 mm 0,0 km/h (0 Bft) W-NW 284 ° 0 min 0,000 mm 0,8 UV-I 88 W/m² 16,4 °C 25,3 °C 0,0 km/h (0 Bft)
08.08.2018 18:28 25,2 °C 58 % 1011,3 hPa 0,0 mm 0,0 km/h (0 Bft) W-NW 284 ° 0 min 0,000 mm 0,8 UV-I 88 W/m² 16,3 °C 25,2 °C 0,0 km/h (0 Bft)
08.08.2018 18:29 25,1 °C 57 % 1011,3 hPa 0,0 mm 0,0 km/h (0 Bft) W-NW 284 ° 0 min 0,000 mm 0,7 UV-I 81 W/m² 16,0 °C 25,1 °C 0,0 km/h (0 Bft)
08.08.2018 18:30 25,1 °C 59 % 1011,3 hPa 0,0 mm 0,1 km/h (0 Bft) W-NW 284 ° 0 min 0,000 mm 0,7 UV-I 77 W/m² 16,5 °C 25,1 °C 1,6 km/h (1 Bft)
08.08.2018 18:31 24,9 °C 62 % 1011,3 hPa 0,0 mm 0,9 km/h (0 Bft) W-NW 285 ° 0 min 0,000 mm 0,6 UV-I 74 W/m² 17,1 °C 24,9 °C 3,2 km/h (1 Bft)
08.08.2018 18:32 24,9 °C 62 % 1011,4 hPa 0,0 mm 6,6 km/h (2 Bft) NO 38 ° 0 min 0,000 mm 0,6 UV-I 72 W/m² 17,1 °C 24,9 °C 9,7 km/h (2 Bft)
08.08.2018 18:33 25,0 °C 57 % 1011,3 hPa 0,0 mm 7,2 km/h (2 Bft) NO 45 ° 0 min 0,000 mm 0,5 UV-I 67 W/m² 15,9 °C 25,0 °C 9,7 km/h (2 Bft)
08.08.2018 18:34 25,2 °C 57 % 1011,4 hPa 0,0 mm 1,3 km/h (1 Bft) NO 45 ° 0 min 0,000 mm 0,5 UV-I 62 W/m² 16,1 °C 25,2 °C 4,8 km/h (1 Bft)
08.08.2018 18:35 25,4 °C 56 % 1011,4 hPa 0,0 mm 2,7 km/h (1 Bft) O 91 ° 0 min 0,000 mm 0,5 UV-I 53 W/m² 16,0 °C 25,4 °C 4,8 km/h (1 Bft)
08.08.2018 18:36 25,6 °C 56 % 1011,3 hPa 0,0 mm 4,6 km/h (1 Bft) O-NO 71 ° 0 min 0,000 mm 0,0 UV-I 49 W/m² 16,2 °C 25,6 °C 8,0 km/h (2 Bft)
08.08.2018 18:37 25,6 °C 56 % 1011,3 hPa 0,0 mm 6,4 km/h (2 Bft) O 87 ° 0 min 0,000 mm 0,0 UV-I 47 W/m² 16,2 °C 25,6 °C 8,0 km/h (2 Bft)
08.08.2018 18:38 25,7 °C 56 % 1011,3 hPa 0,0 mm 4,0 km/h (1 Bft) O-NO 69 ° 0 min 0,000 mm 0,0 UV-I 44 W/m² 16,2 °C 25,7 °C 6,4 km/h (2 Bft)
08.08.2018 18:39 25,8 °C 57 % 1011,4 hPa 0,0 mm 3,1 km/h (1 Bft) O 89 ° 0 min 0,000 mm 0,0 UV-I 42 W/m² 16,6 °C 25,8 °C 6,4 km/h (2 Bft)
08.08.2018 18:40 25,7 °C 56 % 1011,3 hPa 0,0 mm 1,5 km/h (1 Bft) O 89 ° 0 min 0,000 mm 0,0 UV-I 40 W/m² 16,2 °C 25,7 °C 1,6 km/h (1 Bft)
08.08.2018 18:41 25,8 °C 56 % 1011,3 hPa 0,0 mm 1,4 km/h (1 Bft) O-NO 73 ° 0 min 0,000 mm 0,0 UV-I 40 W/m² 16,3 °C 25,8 °C 4,8 km/h (1 Bft)
08.08.2018 18:42 25,7 °C 57 % 1011,4 hPa 0,0 mm 3,3 km/h (1 Bft) O-NO 69 ° 0 min 0,000 mm 0,0 UV-I 39 W/m² 16,5 °C 25,7 °C 4,8 km/h (1 Bft)
08.08.2018 18:43 25,7 °C 56 % 1011,4 hPa 0,0 mm 0,4 km/h (0 Bft) O-NO 69 ° 0 min 0,000 mm 0,0 UV-I 39 W/m² 16,2 °C 25,7 °C 3,2 km/h (1 Bft)
08.08.2018 18:44 25,6 °C 57 % 1011,4 hPa 0,0 mm 0,6 km/h (0 Bft) O 79 ° 0 min 0,000 mm 0,0 UV-I 39 W/m² 16,4 °C 25,6 °C 4,8 km/h (1 Bft)
08.08.2018 18:45 25,6 °C 57 % 1011,5 hPa 0,0 mm 1,4 km/h (1 Bft) O 86 ° 0 min 0,000 mm 0,0 UV-I 40 W/m² 16,4 °C 25,6 °C 4,8 km/h (1 Bft)
08.08.2018 18:46 25,6 °C 57 % 1011,5 hPa 0,0 mm 0,6 km/h (0 Bft) O 86 ° 0 min 0,000 mm 0,0 UV-I 40 W/m² 16,4 °C 25,6 °C 3,2 km/h (1 Bft)
08.08.2018 18:47 25,5 °C 57 % 1011,4 hPa 0,0 mm 0,2 km/h (0 Bft) O 86 ° 0 min 0,000 mm 0,0 UV-I 42 W/m² 16,3 °C 25,5 °C 1,6 km/h (1 Bft)
08.08.2018 18:48 25,5 °C 57 % 1011,4 hPa 0,0 mm 0,0 km/h (0 Bft) O 86 ° 0 min 0,000 mm 0,0 UV-I 42 W/m² 16,3 °C 25,5 °C 0,0 km/h (0 Bft)
08.08.2018 18:49 25,4 °C 58 % 1011,4 hPa 0,0 mm 0,0 km/h (0 Bft) O 86 ° 0 min 0,000 mm 0,0 UV-I 42 W/m² 16,5 °C 25,4 °C 0,0 km/h (0 Bft)
08.08.2018 18:50 25,4 °C 57 % 1011,4 hPa 0,0 mm 0,0 km/h (0 Bft) O 86 ° 0 min 0,000 mm 0,0 UV-I 42 W/m² 16,2 °C 25,4 °C 0,0 km/h (0 Bft)
08.08.2018 18:51 25,3 °C 59 % 1011,4 hPa 0,0 mm 0,7 km/h (0 Bft) O 86 ° 0 min 0,000 mm 0,0 UV-I 44 W/m² 16,7 °C 25,3 °C 1,6 km/h (1 Bft)
08.08.2018 18:52 25,3 °C 57 % 1011,4 hPa 0,0 mm 0,6 km/h (0 Bft) O 86 ° 0 min 0,000 mm 0,0 UV-I 46 W/m² 16,2 °C 25,3 °C 1,6 km/h (1 Bft)
08.08.2018 18:53 25,3 °C 58 % 1011,4 hPa 0,0 mm 1,2 km/h (1 Bft) O 86 ° 0 min 0,000 mm 0,0 UV-I 49 W/m² 16,4 °C 25,3 °C 3,2 km/h (1 Bft)
08.08.2018 18:54 25,3 °C 59 % 1011,4 hPa 0,0 mm 1,5 km/h (1 Bft) O 86 ° 0 min 0,000 mm 0,0 UV-I 51 W/m² 16,7 °C 25,3 °C 3,2 km/h (1 Bft)
08.08.2018 18:55 25,3 °C 57 % 1011,4 hPa 0,0 mm 0,6 km/h (0 Bft) O 86 ° 0 min 0,000 mm 0,0 UV-I 53 W/m² 16,2 °C 25,3 °C 1,6 km/h (1 Bft)
08.08.2018 18:56 25,3 °C 58 % 1011,4 hPa 0,0 mm 0,1 km/h (0 Bft) O 86 ° 0 min 0,000 mm 0,0 UV-I 54 W/m² 16,4 °C 25,3 °C 1,6 km/h (1 Bft)
08.08.2018 18:57 25,3 °C 57 % 1011,4 hPa 0,0 mm 1,0 km/h (0 Bft) O 86 ° 0 min 0,000 mm 0,0 UV-I 54 W/m² 16,2 °C 25,3 °C 1,6 km/h (1 Bft)
08.08.2018 18:58 25,3 °C 57 % 1011,4 hPa 0,0 mm 0,0 km/h (0 Bft) O 86 ° 0 min 0,000 mm 0,0 UV-I 56 W/m² 16,2 °C 25,3 °C 0,0 km/h (0 Bft)
08.08.2018 18:59 25,3 °C 57 % 1011,4 hPa 0,0 mm 0,0 km/h (0 Bft) O 86 ° 0 min 0,000 mm 0,0 UV-I 58 W/m² 16,2 °C 25,3 °C 0,0 km/h (0 Bft)
08.08.2018 19:00 25,2 °C 59 % 1011,4 hPa 0,0 mm 0,1 km/h (0 Bft) O 86 ° 0 min 0,000 mm 0,0 UV-I 58 W/m² 16,6 °C 25,2 °C 1,6 km/h (1 Bft)
08.08.2018 19:01 25,2 °C 58 % 1011,4 hPa 0,0 mm 0,1 km/h (0 Bft) O 86 ° 0 min 0,051 mm 0,0 UV-I 58 W/m² 16,3 °C 25,2 °C 1,6 km/h (1 Bft)
08.08.2018 19:02 25,2 °C 58 % 1011,4 hPa 0,0 mm 0,0 km/h (0 Bft) O 86 ° 0 min 0,000 mm 0,0 UV-I 56 W/m² 16,3 °C 25,2 °C 0,0 km/h (0 Bft)
08.08.2018 19:03 25,2 °C 58 % 1011,4 hPa 0,0 mm 0,0 km/h (0 Bft) O 86 ° 0 min 0,000 mm 0,0 UV-I 56 W/m² 16,3 °C 25,2 °C 0,0 km/h (0 Bft)
08.08.2018 19:04 25,2 °C 58 % 1011,5 hPa 0,0 mm 0,0 km/h (0 Bft) O 86 ° 0 min 0,000 mm 0,0 UV-I 53 W/m² 16,3 °C 25,2 °C 0,0 km/h (0 Bft)
08.08.2018 19:05 25,2 °C 59 % 1011,5 hPa 0,0 mm 0,0 km/h (0 Bft) O 86 ° 0 min 0,000 mm 0,0 UV-I 51 W/m² 16,6 °C 25,2 °C 0,0 km/h (0 Bft)
08.08.2018 19:06 25,1 °C 59 % 1011,5 hPa 0,0 mm 0,0 km/h (0 Bft) O 86 ° 0 min 0,000 mm 0,0 UV-I 49 W/m² 16,5 °C 25,1 °C 0,0 km/h (0 Bft)
08.08.2018 19:07 25,1 °C 59 % 1011,5 hPa 0,0 mm 0,0 km/h (0 Bft) O 86 ° 0 min 0,000 mm 0,0 UV-I 49 W/m² 16,5 °C 25,1 °C 0,0 km/h (0 Bft)
08.08.2018 19:08 25,1 °C 59 % 1011,5 hPa 0,0 mm 0,0 km/h (0 Bft) O 86 ° 0 min 0,000 mm 0,0 UV-I 49 W/m² 16,5 °C 25,1 °C 0,0 km/h (0 Bft)
08.08.2018 19:09 25,1 °C 61 % 1011,5 hPa 0,0 mm 0,0 km/h (0 Bft) O 86 ° 0 min 0,000 mm 0,0 UV-I 47 W/m² 17,0 °C 25,1 °C 0,0 km/h (0 Bft)
08.08.2018 19:10 25,0 °C 60 % 1011,5 hPa 0,0 mm 0,0 km/h (0 Bft) O 86 ° 0 min 0,000 mm 0,0 UV-I 47 W/m² 16,7 °C 25,0 °C 0,0 km/h (0 Bft)
08.08.2018 19:11 24,9 °C 59 % 1011,6 hPa 0,0 mm 0,0 km/h (0 Bft) O 86 ° 0 min 0,000 mm 0,0 UV-I 47 W/m² 16,3 °C 24,9 °C 0,0 km/h (0 Bft)
08.08.2018 19:12 24,8 °C 67 % 1011,6 hPa 0,0 mm 0,0 km/h (0 Bft) O 86 ° 0 min 0,000 mm 0,0 UV-I 47 W/m² 18,2 °C 24,8 °C 0,0 km/h (0 Bft)
08.08.2018 19:13 24,6 °C 66 % 1011,6 hPa 0,0 mm 0,0 km/h (0 Bft) O 86 ° 0 min 0,000 mm 0,0 UV-I 46 W/m² 17,8 °C 24,6 °C 0,0 km/h (0 Bft)
08.08.2018 19:14 24,4 °C 65 % 1011,6 hPa 0,0 mm 0,0 km/h (0 Bft) O 86 ° 0 min 0,000 mm 0,0 UV-I 44 W/m² 17,4 °C 24,4 °C 0,0 km/h (0 Bft)
08.08.2018 19:15 24,3 °C 64 % 1011,6 hPa 0,0 mm 0,0 km/h (0 Bft) O 86 ° 0 min 0,000 mm 0,0 UV-I 42 W/m² 17,0 °C 24,3 °C 0,0 km/h (0 Bft)
08.08.2018 19:16 24,3 °C 64 % 1011,5 hPa 0,0 mm 0,0 km/h (0 Bft) O 86 ° 0 min 0,000 mm 0,0 UV-I 37 W/m² 17,0 °C 24,3 °C 0,0 km/h (0 Bft)
08.08.2018 19:17 24,2 °C 68 % 1011,6 hPa 0,0 mm 0,0 km/h (0 Bft) O 86 ° 0 min 0,000 mm 0,0 UV-I 35 W/m² 17,9 °C 24,2 °C 0,0 km/h (0 Bft)
08.08.2018 19:18 24,1 °C 65 % 1011,5 hPa 0,0 mm 0,0 km/h (0 Bft) O 86 ° 0 min 0,000 mm 0,0 UV-I 33 W/m² 17,1 °C 24,1 °C 0,0 km/h (0 Bft)
08.08.2018 19:19 24,1 °C 66 % 1011,5 hPa 0,0 mm 0,0 km/h (0 Bft) O 86 ° 0 min 0,000 mm 0,0 UV-I 32 W/m² 17,3 °C 24,1 °C 0,0 km/h (0 Bft)
08.08.2018 19:20 24,1 °C 66 % 1011,5 hPa 0,0 mm 0,0 km/h (0 Bft) O 86 ° 0 min 0,000 mm 0,0 UV-I 32 W/m² 17,3 °C 24,1 °C 0,0 km/h (0 Bft)
08.08.2018 19:21 24,1 °C 65 % 1011,5 hPa 0,0 mm 0,0 km/h (0 Bft) O 86 ° 0 min 0,000 mm 0,0 UV-I 28 W/m² 17,1 °C 24,1 °C 0,0 km/h (0 Bft)
08.08.2018 19:22 24,1 °C 64 % 1011,5 hPa 0,0 mm 0,0 km/h (0 Bft) O 86 ° 0 min 0,000 mm 0,0 UV-I 28 W/m² 16,9 °C 24,1 °C 0,0 km/h (0 Bft)
08.08.2018 19:23 24,1 °C 64 % 1011,4 hPa 0,0 mm 0,0 km/h (0 Bft) O 86 ° 0 min 0,000 mm 0,0 UV-I 28 W/m² 16,9 °C 24,1 °C 0,0 km/h (0 Bft)
08.08.2018 19:24 24,1 °C 67 % 1011,4 hPa 0,0 mm 0,0 km/h (0 Bft) O 86 ° 0 min 0,000 mm 0,0 UV-I 28 W/m² 17,6 °C 24,1 °C 0,0 km/h (0 Bft)
08.08.2018 19:25 23,9 °C 67 % 1011,5 hPa 0,0 mm 0,0 km/h (0 Bft) O 86 ° 0 min 0,000 mm 0,0 UV-I 28 W/m² 17,4 °C 23,9 °C 0,0 km/h (0 Bft)
08.08.2018 19:26 23,8 °C 66 % 1011,4 hPa 0,0 mm 0,0 km/h (0 Bft) O 86 ° 0 min 0,000 mm 0,0 UV-I 28 W/m² 17,1 °C 23,8 °C 0,0 km/h (0 Bft)
08.08.2018 19:27 23,8 °C 65 % 1011,5 hPa 0,0 mm 0,0 km/h (0 Bft) O 86 ° 0 min 0,000 mm 0,0 UV-I 28 W/m² 16,8 °C 23,8 °C 0,0 km/h (0 Bft)
08.08.2018 19:28 23,8 °C 64 % 1011,5 hPa 0,0 mm 0,0 km/h (0 Bft) O 86 ° 0 min 0,000 mm 0,0 UV-I 28 W/m² 16,6 °C 23,8 °C 0,0 km/h (0 Bft)
08.08.2018 19:29 23,8 °C 66 % 1011,5 hPa 0,0 mm 0,0 km/h (0 Bft) O 86 ° 0 min 0,000 mm 0,0 UV-I 28 W/m² 17,1 °C 23,8 °C 0,0 km/h (0 Bft)
08.08.2018 19:30 23,8 °C 66 % 1011,5 hPa 0,0 mm 0,0 km/h (0 Bft) O 86 ° 0 min 0,000 mm 0,0 UV-I 26 W/m² 17,1 °C 23,8 °C 0,0 km/h (0 Bft)
08.08.2018 19:31 23,8 °C 66 % 1011,5 hPa 0,0 mm 0,0 km/h (0 Bft) O 86 ° 0 min 0,000 mm 0,0 UV-I 26 W/m² 17,1 °C 23,8 °C 0,0 km/h (0 Bft)
08.08.2018 19:32 23,8 °C 64 % 1011,5 hPa 0,0 mm 0,0 km/h (0 Bft) O 86 ° 0 min 0,000 mm 0,0 UV-I 25 W/m² 16,6 °C 23,8 °C 0,0 km/h (0 Bft)
08.08.2018 19:33 23,7 °C 66 % 1011,5 hPa 0,0 mm 0,0 km/h (0 Bft) O 86 ° 0 min 0,000 mm 0,0 UV-I 25 W/m² 17,0 °C 23,7 °C 0,0 km/h (0 Bft)
08.08.2018 19:34 23,7 °C 65 % 1011,5 hPa 0,0 mm 0,0 km/h (0 Bft) O 86 ° 0 min 0,000 mm 0,0 UV-I 25 W/m² 16,7 °C 23,7 °C 0,0 km/h (0 Bft)
08.08.2018 19:35 23,6 °C 66 % 1011,5 hPa 0,0 mm 0,0 km/h (0 Bft) O 86 ° 0 min 0,000 mm 0,0 UV-I 23 W/m² 16,9 °C 23,6 °C 0,0 km/h (0 Bft)
08.08.2018 19:36 23,6 °C 66 % 1011,5 hPa 0,0 mm 0,0 km/h (0 Bft) O 86 ° 0 min 0,000 mm 0,0 UV-I 23 W/m² 16,9 °C 23,6 °C 0,0 km/h (0 Bft)
08.08.2018 19:37 23,4 °C 69 % 1011,5 hPa 0,0 mm 0,0 km/h (0 Bft) O 86 ° 0 min 0,000 mm 0,0 UV-I 21 W/m² 17,4 °C 23,4 °C 0,0 km/h (0 Bft)
08.08.2018 19:38 23,3 °C 69 % 1011,5 hPa 0,0 mm 0,0 km/h (0 Bft) O 86 ° 0 min 0,000 mm 0,0 UV-I 19 W/m² 17,3 °C 23,3 °C 0,0 km/h (0 Bft)
08.08.2018 19:39 23,2 °C 69 % 1011,5 hPa 0,0 mm 0,0 km/h (0 Bft) O 86 ° 0 min 0,000 mm 0,0 UV-I 18 W/m² 17,2 °C 23,2 °C 0,0 km/h (0 Bft)
08.08.2018 19:40 23,1 °C 69 % 1011,4 hPa 0,0 mm 0,0 km/h (0 Bft) O 86 ° 0 min 0,000 mm 0,0 UV-I 16 W/m² 17,1 °C 23,1 °C 0,0 km/h (0 Bft)
08.08.2018 19:41 23,1 °C 66 % 1011,4 hPa 0,0 mm 0,0 km/h (0 Bft) O 86 ° 0 min 0,000 mm 0,0 UV-I 14 W/m² 16,4 °C 23,1 °C 0,0 km/h (0 Bft)
08.08.2018 19:42 23,2 °C 66 % 1011,4 hPa 0,0 mm 0,0 km/h (0 Bft) O 86 ° 0 min 0,000 mm 0,0 UV-I 14 W/m² 16,5 °C 23,2 °C 0,0 km/h (0 Bft)
08.08.2018 19:43 23,2 °C 67 % 1011,4 hPa 0,0 mm 0,0 km/h (0 Bft) O 86 ° 0 min 0,000 mm 0,0 UV-I 14 W/m² 16,7 °C 23,2 °C 0,0 km/h (0 Bft)
08.08.2018 19:44 23,2 °C 66 % 1011,4 hPa 0,0 mm 0,0 km/h (0 Bft) O 86 ° 0 min 0,000 mm 0,0 UV-I 12 W/m² 16,5 °C 23,2 °C 0,0 km/h (0 Bft)
08.08.2018 19:45 23,3 °C 66 % 1011,3 hPa 0,0 mm 0,0 km/h (0 Bft) O 86 ° 0 min 0,000 mm 0,0 UV-I 12 W/m² 16,6 °C 23,3 °C 0,0 km/h (0 Bft)
08.08.2018 19:46 23,3 °C 66 % 1011,4 hPa 0,0 mm 0,0 km/h (0 Bft) O 86 ° 0 min 0,000 mm 0,0 UV-I 11 W/m² 16,6 °C 23,3 °C 0,0 km/h (0 Bft)
08.08.2018 19:47 23,2 °C 66 % 1011,4 hPa 0,0 mm 0,0 km/h (0 Bft) O 86 ° 0 min 0,000 mm 0,0 UV-I 11 W/m² 16,5 °C 23,2 °C 0,0 km/h (0 Bft)
08.08.2018 19:48 23,2 °C 66 % 1011,4 hPa 0,0 mm 0,0 km/h (0 Bft) O 86 ° 0 min 0,000 mm 0,0 UV-I 9 W/m² 16,5 °C 23,2 °C 0,0 km/h (0 Bft)
08.08.2018 19:49 23,2 °C 66 % 1011,4 hPa 0,0 mm 0,0 km/h (0 Bft) O 86 ° 0 min 0,000 mm 0,0 UV-I 9 W/m² 16,5 °C 23,2 °C 0,0 km/h (0 Bft)
08.08.2018 19:50 23,1 °C 66 % 1011,4 hPa 0,0 mm 0,0 km/h (0 Bft) O 86 ° 0 min 0,000 mm 0,0 UV-I 9 W/m² 16,4 °C 23,1 °C 0,0 km/h (0 Bft)
08.08.2018 19:51 23,2 °C 66 % 1011,4 hPa 0,0 mm 0,0 km/h (0 Bft) O 86 ° 0 min 0,000 mm 0,0 UV-I 9 W/m² 16,5 °C 23,2 °C 0,0 km/h (0 Bft)
08.08.2018 19:52 23,1 °C 67 % 1011,4 hPa 0,0 mm 0,0 km/h (0 Bft) O 86 ° 0 min 0,000 mm 0,0 UV-I 9 W/m² 16,6 °C 23,1 °C 0,0 km/h (0 Bft)
08.08.2018 19:53 23,0 °C 67 % 1011,4 hPa 0,0 mm 0,0 km/h (0 Bft) O 86 ° 0 min 0,000 mm 0,0 UV-I 9 W/m² 16,5 °C 23,0 °C 0,0 km/h (0 Bft)
08.08.2018 19:54 22,8 °C 68 % 1011,4 hPa 0,0 mm 0,0 km/h (0 Bft) O 86 ° 0 min 0,000 mm 0,0 UV-I 9 W/m² 16,6 °C 22,8 °C 0,0 km/h (0 Bft)
08.08.2018 19:55 22,6 °C 68 % 1011,4 hPa 0,0 mm 0,0 km/h (0 Bft) O 86 ° 0 min 0,000 mm 0,0 UV-I 9 W/m² 16,4 °C 22,6 °C 0,0 km/h (0 Bft)
08.08.2018 19:56 22,6 °C 67 % 1011,5 hPa 0,0 mm 0,0 km/h (0 Bft) O 86 ° 0 min 0,000 mm 0,0 UV-I 9 W/m² 16,2 °C 22,6 °C 0,0 km/h (0 Bft)
08.08.2018 19:57 22,6 °C 68 % 1011,5 hPa 0,0 mm 0,0 km/h (0 Bft) O 86 ° 0 min 0,000 mm 0,0 UV-I 9 W/m² 16,4 °C 22,6 °C 0,0 km/h (0 Bft)
08.08.2018 19:58 22,4 °C 69 % 1011,4 hPa 0,0 mm 0,0 km/h (0 Bft) O 86 ° 0 min 0,000 mm 0,0 UV-I 7 W/m² 16,4 °C 22,4 °C 0,0 km/h (0 Bft)
08.08.2018 19:59 22,4 °C 69 % 1011,5 hPa 0,0 mm 0,0 km/h (0 Bft) O 86 ° 0 min 0,000 mm 0,0 UV-I 7 W/m² 16,4 °C 22,4 °C 0,0 km/h (0 Bft)
08.08.2018 20:00 22,3 °C 69 % 1011,4 hPa 0,0 mm 0,0 km/h (0 Bft) O 86 ° 0 min 0,026 mm 0,0 UV-I 7 W/m² 16,3 °C 22,3 °C 0,0 km/h (0 Bft)
08.08.2018 20:01 22,1 °C 71 % 1011,5 hPa 0,0 mm 0,0 km/h (0 Bft) O 86 ° 0 min 0,000 mm 0,0 UV-I 7 W/m² 16,6 °C 22,1 °C 0,0 km/h (0 Bft)
08.08.2018 20:02 22,0 °C 71 % 1011,5 hPa 0,0 mm 0,0 km/h (0 Bft) O 86 ° 0 min 0,000 mm 0,0 UV-I 7 W/m² 16,5 °C 22,0 °C 0,0 km/h (0 Bft)
08.08.2018 20:03 21,9 °C 71 % 1011,5 hPa 0,0 mm 0,0 km/h (0 Bft) O 86 ° 0 min 0,000 mm 0,0 UV-I 7 W/m² 16,4 °C 21,9 °C 0,0 km/h (0 Bft)
08.08.2018 20:04 21,9 °C 71 % 1011,5 hPa 0,0 mm 0,0 km/h (0 Bft) O 86 ° 0 min 0,000 mm 0,0 UV-I 7 W/m² 16,4 °C 21,9 °C 0,0 km/h (0 Bft)
08.08.2018 20:05 21,9 °C 72 % 1011,5 hPa 0,0 mm 0,0 km/h (0 Bft) O 86 ° 0 min 0,000 mm 0,0 UV-I 7 W/m² 16,6 °C 21,9 °C 0,0 km/h (0 Bft)
08.08.2018 20:06 21,9 °C 72 % 1011,6 hPa 0,0 mm 0,0 km/h (0 Bft) O 86 ° 0 min 0,000 mm 0,0 UV-I 7 W/m² 16,6 °C 21,9 °C 0,0 km/h (0 Bft)
08.08.2018 20:07 21,9 °C 71 % 1011,6 hPa 0,0 mm 0,0 km/h (0 Bft) O 86 ° 0 min 0,000 mm 0,0 UV-I 7 W/m² 16,4 °C 21,9 °C 0,0 km/h (0 Bft)
08.08.2018 20:08 22,0 °C 71 % 1011,6 hPa 0,0 mm 0,0 km/h (0 Bft) O 86 ° 0 min 0,000 mm 0,0 UV-I 7 W/m² 16,5 °C 22,0 °C 0,0 km/h (0 Bft)
08.08.2018 20:09 22,1 °C 71 % 1011,6 hPa 0,0 mm 0,1 km/h (0 Bft) O 86 ° 0 min 0,000 mm 0,0 UV-I 7 W/m² 16,6 °C 22,1 °C 1,6 km/h (1 Bft)
08.08.2018 20:10 21,9 °C 72 % 1011,7 hPa 0,0 mm 2,8 km/h (1 Bft) O 86 ° 0 min 0,000 mm 0,0 UV-I 7 W/m² 16,6 °C 21,9 °C 3,2 km/h (1 Bft)
08.08.2018 20:11 21,8 °C 73 % 1011,7 hPa 0,0 mm 2,4 km/h (1 Bft) O 86 ° 0 min 0,000 mm 0,0 UV-I 7 W/m² 16,7 °C 21,8 °C 3,2 km/h (1 Bft)
08.08.2018 20:12 21,8 °C 73 % 1011,8 hPa 0,0 mm 2,7 km/h (1 Bft) O 86 ° 0 min 0,000 mm 0,0 UV-I 5 W/m² 16,7 °C 21,8 °C 3,2 km/h (1 Bft)
08.08.2018 20:13 21,6 °C 74 % 1011,8 hPa 0,0 mm 2,3 km/h (1 Bft) O 86 ° 0 min 0,000 mm 0,0 UV-I 5 W/m² 16,8 °C 21,6 °C 3,2 km/h (1 Bft)
08.08.2018 20:14 21,5 °C 75 % 1011,8 hPa 0,0 mm 2,5 km/h (1 Bft) O 86 ° 0 min 0,000 mm 0,0 UV-I 5 W/m² 16,9 °C 21,5 °C 3,2 km/h (1 Bft)
08.08.2018 20:15 21,5 °C 74 % 1011,8 hPa 0,0 mm 0,1 km/h (0 Bft) O 86 ° 0 min 0,000 mm 0,0 UV-I 5 W/m² 16,7 °C 21,5 °C 1,6 km/h (1 Bft)
08.08.2018 20:16 21,5 °C 74 % 1011,8 hPa 0,0 mm 0,1 km/h (0 Bft) O 86 ° 0 min 0,000 mm 0,0 UV-I 5 W/m² 16,7 °C 21,5 °C 1,6 km/h (1 Bft)
08.08.2018 20:17 21,6 °C 74 % 1011,8 hPa 0,0 mm 0,0 km/h (0 Bft) O 86 ° 0 min 0,000 mm 0,0 UV-I 5 W/m² 16,8 °C 21,6 °C 0,0 km/h (0 Bft)
08.08.2018 20:18 21,6 °C 73 % 1011,8 hPa 0,0 mm 0,0 km/h (0 Bft) O 86 ° 0 min 0,000 mm 0,0 UV-I 5 W/m² 16,5 °C 21,6 °C 0,0 km/h (0 Bft)
08.08.2018 20:19 21,7 °C 73 % 1011,8 hPa 0,0 mm 0,0 km/h (0 Bft) O 86 ° 0 min 0,000 mm 0,0 UV-I 5 W/m² 16,6 °C 21,7 °C 0,0 km/h (0 Bft)
08.08.2018 20:20 21,7 °C 74 % 1011,9 hPa 0,0 mm 0,0 km/h (0 Bft) O 86 ° 0 min 0,000 mm 0,0 UV-I 0 W/m² 16,9 °C 21,7 °C 0,0 km/h (0 Bft)
08.08.2018 20:21 21,6 °C 74 % 1011,8 hPa 0,0 mm 0,0 km/h (0 Bft) O 86 ° 0 min 0,000 mm 0,0 UV-I 0 W/m² 16,8 °C 21,6 °C 0,0 km/h (0 Bft)
08.08.2018 20:22 21,6 °C 74 % 1011,9 hPa 0,0 mm 0,0 km/h (0 Bft) O 86 ° 0 min 0,000 mm 0,0 UV-I 0 W/m² 16,8 °C 21,6 °C 0,0 km/h (0 Bft)
08.08.2018 20:23 21,6 °C 73 % 1011,9 hPa 0,0 mm 0,0 km/h (0 Bft) O 86 ° 0 min 0,000 mm 0,0 UV-I 0 W/m² 16,5 °C 21,6 °C 0,0 km/h (0 Bft)
08.08.2018 20:24 21,6 °C 73 % 1011,9 hPa 0,0 mm 0,0 km/h (0 Bft) O 86 ° 0 min 0,000 mm 0,0 UV-I 0 W/m² 16,5 °C 21,6 °C 0,0 km/h (0 Bft)
08.08.2018 20:25 21,6 °C 74 % 1012,0 hPa 0,0 mm 0,0 km/h (0 Bft) O 86 ° 0 min 0,000 mm 0,0 UV-I 0 W/m² 16,8 °C 21,6 °C 0,0 km/h (0 Bft)
08.08.2018 20:26 21,4 °C 74 % 1011,9 hPa 0,0 mm 0,0 km/h (0 Bft) O 86 ° 0 min 0,000 mm 0,0 UV-I 0 W/m² 16,6 °C 21,4 °C 0,0 km/h (0 Bft)
08.08.2018 20:27 21,4 °C 74 % 1012,0 hPa 0,0 mm 0,0 km/h (0 Bft) O 86 ° 0 min 0,000 mm 0,0 UV-I 0 W/m² 16,6 °C 21,4 °C 0,0 km/h (0 Bft)
08.08.2018 20:28 21,3 °C 74 % 1012,0 hPa 0,0 mm 0,0 km/h (0 Bft) O 86 ° 0 min 0,000 mm 0,0 UV-I 0 W/m² 16,5 °C 21,3 °C 0,0 km/h (0 Bft)
08.08.2018 20:29 21,2 °C 75 % 1012,0 hPa 0,0 mm 0,0 km/h (0 Bft) O 86 ° 0 min 0,000 mm 0,0 UV-I 0 W/m² 16,6 °C 21,2 °C 0,0 km/h (0 Bft)
08.08.2018 20:30 21,2 °C 75 % 1012,0 hPa 0,0 mm 0,0 km/h (0 Bft) O 86 ° 0 min 0,000 mm 0,0 UV-I 0 W/m² 16,6 °C 21,2 °C 0,0 km/h (0 Bft)
08.08.2018 20:31 21,1 °C 75 % 1012,0 hPa 0,0 mm 0,0 km/h (0 Bft) O 86 ° 0 min 0,000 mm 0,0 UV-I 0 W/m² 16,5 °C 21,1 °C 0,0 km/h (0 Bft)
08.08.2018 20:32 21,1 °C 75 % 1012,0 hPa 0,0 mm 0,0 km/h (0 Bft) O 86 ° 0 min 0,000 mm 0,0 UV-I 0 W/m² 16,5 °C 21,1 °C 0,0 km/h (0 Bft)
08.08.2018 20:33 21,0 °C 75 % 1012,1 hPa 0,0 mm 0,0 km/h (0 Bft) O 86 ° 0 min 0,000 mm 0,0 UV-I 0 W/m² 16,4 °C 21,0 °C 0,0 km/h (0 Bft)
08.08.2018 20:34 21,0 °C 75 % 1012,0 hPa 0,0 mm 0,0 km/h (0 Bft) O 86 ° 0 min 0,000 mm 0,0 UV-I 0 W/m² 16,4 °C 21,0 °C 0,0 km/h (0 Bft)
08.08.2018 20:35 21,0 °C 75 % 1012,0 hPa 0,0 mm 0,0 km/h (0 Bft) O 86 ° 0 min 0,000 mm 0,0 UV-I 0 W/m² 16,4 °C 21,0 °C 0,0 km/h (0 Bft)
08.08.2018 20:36 21,0 °C 75 % 1012,0 hPa 0,0 mm 0,0 km/h (0 Bft) O 86 ° 0 min 0,000 mm 0,0 UV-I 0 W/m² 16,4 °C 21,0 °C 0,0 km/h (0 Bft)
08.08.2018 20:37 20,9 °C 76 % 1012,0 hPa 0,0 mm 0,0 km/h (0 Bft) O 86 ° 0 min 0,000 mm 0,0 UV-I 0 W/m² 16,5 °C 20,9 °C 0,0 km/h (0 Bft)
08.08.2018 20:38 20,9 °C 76 % 1012,0 hPa 0,0 mm 0,0 km/h (0 Bft) O 86 ° 0 min 0,000 mm 0,0 UV-I 0 W/m² 16,5 °C 20,9 °C 0,0 km/h (0 Bft)
08.08.2018 20:39 20,9 °C 75 % 1012,0 hPa 0,0 mm 0,0 km/h (0 Bft) O 86 ° 0 min 0,000 mm 0,0 UV-I 0 W/m² 16,3 °C 20,9 °C 0,0 km/h (0 Bft)
08.08.2018 20:40 20,9 °C 75 % 1012,0 hPa 0,0 mm 0,0 km/h (0 Bft) O 86 ° 0 min 0,000 mm 0,0 UV-I 0 W/m² 16,3 °C 20,9 °C 0,0 km/h (0 Bft)
08.08.2018 20:41 21,0 °C 75 % 1012,0 hPa 0,0 mm 0,0 km/h (0 Bft) O 86 ° 0 min 0,000 mm 0,0 UV-I 0 W/m² 16,4 °C 21,0 °C 0,0 km/h (0 Bft)
08.08.2018 20:42 21,1 °C 75 % 1012,0 hPa 0,0 mm 0,0 km/h (0 Bft) O 86 ° 0 min 0,000 mm 0,0 UV-I 0 W/m² 16,5 °C 21,1 °C 0,0 km/h (0 Bft)
08.08.2018 20:43 21,1 °C 75 % 1012,1 hPa 0,0 mm 0,1 km/h (0 Bft) O 86 ° 0 min 0,000 mm 0,0 UV-I 0 W/m² 16,5 °C 21,1 °C 1,6 km/h (1 Bft)
08.08.2018 20:44 21,1 °C 75 % 1012,1 hPa 0,0 mm 1,1 km/h (1 Bft) O 86 ° 0 min 0,000 mm 0,0 UV-I 0 W/m² 16,5 °C 21,1 °C 1,6 km/h (1 Bft)
08.08.2018 20:45 21,2 °C 75 % 1012,1 hPa 0,0 mm 0,8 km/h (0 Bft) O 86 ° 0 min 0,000 mm 0,0 UV-I 0 W/m² 16,6 °C 21,2 °C 1,6 km/h (1 Bft)
08.08.2018 20:46 21,2 °C 74 % 1012,1 hPa 0,0 mm 2,7 km/h (1 Bft) O 86 ° 0 min 0,000 mm 0,0 UV-I 0 W/m² 16,4 °C 21,2 °C 3,2 km/h (1 Bft)
08.08.2018 20:47 21,3 °C 74 % 1012,2 hPa 0,0 mm 0,8 km/h (0 Bft) O 87 ° 0 min 0,000 mm 0,0 UV-I 0 W/m² 16,5 °C 21,3 °C 4,8 km/h (1 Bft)
08.08.2018 20:48 21,4 °C 74 % 1012,2 hPa 0,0 mm 3,7 km/h (1 Bft) W-NW 299 ° 0 min 0,000 mm 0,0 UV-I 0 W/m² 16,6 °C 21,4 °C 6,4 km/h (2 Bft)
08.08.2018 20:49 21,4 °C 74 % 1012,2 hPa 0,0 mm 5,0 km/h (1 Bft) W 274 ° 0 min 0,000 mm 0,0 UV-I 0 W/m² 16,6 °C 21,4 °C 6,4 km/h (2 Bft)
08.08.2018 20:50 21,5 °C 74 % 1012,3 hPa 0,0 mm 5,6 km/h (1 Bft) W-SW 255 ° 0 min 0,000 mm 0,0 UV-I 0 W/m² 16,7 °C 21,5 °C 12,9 km/h (3 Bft)
08.08.2018 20:51 21,5 °C 74 % 1012,3 hPa 0,0 mm 4,2 km/h (1 Bft) W 262 ° 0 min 0,000 mm 0,0 UV-I 0 W/m² 16,7 °C 21,5 °C 8,0 km/h (2 Bft)
08.08.2018 20:52 21,6 °C 73 % 1012,4 hPa 0,0 mm 8,2 km/h (2 Bft) W 264 ° 0 min 0,000 mm 0,0 UV-I 0 W/m² 16,5 °C 21,6 °C 14,5 km/h (3 Bft)
08.08.2018 20:53 21,6 °C 72 % 1012,4 hPa 0,0 mm 9,5 km/h (2 Bft) W 260 ° 0 min 0,000 mm 0,0 UV-I 0 W/m² 16,3 °C 21,6 °C 17,7 km/h (3 Bft)
08.08.2018 20:54 21,6 °C 73 % 1012,4 hPa 0,0 mm 6,2 km/h (2 Bft) W-SW 248 ° 0 min 0,000 mm 0,0 UV-I 0 W/m² 16,5 °C 21,6 °C 12,9 km/h (3 Bft)
08.08.2018 20:55 21,7 °C 72 % 1012,5 hPa 0,0 mm 2,2 km/h (1 Bft) W-SW 238 ° 0 min 0,000 mm 0,0 UV-I 0 W/m² 16,4 °C 21,7 °C 4,8 km/h (1 Bft)
08.08.2018 20:56 21,8 °C 70 % 1012,5 hPa 0,0 mm 1,3 km/h (1 Bft) W 260 ° 0 min 0,000 mm 0,0 UV-I 0 W/m² 16,1 °C 21,8 °C 3,2 km/h (1 Bft)
08.08.2018 20:57 21,9 °C 71 % 1012,5 hPa 0,0 mm 0,3 km/h (0 Bft) W 260 ° 0 min 0,000 mm 0,0 UV-I 0 W/m² 16,4 °C 21,9 °C 3,2 km/h (1 Bft)
08.08.2018 20:58 22,0 °C 70 % 1012,6 hPa 0,0 mm 8,7 km/h (2 Bft) W-SW 254 ° 0 min 0,000 mm 0,0 UV-I 0 W/m² 16,3 °C 22,0 °C 12,9 km/h (3 Bft)
08.08.2018 20:59 22,1 °C 69 % 1012,5 hPa 0,0 mm 6,6 km/h (2 Bft) W-SW 245 ° 0 min 0,000 mm 0,0 UV-I 0 W/m² 16,1 °C 22,1 °C 9,7 km/h (2 Bft)
08.08.2018 21:00 22,2 °C 69 % 1012,6 hPa 0,0 mm 2,8 km/h (1 Bft) W-SW 243 ° 0 min 0,000 mm 0,0 UV-I 0 W/m² 16,2 °C 22,2 °C 8,0 km/h (2 Bft)
08.08.2018 21:01 22,2 °C 69 % 1012,6 hPa 0,0 mm 0,1 km/h (0 Bft) W-SW 243 ° 0 min 0,025 mm 0,0 UV-I 0 W/m² 16,2 °C 22,2 °C 1,6 km/h (1 Bft)
08.08.2018 21:02 22,2 °C 69 % 1012,6 hPa 0,0 mm 2,7 km/h (1 Bft) W-NW 294 ° 0 min 0,000 mm 0,0 UV-I 0 W/m² 16,2 °C 22,2 °C 6,4 km/h (2 Bft)
08.08.2018 21:03 22,3 °C 69 % 1012,6 hPa 0,0 mm 4,0 km/h (1 Bft) W 271 ° 0 min 0,000 mm 0,0 UV-I 0 W/m² 16,3 °C 22,3 °C 6,4 km/h (2 Bft)
08.08.2018 21:04 22,3 °C 68 % 1012,6 hPa 0,0 mm 4,3 km/h (1 Bft) W 261 ° 0 min 0,000 mm 0,0 UV-I 0 W/m² 16,1 °C 22,3 °C 6,4 km/h (2 Bft)
08.08.2018 21:05 22,3 °C 68 % 1012,6 hPa 0,0 mm 2,5 km/h (1 Bft) W-NW 296 ° 0 min 0,000 mm 0,0 UV-I 0 W/m² 16,1 °C 22,3 °C 8,0 km/h (2 Bft)
08.08.2018 21:06 22,3 °C 68 % 1012,7 hPa 0,0 mm 3,8 km/h (1 Bft) W-NW 292 ° 0 min 0,000 mm 0,0 UV-I 0 W/m² 16,1 °C 22,3 °C 6,4 km/h (2 Bft)
08.08.2018 21:07 22,3 °C 68 % 1012,7 hPa 0,0 mm 7,5 km/h (2 Bft) W-NW 286 ° 0 min 0,000 mm 0,0 UV-I 0 W/m² 16,1 °C 22,3 °C 11,3 km/h (2 Bft)
08.08.2018 21:08 22,3 °C 68 % 1012,7 hPa 0,0 mm 4,4 km/h (1 Bft) W 270 ° 0 min 0,000 mm 0,0 UV-I 0 W/m² 16,1 °C 22,3 °C 6,4 km/h (2 Bft)
08.08.2018 21:09 22,3 °C 67 % 1012,7 hPa 0,0 mm 4,7 km/h (1 Bft) W-NW 289 ° 0 min 0,000 mm 0,0 UV-I 0 W/m² 15,9 °C 22,3 °C 6,4 km/h (2 Bft)
08.08.2018 21:10 22,3 °C 68 % 1012,7 hPa 0,0 mm 8,2 km/h (2 Bft) W-NW 290 ° 0 min 0,000 mm 0,0 UV-I 0 W/m² 16,1 °C 22,3 °C 14,5 km/h (3 Bft)
08.08.2018 21:11 22,3 °C 69 % 1012,7 hPa 0,0 mm 7,6 km/h (2 Bft) NW 319 ° 0 min 0,000 mm 0,0 UV-I 0 W/m² 16,3 °C 22,3 °C 9,7 km/h (2 Bft)
08.08.2018 21:12 22,2 °C 69 % 1012,7 hPa 0,0 mm 3,3 km/h (1 Bft) W-NW 288 ° 0 min 0,000 mm 0,0 UV-I 0 W/m² 16,2 °C 22,2 °C 4,8 km/h (1 Bft)
08.08.2018 21:13 22,1 °C 71 % 1012,7 hPa 0,0 mm 0,6 km/h (0 Bft) W-NW 292 ° 0 min 0,000 mm 0,0 UV-I 0 W/m² 16,6 °C 22,1 °C 1,6 km/h (1 Bft)
08.08.2018 21:14 21,9 °C 70 % 1012,7 hPa 0,0 mm 0,2 km/h (0 Bft) W-NW 292 ° 0 min 0,000 mm 0,0 UV-I 0 W/m² 16,2 °C 21,9 °C 1,6 km/h (1 Bft)
08.08.2018 21:15 21,8 °C 72 % 1012,7 hPa 0,0 mm 0,0 km/h (0 Bft) W-NW 292 ° 0 min 0,000 mm 0,0 UV-I 0 W/m² 16,5 °C 21,8 °C 0,0 km/h (0 Bft)
08.08.2018 21:16 21,6 °C 72 % 1012,7 hPa 0,0 mm 0,0 km/h (0 Bft) W-NW 292 ° 0 min 0,000 mm 0,0 UV-I 0 W/m² 16,3 °C 21,6 °C 0,0 km/h (0 Bft)
08.08.2018 21:17 21,4 °C 73 % 1012,7 hPa 0,0 mm 0,1 km/h (0 Bft) W-NW 290 ° 0 min 0,000 mm 0,0 UV-I 0 W/m² 16,4 °C 21,4 °C 1,6 km/h (1 Bft)
08.08.2018 21:18 21,3 °C 74 % 1012,7 hPa 0,0 mm 0,0 km/h (0 Bft) W-NW 290 ° 0 min 0,000 mm 0,0 UV-I 0 W/m² 16,5 °C 21,3 °C 0,0 km/h (0 Bft)
08.08.2018 21:19 21,2 °C 75 % 1012,7 hPa 0,0 mm 1,3 km/h (1 Bft) W-NW 288 ° 0 min 0,000 mm 0,0 UV-I 0 W/m² 16,6 °C 21,2 °C 3,2 km/h (1 Bft)
08.08.2018 21:20 21,1 °C 76 % 1012,7 hPa 0,0 mm 3,8 km/h (1 Bft) S-SW 200 ° 0 min 0,000 mm 0,0 UV-I 0 W/m² 16,7 °C 21,1 °C 4,8 km/h (1 Bft)
08.08.2018 21:21 20,9 °C 76 % 1012,7 hPa 0,0 mm 3,6 km/h (1 Bft) S-SW 192 ° 0 min 0,000 mm 0,0 UV-I 0 W/m² 16,5 °C 20,9 °C 6,4 km/h (2 Bft)
08.08.2018 21:22 20,8 °C 77 % 1012,8 hPa 0,0 mm 4,4 km/h (1 Bft) S-SW 192 ° 0 min 0,000 mm 0,0 UV-I 0 W/m² 16,6 °C 20,8 °C 6,4 km/h (2 Bft)
08.08.2018 21:23 20,7 °C 77 % 1012,8 hPa 0,0 mm 4,6 km/h (1 Bft) S-SW 193 ° 0 min 0,000 mm 0,0 UV-I 0 W/m² 16,5 °C 20,7 °C 6,4 km/h (2 Bft)
08.08.2018 21:24 20,7 °C 76 % 1012,8 hPa 0,0 mm 5,5 km/h (1 Bft) S 186 ° 0 min 0,000 mm 0,0 UV-I 0 W/m² 16,3 °C 20,7 °C 8,0 km/h (2 Bft)
08.08.2018 21:25 20,6 °C 77 % 1012,8 hPa 0,0 mm 4,4 km/h (1 Bft) S-SW 195 ° 0 min 0,000 mm 0,0 UV-I 0 W/m² 16,4 °C 20,6 °C 6,4 km/h (2 Bft)
08.08.2018 21:26 20,6 °C 77 % 1012,7 hPa 0,0 mm 0,9 km/h (0 Bft) S-SW 195 ° 0 min 0,000 mm 0,0 UV-I 0 W/m² 16,4 °C 20,6 °C 3,2 km/h (1 Bft)
08.08.2018 21:27 20,4 °C 78 % 1012,7 hPa 0,0 mm 1,7 km/h (1 Bft) S-SW 195 ° 0 min 0,000 mm 0,0 UV-I 0 W/m² 16,4 °C 20,4 °C 3,2 km/h (1 Bft)
08.08.2018 21:28 20,4 °C 79 % 1012,7 hPa 0,0 mm 0,6 km/h (0 Bft) S-SW 195 ° 0 min 0,000 mm 0,0 UV-I 0 W/m² 16,6 °C 20,4 °C 1,6 km/h (1 Bft)
08.08.2018 21:29 20,3 °C 79 % 1012,7 hPa 0,0 mm 0,4 km/h (0 Bft) S-SW 195 ° 0 min 0,000 mm 0,0 UV-I 0 W/m² 16,5 °C 20,3 °C 1,6 km/h (1 Bft)
08.08.2018 21:30 20,2 °C 80 % 1012,6 hPa 0,0 mm 0,0 km/h (0 Bft) S-SW 195 ° 0 min 0,000 mm 0,0 UV-I 0 W/m² 16,6 °C 20,2 °C 0,0 km/h (0 Bft)
08.08.2018 21:31 20,1 °C 79 % 1012,6 hPa 0,0 mm 0,1 km/h (0 Bft) S-SW 195 ° 0 min 0,000 mm 0,0 UV-I 0 W/m² 16,3 °C 20,1 °C 1,6 km/h (1 Bft)
08.08.2018 21:32 20,1 °C 80 % 1012,6 hPa 0,0 mm 0,3 km/h (0 Bft) S-SW 195 ° 0 min 0,000 mm 0,0 UV-I 0 W/m² 16,5 °C 20,1 °C 1,6 km/h (1 Bft)
08.08.2018 21:33 20,1 °C 80 % 1012,5 hPa 0,0 mm 0,0 km/h (0 Bft) S-SW 195 ° 0 min 0,000 mm 0,0 UV-I 0 W/m² 16,5 °C 20,1 °C 0,0 km/h (0 Bft)
08.08.2018 21:34 20,1 °C 80 % 1012,5 hPa 0,0 mm 0,1 km/h (0 Bft) S-SW 195 ° 0 min 0,000 mm 0,0 UV-I 0 W/m² 16,5 °C 20,1 °C 1,6 km/h (1 Bft)
08.08.2018 21:35 20,1 °C 80 % 1012,5 hPa 0,0 mm 0,0 km/h (0 Bft) S-SW 195 ° 0 min 0,000 mm 0,0 UV-I 0 W/m² 16,5 °C 20,1 °C 0,0 km/h (0 Bft)
08.08.2018 21:36 20,0 °C 80 % 1012,5 hPa 0,0 mm 0,0 km/h (0 Bft) S-SW 195 ° 0 min 0,000 mm 0,0 UV-I 0 W/m² 16,4 °C 20,0 °C 0,0 km/h (0 Bft)
08.08.2018 21:37 19,9 °C 79 % 1012,5 hPa 0,0 mm 0,0 km/h (0 Bft) S-SW 195 ° 0 min 0,000 mm 0,0 UV-I 0 W/m² 16,1 °C 19,9 °C 0,0 km/h (0 Bft)
08.08.2018 21:38 19,9 °C 79 % 1012,5 hPa 0,0 mm 0,0 km/h (0 Bft) S-SW 195 ° 0 min 0,000 mm 0,0 UV-I 0 W/m² 16,1 °C 19,9 °C 0,0 km/h (0 Bft)
08.08.2018 21:39 20,0 °C 78 % 1012,6 hPa 0,0 mm 0,0 km/h (0 Bft) S-SW 195 ° 0 min 0,000 mm 0,0 UV-I 0 W/m² 16,0 °C 20,0 °C 0,0 km/h (0 Bft)
08.08.2018 21:40 20,0 °C 78 % 1012,6 hPa 0,0 mm 0,0 km/h (0 Bft) S-SW 195 ° 0 min 0,000 mm 0,0 UV-I 0 W/m² 16,0 °C 20,0 °C 0,0 km/h (0 Bft)
08.08.2018 21:41 20,0 °C 78 % 1012,6 hPa 0,0 mm 0,0 km/h (0 Bft) S-SW 195 ° 0 min 0,000 mm 0,0 UV-I 0 W/m² 16,0 °C 20,0 °C 0,0 km/h (0 Bft)
08.08.2018 21:42 20,1 °C 78 % 1012,6 hPa 0,0 mm 0,0 km/h (0 Bft) S-SW 195 ° 0 min 0,000 mm 0,0 UV-I 0 W/m² 16,1 °C 20,1 °C 0,0 km/h (0 Bft)
08.08.2018 21:43 19,9 °C 79 % 1012,6 hPa 0,0 mm 0,0 km/h (0 Bft) S-SW 195 ° 0 min 0,000 mm 0,0 UV-I 0 W/m² 16,1 °C 19,9 °C 0,0 km/h (0 Bft)
08.08.2018 21:44 19,8 °C 80 % 1012,7 hPa 0,0 mm 0,0 km/h (0 Bft) S-SW 195 ° 0 min 0,000 mm 0,0 UV-I 0 W/m² 16,2 °C 19,8 °C 0,0 km/h (0 Bft)
08.08.2018 21:45 19,8 °C 81 % 1012,7 hPa 0,0 mm 0,0 km/h (0 Bft) S-SW 195 ° 0 min 0,000 mm 0,0 UV-I 0 W/m² 16,4 °C 19,8 °C 0,0 km/h (0 Bft)
08.08.2018 21:46 19,7 °C 81 % 1012,7 hPa 0,0 mm 0,0 km/h (0 Bft) S-SW 195 ° 0 min 0,000 mm 0,0 UV-I 0 W/m² 16,3 °C 19,7 °C 0,0 km/h (0 Bft)
08.08.2018 21:47 19,6 °C 80 % 1012,7 hPa 0,0 mm 0,5 km/h (0 Bft) S-SW 195 ° 0 min 0,000 mm 0,0 UV-I 0 W/m² 16,1 °C 19,6 °C 1,6 km/h (1 Bft)
08.08.2018 21:48 19,7 °C 79 % 1012,6 hPa 0,0 mm 0,0 km/h (0 Bft) S-SW 195 ° 0 min 0,000 mm 0,0 UV-I 0 W/m² 16,0 °C 19,7 °C 0,0 km/h (0 Bft)
08.08.2018 21:49 19,8 °C 78 % 1012,7 hPa 0,0 mm 0,0 km/h (0 Bft) S-SW 195 ° 0 min 0,000 mm 0,0 UV-I 0 W/m² 15,8 °C 19,8 °C 0,0 km/h (0 Bft)
08.08.2018 21:50 19,8 °C 79 % 1012,7 hPa 0,0 mm 0,0 km/h (0 Bft) S-SW 195 ° 0 min 0,000 mm 0,0 UV-I 0 W/m² 16,0 °C 19,8 °C 0,0 km/h (0 Bft)
08.08.2018 21:51 19,8 °C 79 % 1012,7 hPa 0,0 mm 0,0 km/h (0 Bft) S-SW 195 ° 0 min 0,000 mm 0,0 UV-I 0 W/m² 16,0 °C 19,8 °C 0,0 km/h (0 Bft)
08.08.2018 21:52 19,8 °C 79 % 1012,7 hPa 0,0 mm 0,0 km/h (0 Bft) S-SW 195 ° 0 min 0,000 mm 0,0 UV-I 0 W/m² 16,0 °C 19,8 °C 0,0 km/h (0 Bft)
08.08.2018 21:53 19,9 °C 79 % 1012,7 hPa 0,0 mm 0,0 km/h (0 Bft) S-SW 195 ° 0 min 0,000 mm 0,0 UV-I 0 W/m² 16,1 °C 19,9 °C 0,0 km/h (0 Bft)
08.08.2018 21:54 19,9 °C 79 % 1012,7 hPa 0,0 mm 0,0 km/h (0 Bft) S-SW 195 ° 0 min 0,000 mm 0,0 UV-I 0 W/m² 16,1 °C 19,9 °C 0,0 km/h (0 Bft)
08.08.2018 21:55 19,9 °C 78 % 1012,7 hPa 0,0 mm 0,0 km/h (0 Bft) S-SW 195 ° 0 min 0,000 mm 0,0 UV-I 0 W/m² 15,9 °C 19,9 °C 0,0 km/h (0 Bft)
08.08.2018 21:56 20,0 °C 78 % 1012,7 hPa 0,0 mm 0,0 km/h (0 Bft) S-SW 195 ° 0 min 0,000 mm 0,0 UV-I 0 W/m² 16,0 °C 20,0 °C 0,0 km/h (0 Bft)
08.08.2018 21:57 20,0 °C 79 % 1012,7 hPa 0,0 mm 4,0 km/h (1 Bft) N-NW 347 ° 0 min 0,000 mm 0,0 UV-I 0 W/m² 16,2 °C 20,0 °C 6,4 km/h (2 Bft)
08.08.2018 21:58 20,0 °C 79 % 1012,7 hPa 0,0 mm 2,7 km/h (1 Bft) N 5 ° 0 min 0,000 mm 0,0 UV-I 0 W/m² 16,2 °C 20,0 °C 6,4 km/h (2 Bft)
08.08.2018 21:59 20,0 °C 78 % 1012,7 hPa 0,0 mm 0,7 km/h (0 Bft) N 9 ° 0 min 0,000 mm 0,0 UV-I 0 W/m² 16,0 °C 20,0 °C 3,2 km/h (1 Bft)
08.08.2018 22:00 20,0 °C 79 % 1012,7 hPa 0,0 mm 0,0 km/h (0 Bft) N 9 ° 0 min 0,025 mm 0,0 UV-I 0 W/m² 16,2 °C 20,0 °C 0,0 km/h (0 Bft)
08.08.2018 22:01 20,0 °C 79 % 1012,7 hPa 0,0 mm 0,0 km/h (0 Bft) N 9 ° 0 min 0,000 mm 0,0 UV-I 0 W/m² 16,2 °C 20,0 °C 0,0 km/h (0 Bft)
08.08.2018 22:02 19,9 °C 79 % 1012,7 hPa 0,0 mm 0,0 km/h (0 Bft) N 9 ° 0 min 0,000 mm 0,0 UV-I 0 W/m² 16,1 °C 19,9 °C 0,0 km/h (0 Bft)
08.08.2018 22:03 20,0 °C 78 % 1012,7 hPa 0,0 mm 0,0 km/h (0 Bft) N 9 ° 0 min 0,000 mm 0,0 UV-I 0 W/m² 16,0 °C 20,0 °C 0,0 km/h (0 Bft)
08.08.2018 22:04 20,0 °C 78 % 1012,7 hPa 0,0 mm 2,0 km/h (1 Bft) N-NW 347 ° 0 min 0,000 mm 0,0 UV-I 0 W/m² 16,0 °C 20,0 °C 4,8 km/h (1 Bft)
08.08.2018 22:05 19,9 °C 79 % 1012,6 hPa 0,0 mm 1,3 km/h (1 Bft) N-NW 347 ° 0 min 0,000 mm 0,0 UV-I 0 W/m² 16,1 °C 19,9 °C 3,2 km/h (1 Bft)
08.08.2018 22:06 19,9 °C 79 % 1012,6 hPa 0,0 mm 0,5 km/h (0 Bft) N-NW 347 ° 0 min 0,000 mm 0,0 UV-I 0 W/m² 16,1 °C 19,9 °C 1,6 km/h (1 Bft)
08.08.2018 22:07 19,9 °C 79 % 1012,7 hPa 0,0 mm 0,0 km/h (0 Bft) N-NW 347 ° 0 min 0,000 mm 0,0 UV-I 0 W/m² 16,1 °C 19,9 °C 0,0 km/h (0 Bft)
08.08.2018 22:08 19,9 °C 79 % 1012,6 hPa 0,0 mm 1,3 km/h (1 Bft) N-NW 347 ° 0 min 0,000 mm 0,0 UV-I 0 W/m² 16,1 °C 19,9 °C 3,2 km/h (1 Bft)
08.08.2018 22:09 19,9 °C 78 % 1012,6 hPa 0,0 mm 0,5 km/h (0 Bft) N-NW 347 ° 0 min 0,000 mm 0,0 UV-I 0 W/m² 15,9 °C 19,9 °C 3,2 km/h (1 Bft)
08.08.2018 22:10 19,9 °C 78 % 1012,7 hPa 0,0 mm 1,0 km/h (0 Bft) N-NW 347 ° 0 min 0,000 mm 0,0 UV-I 0 W/m² 15,9 °C 19,9 °C 3,2 km/h (1 Bft)
08.08.2018 22:11 20,0 °C 79 % 1012,7 hPa 0,0 mm 1,9 km/h (1 Bft) W-SW 253 ° 0 min 0,000 mm 0,0 UV-I 0 W/m² 16,2 °C 20,0 °C 4,8 km/h (1 Bft)
08.08.2018 22:12 19,9 °C 79 % 1012,7 hPa 0,0 mm 1,5 km/h (1 Bft) W-NW 288 ° 0 min 0,000 mm 0,0 UV-I 0 W/m² 16,1 °C 19,9 °C 3,2 km/h (1 Bft)
08.08.2018 22:13 20,0 °C 79 % 1012,7 hPa 0,0 mm 0,7 km/h (0 Bft) W-NW 288 ° 0 min 0,000 mm 0,0 UV-I 0 W/m² 16,2 °C 20,0 °C 3,2 km/h (1 Bft)
08.08.2018 22:14 20,0 °C 79 % 1012,6 hPa 0,0 mm 1,6 km/h (1 Bft) W-NW 288 ° 0 min 0,000 mm 0,0 UV-I 0 W/m² 16,2 °C 20,0 °C 3,2 km/h (1 Bft)
08.08.2018 22:15 20,1 °C 79 % 1012,7 hPa 0,0 mm 3,2 km/h (1 Bft) NW 319 ° 0 min 0,000 mm 0,0 UV-I 0 W/m² 16,3 °C 20,1 °C 6,4 km/h (2 Bft)
08.08.2018 22:16 20,0 °C 79 % 1012,7 hPa 0,0 mm 2,2 km/h (1 Bft) NW 319 ° 0 min 0,000 mm 0,0 UV-I 0 W/m² 16,2 °C 20,0 °C 3,2 km/h (1 Bft)
08.08.2018 22:17 19,9 °C 80 % 1012,7 hPa 0,0 mm 0,8 km/h (0 Bft) NW 319 ° 0 min 0,000 mm 0,0 UV-I 0 W/m² 16,3 °C 19,9 °C 1,6 km/h (1 Bft)
08.08.2018 22:18 19,9 °C 80 % 1012,6 hPa 0,0 mm 0,9 km/h (0 Bft) O-SO 105 ° 0 min 0,000 mm 0,0 UV-I 0 W/m² 16,3 °C 19,9 °C 1,6 km/h (1 Bft)
08.08.2018 22:19 19,9 °C 80 % 1012,7 hPa 0,0 mm 1,7 km/h (1 Bft) N-NO 13 ° 0 min 0,000 mm 0,0 UV-I 0 W/m² 16,3 °C 19,9 °C 4,8 km/h (1 Bft)
08.08.2018 22:20 19,9 °C 80 % 1012,7 hPa 0,0 mm 0,5 km/h (0 Bft) N-NO 13 ° 0 min 0,000 mm 0,0 UV-I 0 W/m² 16,3 °C 19,9 °C 3,2 km/h (1 Bft)
08.08.2018 22:21 19,9 °C 80 % 1012,7 hPa 0,0 mm 2,5 km/h (1 Bft) N 355 ° 0 min 0,000 mm 0,0 UV-I 0 W/m² 16,3 °C 19,9 °C 3,2 km/h (1 Bft)
08.08.2018 22:22 19,8 °C 81 % 1012,7 hPa 0,0 mm 1,7 km/h (1 Bft) N-NW 342 ° 0 min 0,000 mm 0,0 UV-I 0 W/m² 16,4 °C 19,8 °C 4,8 km/h (1 Bft)
08.08.2018 22:23 19,8 °C 81 % 1012,6 hPa 0,0 mm 1,8 km/h (1 Bft) N-NW 339 ° 0 min 0,000 mm 0,0 UV-I 0 W/m² 16,4 °C 19,8 °C 3,2 km/h (1 Bft)
08.08.2018 22:24 19,8 °C 80 % 1012,6 hPa 0,0 mm 0,3 km/h (0 Bft) N-NW 339 ° 0 min 0,000 mm 0,0 UV-I 0 W/m² 16,2 °C 19,8 °C 1,6 km/h (1 Bft)
08.08.2018 22:25 19,8 °C 80 % 1012,7 hPa 0,0 mm 0,5 km/h (0 Bft) N-NW 339 ° 0 min 0,000 mm 0,0 UV-I 0 W/m² 16,2 °C 19,8 °C 1,6 km/h (1 Bft)
08.08.2018 22:26 19,8 °C 80 % 1012,6 hPa 0,0 mm 0,7 km/h (0 Bft) N-NW 339 ° 0 min 0,000 mm 0,0 UV-I 0 W/m² 16,2 °C 19,8 °C 3,2 km/h (1 Bft)
08.08.2018 22:27 19,8 °C 80 % 1012,6 hPa 0,0 mm 1,8 km/h (1 Bft) O-SO 109 ° 0 min 0,000 mm 0,0 UV-I 0 W/m² 16,2 °C 19,8 °C 4,8 km/h (1 Bft)
08.08.2018 22:28 19,8 °C 80 % 1012,6 hPa 0,0 mm 1,1 km/h (1 Bft) N-NW 344 ° 0 min 0,000 mm 0,0 UV-I 0 W/m² 16,2 °C 19,8 °C 1,6 km/h (1 Bft)
08.08.2018 22:29 19,9 °C 80 % 1012,6 hPa 0,0 mm 2,1 km/h (1 Bft) N 349 ° 0 min 0,000 mm 0,0 UV-I 0 W/m² 16,3 °C 19,9 °C 3,2 km/h (1 Bft)
08.08.2018 22:30 19,9 °C 80 % 1012,5 hPa 0,0 mm 1,8 km/h (1 Bft) N-NW 342 ° 0 min 0,000 mm 0,0 UV-I 0 W/m² 16,3 °C 19,9 °C 4,8 km/h (1 Bft)
08.08.2018 22:31 19,9 °C 80 % 1012,5 hPa 0,0 mm 3,3 km/h (1 Bft) NO 43 ° 0 min 0,000 mm 0,0 UV-I 0 W/m² 16,3 °C 19,9 °C 6,4 km/h (2 Bft)
08.08.2018 22:32 20,0 °C 80 % 1012,6 hPa 0,0 mm 4,8 km/h (1 Bft) S 190 ° 0 min 0,000 mm 0,0 UV-I 0 W/m² 16,4 °C 20,0 °C 8,0 km/h (2 Bft)
08.08.2018 22:33 20,0 °C 80 % 1012,5 hPa 0,0 mm 1,1 km/h (1 Bft) O-NO 62 ° 0 min 0,000 mm 0,0 UV-I 0 W/m² 16,4 °C 20,0 °C 4,8 km/h (1 Bft)
08.08.2018 22:34 20,0 °C 80 % 1012,5 hPa 0,0 mm 2,1 km/h (1 Bft) NO 34 ° 0 min 0,000 mm 0,0 UV-I 0 W/m² 16,4 °C 20,0 °C 4,8 km/h (1 Bft)
08.08.2018 22:35 19,9 °C 80 % 1012,5 hPa 0,0 mm 0,7 km/h (0 Bft) NO 35 ° 0 min 0,000 mm 0,0 UV-I 0 W/m² 16,3 °C 19,9 °C 3,2 km/h (1 Bft)
08.08.2018 22:36 19,9 °C 80 % 1012,6 hPa 0,0 mm 1,7 km/h (1 Bft) N-NO 30 ° 0 min 0,000 mm 0,0 UV-I 0 W/m² 16,3 °C 19,9 °C 4,8 km/h (1 Bft)
08.08.2018 22:37 19,9 °C 80 % 1012,6 hPa 0,0 mm 1,1 km/h (1 Bft) N-NW 339 ° 0 min 0,000 mm 0,0 UV-I 0 W/m² 16,3 °C 19,9 °C 3,2 km/h (1 Bft)
08.08.2018 22:38 19,9 °C 80 % 1012,6 hPa 0,0 mm 1,6 km/h (1 Bft) N-NW 339 ° 0 min 0,000 mm 0,0 UV-I 0 W/m² 16,3 °C 19,9 °C 3,2 km/h (1 Bft)
08.08.2018 22:39 19,9 °C 80 % 1012,6 hPa 0,0 mm 2,5 km/h (1 Bft) N 351 ° 0 min 0,000 mm 0,0 UV-I 0 W/m² 16,3 °C 19,9 °C 4,8 km/h (1 Bft)
08.08.2018 22:40 19,9 °C 80 % 1012,6 hPa 0,0 mm 1,8 km/h (1 Bft) NW 305 ° 0 min 0,000 mm 0,0 UV-I 0 W/m² 16,3 °C 19,9 °C 4,8 km/h (1 Bft)
08.08.2018 22:41 19,9 °C 80 % 1012,5 hPa 0,0 mm 5,2 km/h (1 Bft) W 262 ° 0 min 0,000 mm 0,0 UV-I 0 W/m² 16,3 °C 19,9 °C 12,9 km/h (3 Bft)
08.08.2018 22:42 20,0 °C 80 % 1012,5 hPa 0,0 mm 2,4 km/h (1 Bft) S-SW 205 ° 0 min 0,000 mm 0,0 UV-I 0 W/m² 16,4 °C 20,0 °C 6,4 km/h (2 Bft)
08.08.2018 22:43 20,0 °C 80 % 1012,6 hPa 0,0 mm 1,9 km/h (1 Bft) NO 48 ° 0 min 0,000 mm 0,0 UV-I 0 W/m² 16,4 °C 20,0 °C 4,8 km/h (1 Bft)
08.08.2018 22:44 20,1 °C 80 % 1012,6 hPa 0,0 mm 1,5 km/h (1 Bft) SO 133 ° 0 min 0,000 mm 0,0 UV-I 0 W/m² 16,5 °C 20,1 °C 4,8 km/h (1 Bft)
08.08.2018 22:45 20,1 °C 79 % 1012,6 hPa 0,0 mm 2,3 km/h (1 Bft) NW 318 ° 0 min 0,000 mm 0,0 UV-I 0 W/m² 16,3 °C 20,1 °C 4,8 km/h (1 Bft)
08.08.2018 22:46 20,1 °C 79 % 1012,6 hPa 0,0 mm 1,4 km/h (1 Bft) NW 318 ° 0 min 0,000 mm 0,0 UV-I 0 W/m² 16,3 °C 20,1 °C 3,2 km/h (1 Bft)
08.08.2018 22:47 20,1 °C 79 % 1012,6 hPa 0,0 mm 0,2 km/h (0 Bft) NW 318 ° 0 min 0,000 mm 0,0 UV-I 0 W/m² 16,3 °C 20,1 °C 1,6 km/h (1 Bft)
08.08.2018 22:48 20,1 °C 79 % 1012,5 hPa 0,0 mm 0,2 km/h (0 Bft) NW 318 ° 0 min 0,000 mm 0,0 UV-I 0 W/m² 16,3 °C 20,1 °C 1,6 km/h (1 Bft)
08.08.2018 22:49 20,1 °C 79 % 1012,6 hPa 0,0 mm 1,7 km/h (1 Bft) N-NW 343 ° 0 min 0,000 mm 0,0 UV-I 0 W/m² 16,3 °C 20,1 °C 4,8 km/h (1 Bft)
08.08.2018 22:50 20,0 °C 79 % 1012,5 hPa 0,0 mm 2,3 km/h (1 Bft) N-NW 343 ° 0 min 0,000 mm 0,0 UV-I 0 W/m² 16,2 °C 20,0 °C 4,8 km/h (1 Bft)
08.08.2018 22:51 20,1 °C 78 % 1012,5 hPa 0,0 mm 1,4 km/h (1 Bft) N-NW 336 ° 0 min 0,000 mm 0,0 UV-I 0 W/m² 16,1 °C 20,1 °C 4,8 km/h (1 Bft)
08.08.2018 22:52 20,0 °C 79 % 1012,5 hPa 0,0 mm 3,6 km/h (1 Bft) N-NO 24 ° 0 min 0,000 mm 0,0 UV-I 0 W/m² 16,2 °C 20,0 °C 11,3 km/h (2 Bft)
08.08.2018 22:53 19,9 °C 80 % 1012,5 hPa 0,0 mm 3,6 km/h (1 Bft) O-NO 74 ° 0 min 0,000 mm 0,0 UV-I 0 W/m² 16,3 °C 19,9 °C 11,3 km/h (2 Bft)
08.08.2018 22:54 19,9 °C 80 % 1012,5 hPa 0,0 mm 1,6 km/h (1 Bft) S 180 ° 0 min 0,000 mm 0,0 UV-I 0 W/m² 16,3 °C 19,9 °C 4,8 km/h (1 Bft)
08.08.2018 22:55 19,9 °C 80 % 1012,5 hPa 0,0 mm 1,1 km/h (1 Bft) S 190 ° 0 min 0,000 mm 0,0 UV-I 0 W/m² 16,3 °C 19,9 °C 4,8 km/h (1 Bft)
08.08.2018 22:56 19,9 °C 80 % 1012,5 hPa 0,0 mm 0,3 km/h (0 Bft) W-SW 246 ° 0 min 0,000 mm 0,0 UV-I 0 W/m² 16,3 °C 19,9 °C 1,6 km/h (1 Bft)
08.08.2018 22:57 19,9 °C 80 % 1012,5 hPa 0,0 mm 0,1 km/h (0 Bft) W-SW 246 ° 0 min 0,000 mm 0,0 UV-I 0 W/m² 16,3 °C 19,9 °C 1,6 km/h (1 Bft)
08.08.2018 22:58 19,9 °C 80 % 1012,5 hPa 0,0 mm 1,9 km/h (1 Bft) W-SW 253 ° 0 min 0,000 mm 0,0 UV-I 0 W/m² 16,3 °C 19,9 °C 6,4 km/h (2 Bft)
08.08.2018 22:59 19,9 °C 80 % 1012,5 hPa 0,0 mm 0,6 km/h (0 Bft) W-NW 285 ° 0 min 0,000 mm 0,0 UV-I 0 W/m² 16,3 °C 19,9 °C 3,2 km/h (1 Bft)
08.08.2018 23:00 19,9 °C 80 % 1012,5 hPa 0,0 mm 1,9 km/h (1 Bft) NW 304 ° 0 min 0,000 mm 0,0 UV-I 0 W/m² 16,3 °C 19,9 °C 4,8 km/h (1 Bft)
08.08.2018 23:01 19,9 °C 80 % 1012,5 hPa 0,0 mm 1,5 km/h (1 Bft) NW 304 ° 0 min 0,026 mm 0,0 UV-I 0 W/m² 16,3 °C 19,9 °C 4,8 km/h (1 Bft)
08.08.2018 23:02 19,9 °C 81 % 1012,5 hPa 0,0 mm 2,7 km/h (1 Bft) N-NO 19 ° 0 min 0,000 mm 0,0 UV-I 0 W/m² 16,5 °C 19,9 °C 6,4 km/h (2 Bft)
08.08.2018 23:03 19,8 °C 81 % 1012,4 hPa 0,0 mm 3,3 km/h (1 Bft) O-SO 115 ° 0 min 0,000 mm 0,0 UV-I 0 W/m² 16,4 °C 19,8 °C 9,7 km/h (2 Bft)
08.08.2018 23:04 19,8 °C 81 % 1012,4 hPa 0,0 mm 0,3 km/h (0 Bft) NO 47 ° 0 min 0,000 mm 0,0 UV-I 0 W/m² 16,4 °C 19,8 °C 3,2 km/h (1 Bft)
08.08.2018 23:05 19,7 °C 81 % 1012,4 hPa 0,0 mm 0,4 km/h (0 Bft) NO 46 ° 0 min 0,000 mm 0,0 UV-I 0 W/m² 16,3 °C 19,7 °C 1,6 km/h (1 Bft)
08.08.2018 23:06 19,7 °C 82 % 1012,4 hPa 0,0 mm 0,9 km/h (0 Bft) NO 46 ° 0 min 0,000 mm 0,0 UV-I 0 W/m² 16,5 °C 19,7 °C 3,2 km/h (1 Bft)
08.08.2018 23:07 19,6 °C 82 % 1012,3 hPa 0,0 mm 1,4 km/h (1 Bft) N-NW 337 ° 0 min 0,000 mm 0,0 UV-I 0 W/m² 16,4 °C 19,6 °C 3,2 km/h (1 Bft)
08.08.2018 23:08 19,6 °C 82 % 1012,4 hPa 0,0 mm 1,3 km/h (1 Bft) W 277 ° 0 min 0,000 mm 0,0 UV-I 0 W/m² 16,4 °C 19,6 °C 3,2 km/h (1 Bft)
08.08.2018 23:09 19,6 °C 82 % 1012,4 hPa 0,0 mm 0,2 km/h (0 Bft) W 281 ° 0 min 0,000 mm 0,0 UV-I 0 W/m² 16,4 °C 19,6 °C 3,2 km/h (1 Bft)
08.08.2018 23:10 19,6 °C 82 % 1012,4 hPa 0,0 mm 1,5 km/h (1 Bft) W-NW 302 ° 0 min 0,000 mm 0,0 UV-I 0 W/m² 16,4 °C 19,6 °C 4,8 km/h (1 Bft)
08.08.2018 23:11 19,6 °C 82 % 1012,3 hPa 0,0 mm 0,0 km/h (0 Bft) W-NW 302 ° 0 min 0,000 mm 0,0 UV-I 0 W/m² 16,4 °C 19,6 °C 0,0 km/h (0 Bft)
08.08.2018 23:12 19,6 °C 82 % 1012,4 hPa 0,0 mm 3,2 km/h (1 Bft) N 360 ° 0 min 0,000 mm 0,0 UV-I 0 W/m² 16,4 °C 19,6 °C 6,4 km/h (2 Bft)
08.08.2018 23:13 19,6 °C 82 % 1012,4 hPa 0,0 mm 0,1 km/h (0 Bft) N 360 ° 0 min 0,000 mm 0,0 UV-I 0 W/m² 16,4 °C 19,6 °C 1,6 km/h (1 Bft)
08.08.2018 23:14 19,6 °C 82 % 1012,3 hPa 0,0 mm 1,3 km/h (1 Bft) N 360 ° 0 min 0,000 mm 0,0 UV-I 0 W/m² 16,4 °C 19,6 °C 4,8 km/h (1 Bft)
08.08.2018 23:15 19,6 °C 82 % 1012,4 hPa 0,0 mm 0,1 km/h (0 Bft) N 360 ° 0 min 0,000 mm 0,0 UV-I 0 W/m² 16,4 °C 19,6 °C 1,6 km/h (1 Bft)
08.08.2018 23:16 19,6 °C 82 % 1012,3 hPa 0,0 mm 0,0 km/h (0 Bft) N 360 ° 0 min 0,000 mm 0,0 UV-I 0 W/m² 16,4 °C 19,6 °C 0,0 km/h (0 Bft)
08.08.2018 23:17 19,6 °C 82 % 1012,3 hPa 0,0 mm 0,2 km/h (0 Bft) N-NW 338 ° 0 min 0,000 mm 0,0 UV-I 0 W/m² 16,4 °C 19,6 °C 3,2 km/h (1 Bft)
08.08.2018 23:18 19,6 °C 82 % 1012,3 hPa 0,0 mm 1,7 km/h (1 Bft) N-NW 345 ° 0 min 0,000 mm 0,0 UV-I 0 W/m² 16,4 °C 19,6 °C 4,8 km/h (1 Bft)
08.08.2018 23:19 19,6 °C 82 % 1012,3 hPa 0,0 mm 0,5 km/h (0 Bft) N-NW 345 ° 0 min 0,000 mm 0,0 UV-I 0 W/m² 16,4 °C 19,6 °C 3,2 km/h (1 Bft)
08.08.2018 23:20 19,5 °C 82 % 1012,4 hPa 0,0 mm 2,5 km/h (1 Bft) N-NW 344 ° 0 min 0,000 mm 0,0 UV-I 0 W/m² 16,3 °C 19,5 °C 4,8 km/h (1 Bft)
08.08.2018 23:21 19,5 °C 82 % 1012,3 hPa 0,0 mm 1,2 km/h (1 Bft) N-NW 344 ° 0 min 0,000 mm 0,0 UV-I 0 W/m² 16,3 °C 19,5 °C 4,8 km/h (1 Bft)
08.08.2018 23:22 19,4 °C 82 % 1012,4 hPa 0,0 mm 0,5 km/h (0 Bft) N-NW 344 ° 0 min 0,000 mm 0,0 UV-I 0 W/m² 16,2 °C 19,4 °C 1,6 km/h (1 Bft)
08.08.2018 23:23 19,4 °C 82 % 1012,3 hPa 0,0 mm 1,1 km/h (1 Bft) N-NW 344 ° 0 min 0,000 mm 0,0 UV-I 0 W/m² 16,2 °C 19,4 °C 3,2 km/h (1 Bft)
08.08.2018 23:24 19,4 °C 81 % 1012,4 hPa 0,0 mm 0,3 km/h (0 Bft) N-NW 344 ° 0 min 0,000 mm 0,0 UV-I 0 W/m² 16,1 °C 19,4 °C 1,6 km/h (1 Bft)
08.08.2018 23:25 19,5 °C 81 % 1012,4 hPa 0,0 mm 1,2 km/h (1 Bft) N-NW 344 ° 0 min 0,000 mm 0,0 UV-I 0 W/m² 16,1 °C 19,5 °C 3,2 km/h (1 Bft)
08.08.2018 23:26 19,6 °C 81 % 1012,4 hPa 0,0 mm 1,4 km/h (1 Bft) N 5 ° 0 min 0,000 mm 0,0 UV-I 0 W/m² 16,2 °C 19,6 °C 3,2 km/h (1 Bft)
08.08.2018 23:27 19,6 °C 82 % 1012,4 hPa 0,0 mm 1,5 km/h (1 Bft) N-NO 31 ° 0 min 0,000 mm 0,0 UV-I 0 W/m² 16,4 °C 19,6 °C 4,8 km/h (1 Bft)
08.08.2018 23:28 19,5 °C 81 % 1012,4 hPa 0,0 mm 2,4 km/h (1 Bft) O 98 ° 0 min 0,000 mm 0,0 UV-I 0 W/m² 16,1 °C 19,5 °C 6,4 km/h (2 Bft)
08.08.2018 23:29 19,6 °C 81 % 1012,4 hPa 0,0 mm 1,2 km/h (1 Bft) O-NO 59 ° 0 min 0,000 mm 0,0 UV-I 0 W/m² 16,2 °C 19,6 °C 3,2 km/h (1 Bft)
08.08.2018 23:30 19,6 °C 82 % 1012,4 hPa 0,0 mm 0,0 km/h (0 Bft) O-NO 58 ° 0 min 0,000 mm 0,0 UV-I 0 W/m² 16,4 °C 19,6 °C 0,0 km/h (0 Bft)
08.08.2018 23:31 19,6 °C 81 % 1012,4 hPa 0,0 mm 0,8 km/h (0 Bft) O-NO 59 ° 0 min 0,000 mm 0,0 UV-I 0 W/m² 16,2 °C 19,6 °C 3,2 km/h (1 Bft)
08.08.2018 23:32 19,6 °C 81 % 1012,4 hPa 0,0 mm 0,0 km/h (0 Bft) O-NO 59 ° 0 min 0,000 mm 0,0 UV-I 0 W/m² 16,2 °C 19,6 °C 0,0 km/h (0 Bft)
08.08.2018 23:33 19,6 °C 81 % 1012,4 hPa 0,0 mm 0,0 km/h (0 Bft) O-NO 59 ° 0 min 0,000 mm 0,0 UV-I 0 W/m² 16,2 °C 19,6 °C 0,0 km/h (0 Bft)
08.08.2018 23:34 19,6 °C 81 % 1012,4 hPa 0,0 mm 1,5 km/h (1 Bft) O-NO 59 ° 0 min 0,000 mm 0,0 UV-I 0 W/m² 16,2 °C 19,6 °C 3,2 km/h (1 Bft)
08.08.2018 23:35 19,6 °C 81 % 1012,4 hPa 0,0 mm 0,5 km/h (0 Bft) O-NO 59 ° 0 min 0,000 mm 0,0 UV-I 0 W/m² 16,2 °C 19,6 °C 1,6 km/h (1 Bft)
08.08.2018 23:36 19,6 °C 81 % 1012,5 hPa 0,0 mm 2,4 km/h (1 Bft) NW 313 ° 0 min 0,000 mm 0,0 UV-I 0 W/m² 16,2 °C 19,6 °C 3,2 km/h (1 Bft)
08.08.2018 23:37 19,6 °C 81 % 1012,4 hPa 0,0 mm 1,7 km/h (1 Bft) NW 316 ° 0 min 0,000 mm 0,0 UV-I 0 W/m² 16,2 °C 19,6 °C 3,2 km/h (1 Bft)
08.08.2018 23:38 19,7 °C 81 % 1012,4 hPa 0,0 mm 1,0 km/h (0 Bft) NW 310 ° 0 min 0,000 mm 0,0 UV-I 0 W/m² 16,3 °C 19,7 °C 3,2 km/h (1 Bft)
08.08.2018 23:39 19,7 °C 80 % 1012,4 hPa 0,0 mm 0,4 km/h (0 Bft) NW 310 ° 0 min 0,000 mm 0,0 UV-I 0 W/m² 16,1 °C 19,7 °C 3,2 km/h (1 Bft)
08.08.2018 23:40 19,7 °C 80 % 1012,5 hPa 0,0 mm 0,5 km/h (0 Bft) NW 310 ° 0 min 0,000 mm 0,0 UV-I 0 W/m² 16,1 °C 19,7 °C 1,6 km/h (1 Bft)
08.08.2018 23:41 19,7 °C 81 % 1012,4 hPa 0,0 mm 0,1 km/h (0 Bft) NW 310 ° 0 min 0,000 mm 0,0 UV-I 0 W/m² 16,3 °C 19,7 °C 1,6 km/h (1 Bft)
08.08.2018 23:42 19,7 °C 81 % 1012,5 hPa 0,0 mm 1,8 km/h (1 Bft) N-NW 336 ° 0 min 0,000 mm 0,0 UV-I 0 W/m² 16,3 °C 19,7 °C 3,2 km/h (1 Bft)
08.08.2018 23:43 19,8 °C 80 % 1012,5 hPa 0,0 mm 3,6 km/h (1 Bft) N-NO 22 ° 0 min 0,000 mm 0,0 UV-I 0 W/m² 16,2 °C 19,8 °C 4,8 km/h (1 Bft)
08.08.2018 23:44 19,8 °C 80 % 1012,5 hPa 0,0 mm 0,4 km/h (0 Bft) N-NO 22 ° 0 min 0,000 mm 0,0 UV-I 0 W/m² 16,2 °C 19,8 °C 1,6 km/h (1 Bft)
08.08.2018 23:45 19,8 °C 80 % 1012,5 hPa 0,0 mm 0,0 km/h (0 Bft) N-NO 22 ° 0 min 0,000 mm 0,0 UV-I 0 W/m² 16,2 °C 19,8 °C 0,0 km/h (0 Bft)
08.08.2018 23:46 19,8 °C 80 % 1012,5 hPa 0,0 mm 0,0 km/h (0 Bft) N-NO 22 ° 0 min 0,000 mm 0,0 UV-I 0 W/m² 16,2 °C 19,8 °C 0,0 km/h (0 Bft)
08.08.2018 23:47 19,8 °C 80 % 1012,5 hPa 0,0 mm 0,0 km/h (0 Bft) N-NO 22 ° 0 min 0,000 mm 0,0 UV-I 0 W/m² 16,2 °C 19,8 °C 0,0 km/h (0 Bft)
08.08.2018 23:48 19,8 °C 80 % 1012,5 hPa 0,0 mm 0,0 km/h (0 Bft) N-NO 22 ° 0 min 0,000 mm 0,0 UV-I 0 W/m² 16,2 °C 19,8 °C 0,0 km/h (0 Bft)
08.08.2018 23:49 19,8 °C 80 % 1012,5 hPa 0,0 mm 0,0 km/h (0 Bft) N-NO 22 ° 0 min 0,000 mm 0,0 UV-I 0 W/m² 16,2 °C 19,8 °C 0,0 km/h (0 Bft)
08.08.2018 23:50 19,8 °C 80 % 1012,5 hPa 0,0 mm 0,2 km/h (0 Bft) N-NO 22 ° 0 min 0,000 mm 0,0 UV-I 0 W/m² 16,2 °C 19,8 °C 1,6 km/h (1 Bft)
08.08.2018 23:51 19,8 °C 80 % 1012,5 hPa 0,0 mm 0,3 km/h (0 Bft) N-NO 22 ° 0 min 0,000 mm 0,0 UV-I 0 W/m² 16,2 °C 19,8 °C 1,6 km/h (1 Bft)
08.08.2018 23:52 19,7 °C 80 % 1012,5 hPa 0,0 mm 0,5 km/h (0 Bft) N-NO 22 ° 0 min 0,000 mm 0,0 UV-I 0 W/m² 16,1 °C 19,7 °C 1,6 km/h (1 Bft)
08.08.2018 23:53 19,7 °C 80 % 1012,5 hPa 0,0 mm 0,1 km/h (0 Bft) N-NO 22 ° 0 min 0,000 mm 0,0 UV-I 0 W/m² 16,1 °C 19,7 °C 1,6 km/h (1 Bft)
08.08.2018 23:54 19,7 °C 80 % 1012,5 hPa 0,0 mm 1,1 km/h (1 Bft) N-NO 22 ° 0 min 0,000 mm 0,0 UV-I 0 W/m² 16,1 °C 19,7 °C 3,2 km/h (1 Bft)
08.08.2018 23:55 19,7 °C 81 % 1012,5 hPa 0,0 mm 1,3 km/h (1 Bft) N-NO 22 ° 0 min 0,000 mm 0,0 UV-I 0 W/m² 16,3 °C 19,7 °C 3,2 km/h (1 Bft)
08.08.2018 23:56 19,7 °C 81 % 1012,5 hPa 0,0 mm 0,1 km/h (0 Bft) N-NO 22 ° 0 min 0,000 mm 0,0 UV-I 0 W/m² 16,3 °C 19,7 °C 1,6 km/h (1 Bft)
08.08.2018 23:57 19,6 °C 82 % 1012,5 hPa 0,0 mm 0,1 km/h (0 Bft) N-NO 22 ° 0 min 0,000 mm 0,0 UV-I 0 W/m² 16,4 °C 19,6 °C 1,6 km/h (1 Bft)
08.08.2018 23:58 19,6 °C 82 % 1012,5 hPa 0,0 mm 1,9 km/h (1 Bft) N-NO 22 ° 0 min 0,000 mm 0,0 UV-I 0 W/m² 16,4 °C 19,6 °C 3,2 km/h (1 Bft)
08.08.2018 23:59 19,5 °C 82 % 1012,5 hPa 0,0 mm 0,7 km/h (0 Bft) N-NO 22 ° 0 min 0,000 mm 0,0 UV-I 0 W/m² 16,3 °C 19,5 °C 3,2 km/h (1 Bft)
_ Min-Zeit 05:30 17:28 04:33 - 23:49 - - - - - - 06:20 05:30 23:49
Minimum _ 15,4 °C 43 % 1008,8 hPa - 0,0 km/h (0 Bft) - - - - - - 12,7 °C 15,4 °C 0,0 km/h (0 Bft)
_ Max-Zeit 15:15 04:43 10:15 23:59 08:53 - - 16:08 16:01 13:20 14:19 19:12 15:15 09:28
Maximum _ 27,6 °C 88 % 1013,1 hPa 0,0 mm 22,1 km/h
W-SW (4 Bft)
- - 1 min 0,483 mm 7,9 UV-I 1174 W/m² 18,2 °C 27,6 °C 30,6 km/h
W-NW (5 Bft)
Durchschnitt _ 21,6 °C 69 % 1011,3 hPa #0,0 mm 2,7 km/h (1 Bft) W-NW - #3:22 h #3,480 mm 3,4 UV-I 195 W/m² 15,4 °C 21,6 °C 4,8 km/h (1 Bft)